[[{"header":{"parameterUnit":"m.s-1","parameterCategory":1,"la1":30.6,"la2":29.2853,"lo1":-89.7004,"lo2":-87.6739,"dy":0.0162,"dx":0.0183,"nx":112,"ny":82,"refTime":"2024-03-31T06:00:00:Z","depth":0,"parameterNumber":2,"parameterNumberName":"U-component_of_WINDS"},"data":[0.0,0.0,0.0,0.0,0.0,0.0,0.0,0.0,0.0,0.0,0.0,0.0,0.0,0.0,0.0,0.0,0.0,0.0,0.0,0.0,0.0,0.0,0.0,0.0,0.0,0.0,0.0,0.0,0.0,0.0,0.0,0.0,0.0,0.0,0.0,0.0,0.0,0.0,0.0,0.0,0.0,0.0,0.0,0.0,0.0,0.0,0.0,0.0,0.0,0.0,0.0,0.0,0.0,0.0,0.0,0.0,0.0,0.0,0.0,0.0,0.0,0.0,0.0,0.0,0.0,0.0,0.0,0.0,0.0,0.0,0.0,0.0,0.0,0.0,0.0,0.0,0.0,0.0,0.0,0.0,0.0,0.0,0.0,0.0,0.0,0.0,0.0,0.0,0.0,0.0,0.0,3.8398,3.867,3.9021,3.9331,3.9508,3.9689,3.9878,0.0,0.0,0.0,0.0,0.0,0.0,0.0,0.0,0.0,0.0,0.0,0.0,0.0,0.0,0.0,0.0,0.0,0.0,0.0,0.0,0.0,0.0,0.0,0.0,0.0,0.0,0.0,0.0,0.0,0.0,0.0,0.0,0.0,0.0,0.0,0.0,0.0,0.0,0.0,0.0,0.0,0.0,0.0,0.0,0.0,0.0,0.0,0.0,0.0,0.0,0.0,0.0,0.0,0.0,0.0,0.0,0.0,0.0,0.0,0.0,0.0,0.0,0.0,0.0,0.0,0.0,0.0,0.0,0.0,0.0,0.0,0.0,0.0,0.0,0.0,0.0,0.0,0.0,0.0,0.0,0.0,0.0,0.0,0.0,0.0,0.0,0.0,0.0,0.0,0.0,0.0,0.0,0.0,0.0,0.0,0.0,0.0,0.0,0.0,0.0,0.0,0.0,0.0,0.0,3.9751,3.8524,3.8637,3.8928,3.921,3.9452,3.9653,3.9804,0.0,0.0,0.0,0.0,0.0,0.0,0.0,0.0,0.0,0.0,0.0,0.0,0.0,0.0,0.0,0.0,0.0,0.0,0.0,0.0,0.0,0.0,0.0,0.0,0.0,0.0,0.0,0.0,0.0,0.0,0.0,0.0,0.0,0.0,0.0,0.0,0.0,0.0,0.0,0.0,0.0,0.0,0.0,0.0,0.0,0.0,0.0,0.0,0.0,0.0,0.0,0.0,0.0,0.0,0.0,0.0,0.0,0.0,0.0,0.0,0.0,0.0,0.0,0.0,0.0,0.0,0.0,0.0,0.0,0.0,0.0,0.0,0.0,0.0,0.0,0.0,0.0,0.0,0.0,0.0,0.0,0.0,0.0,0.0,0.0,0.0,0.0,0.0,0.0,0.0,0.0,0.0,0.0,0.0,0.0,0.0,0.0,0.0,0.0,0.0,0.0,0.0,0.0,3.9517,3.8919,3.8403,3.8528,3.8777,3.9122,3.935,3.9575,3.9787,4.0232,0.0,0.0,0.0,0.0,0.0,0.0,0.0,0.0,0.0,0.0,0.0,0.0,0.0,0.0,0.0,0.0,0.0,0.0,0.0,0.0,0.0,0.0,0.0,0.0,0.0,0.0,0.0,0.0,0.0,0.0,0.0,0.0,0.0,0.0,0.0,0.0,0.0,0.0,0.0,0.0,0.0,0.0,0.0,0.0,0.0,0.0,0.0,0.0,0.0,0.0,0.0,0.0,0.0,0.0,0.0,0.0,0.0,0.0,0.0,0.0,0.0,0.0,0.0,0.0,0.0,0.0,0.0,0.0,0.0,0.0,0.0,0.0,0.0,0.0,0.0,0.0,0.0,0.0,0.0,0.0,0.0,0.0,0.0,0.0,0.0,0.0,0.0,0.0,0.0,0.0,0.0,0.0,0.0,0.0,0.0,0.0,0.0,0.0,0.0,0.0,0.0,0.0,3.9067,3.8308,3.8503,3.8518,3.8646,3.9017,3.9245,3.9483,3.9747,3.982,0.0,0.0,0.0,0.0,0.0,0.0,0.0,0.0,0.0,0.0,0.0,0.0,0.0,0.0,0.0,0.0,0.0,0.0,0.0,0.0,0.0,0.0,0.0,0.0,0.0,0.0,0.0,0.0,0.0,0.0,0.0,0.0,0.0,0.0,0.0,0.0,0.0,0.0,0.0,0.0,0.0,0.0,0.0,0.0,0.0,0.0,0.0,0.0,0.0,0.0,0.0,0.0,0.0,0.0,0.0,0.0,0.0,0.0,0.0,0.0,0.0,0.0,0.0,0.0,0.0,0.0,0.0,0.0,0.0,0.0,0.0,0.0,0.0,0.0,0.0,0.0,0.0,0.0,0.0,0.0,0.0,0.0,0.0,0.0,0.0,0.0,0.0,0.0,0.0,0.0,0.0,0.0,0.0,0.0,0.0,0.0,0.0,0.0,0.0,0.0,0.0,0.0,3.9666,3.8941,3.9198,3.8787,3.8611,3.8884,3.9163,3.9395,3.9599,3.9741,0.0,0.0,0.0,0.0,0.0,0.0,0.0,0.0,0.0,0.0,0.0,0.0,0.0,0.0,0.0,0.0,0.0,0.0,0.0,0.0,0.0,0.0,0.0,0.0,0.0,0.0,0.0,0.0,0.0,0.0,0.0,0.0,0.0,0.0,0.0,0.0,0.0,0.0,0.0,0.0,0.0,0.0,0.0,0.0,0.0,0.0,0.0,0.0,0.0,0.0,0.0,0.0,0.0,0.0,0.0,0.0,0.0,0.0,0.0,0.0,0.0,0.0,0.0,0.0,0.0,0.0,0.0,0.0,0.0,0.0,0.0,0.0,0.0,0.0,0.0,0.0,0.0,0.0,0.0,0.0,0.0,0.0,0.0,0.0,0.0,0.0,0.0,0.0,0.0,0.0,0.0,0.0,0.0,0.0,0.0,0.0,0.0,0.0,0.0,0.0,0.0,0.0,3.9921,3.9356,0.0,3.9086,3.8911,3.8724,3.8991,3.9278,3.9526,0.0,0.0,0.0,0.0,0.0,0.0,0.0,0.0,0.0,0.0,0.0,0.0,0.0,0.0,0.0,0.0,0.0,0.0,0.0,0.0,0.0,0.0,0.0,0.0,0.0,0.0,0.0,0.0,0.0,0.0,0.0,0.0,0.0,0.0,0.0,0.0,0.0,0.0,0.0,0.0,0.0,0.0,0.0,0.0,0.0,0.0,0.0,0.0,0.0,0.0,0.0,0.0,0.0,0.0,0.0,0.0,0.0,0.0,0.0,0.0,0.0,0.0,0.0,0.0,0.0,0.0,0.0,0.0,0.0,0.0,0.0,0.0,0.0,0.0,0.0,0.0,0.0,0.0,0.0,0.0,0.0,0.0,0.0,0.0,0.0,0.0,0.0,0.0,0.0,0.0,0.0,0.0,0.0,0.0,0.0,0.0,0.0,0.0,0.0,0.0,0.0,0.0,4.0657,4.0277,3.9919,0.0,3.9508,3.9199,3.897,3.9006,3.9144,3.9427,0.0,0.0,0.0,0.0,0.0,0.0,0.0,0.0,0.0,0.0,0.0,0.0,0.0,0.0,0.0,0.0,0.0,0.0,0.0,0.0,0.0,0.0,0.0,0.0,0.0,0.0,0.0,0.0,0.0,0.0,0.0,0.0,0.0,0.0,0.0,0.0,0.0,0.0,0.0,0.0,0.0,0.0,0.0,0.0,0.0,0.0,0.0,0.0,0.0,0.0,0.0,0.0,0.0,0.0,0.0,0.0,0.0,0.0,0.0,0.0,0.0,0.0,0.0,0.0,0.0,0.0,0.0,0.0,0.0,0.0,0.0,0.0,0.0,0.0,0.0,0.0,0.0,0.0,0.0,0.0,0.0,0.0,0.0,0.0,0.0,0.0,0.0,0.0,0.0,0.0,0.0,0.0,0.0,0.0,0.0,0.0,0.0,0.0,0.0,0.0,0.0,0.0,4.114,4.0791,4.0682,4.1153,4.0076,3.9427,3.9668,3.9222,3.9021,0.0,0.0,0.0,0.0,0.0,0.0,0.0,0.0,0.0,0.0,0.0,0.0,0.0,0.0,0.0,0.0,0.0,0.0,0.0,0.0,0.0,0.0,0.0,0.0,0.0,0.0,0.0,0.0,0.0,0.0,0.0,0.0,0.0,0.0,0.0,0.0,0.0,0.0,0.0,0.0,0.0,0.0,0.0,0.0,0.0,0.0,0.0,0.0,0.0,0.0,0.0,0.0,0.0,0.0,0.0,0.0,0.0,0.0,0.0,0.0,0.0,0.0,0.0,0.0,0.0,0.0,0.0,0.0,0.0,0.0,0.0,0.0,0.0,0.0,0.0,0.0,0.0,0.0,0.0,0.0,0.0,0.0,0.0,0.0,0.0,0.0,0.0,0.0,0.0,0.0,0.0,0.0,0.0,0.0,0.0,0.0,0.0,0.0,0.0,0.0,0.0,0.0,0.0,4.0866,4.096,4.0979,4.0976,4.0781,4.031,3.9491,3.9487,3.9427,3.9168,0.0,0.0,0.0,0.0,0.0,0.0,0.0,0.0,0.0,0.0,0.0,0.0,0.0,0.0,0.0,0.0,0.0,0.0,0.0,0.0,0.0,0.0,0.0,0.0,0.0,0.0,0.0,0.0,0.0,0.0,0.0,0.0,0.0,0.0,0.0,0.0,0.0,0.0,0.0,0.0,0.0,0.0,0.0,0.0,0.0,0.0,0.0,0.0,0.0,0.0,0.0,0.0,0.0,0.0,0.0,0.0,0.0,0.0,0.0,0.0,0.0,0.0,0.0,0.0,0.0,0.0,0.0,0.0,0.0,0.0,0.0,0.0,0.0,0.0,0.0,0.0,0.0,0.0,0.0,0.0,0.0,0.0,0.0,0.0,0.0,0.0,0.0,0.0,0.0,0.0,0.0,0.0,0.0,0.0,0.0,0.0,0.0,0.0,0.0,0.0,0.0,0.0,4.0621,4.0942,4.1142,4.1202,4.1202,4.0934,4.0311,3.9949,3.9687,3.95,0.0,0.0,0.0,0.0,0.0,0.0,0.0,0.0,0.0,0.0,0.0,0.0,0.0,0.0,0.0,0.0,0.0,0.0,0.0,0.0,0.0,0.0,0.0,0.0,0.0,0.0,0.0,0.0,0.0,0.0,0.0,0.0,0.0,0.0,0.0,0.0,0.0,0.0,0.0,0.0,0.0,0.0,0.0,0.0,0.0,0.0,0.0,0.0,0.0,0.0,0.0,0.0,0.0,0.0,0.0,0.0,0.0,0.0,0.0,0.0,0.0,0.0,0.0,0.0,0.0,0.0,0.0,0.0,0.0,0.0,0.0,0.0,0.0,0.0,0.0,0.0,0.0,0.0,0.0,0.0,0.0,0.0,0.0,0.0,0.0,0.0,0.0,0.0,0.0,0.0,0.0,0.0,0.0,0.0,0.0,0.0,0.0,0.0,0.0,0.0,0.0,0.0,4.0382,4.077,4.1146,4.1622,4.1438,4.139,4.1649,4.0584,3.9999,4.0187,0.0,0.0,0.0,0.0,0.0,0.0,0.0,0.0,0.0,0.0,0.0,0.0,0.0,0.0,0.0,0.0,0.0,0.0,0.0,0.0,0.0,0.0,0.0,0.0,0.0,0.0,0.0,0.0,0.0,0.0,0.0,0.0,0.0,0.0,0.0,0.0,0.0,0.0,0.0,0.0,0.0,0.0,0.0,0.0,0.0,0.0,0.0,0.0,0.0,0.0,0.0,0.0,0.0,0.0,0.0,0.0,0.0,0.0,0.0,0.0,2.6038,0.0,0.0,0.0,0.0,0.0,0.0,0.0,0.0,0.0,0.0,0.0,0.0,0.0,0.0,0.0,0.0,0.0,0.0,0.0,0.0,0.0,0.0,0.0,0.0,0.0,0.0,0.0,0.0,0.0,0.0,0.0,0.0,0.0,0.0,0.0,0.0,0.0,0.0,0.0,0.0,0.0,4.0108,4.0522,4.0936,4.1407,4.1725,4.179,4.1487,4.1488,4.1345,4.0983,0.0,0.0,0.0,0.0,0.0,0.0,0.0,0.0,0.0,0.0,0.0,0.0,0.0,0.0,0.0,0.0,0.0,0.0,0.0,0.0,0.0,0.0,0.0,0.0,0.0,0.0,0.0,0.0,0.0,0.0,0.0,0.0,0.0,0.0,0.0,0.0,0.0,0.0,0.0,0.0,0.0,0.0,0.0,0.0,0.0,0.0,0.0,0.0,0.0,0.0,0.0,0.0,0.0,0.0,0.0,0.0,0.0,0.0,0.0,0.0,0.0,2.5852,0.0,0.0,0.0,0.0,0.0,0.0,0.0,0.0,0.0,0.0,0.0,0.0,0.0,0.0,0.0,0.0,0.0,0.0,0.0,0.0,0.0,0.0,0.0,0.0,0.0,0.0,0.0,0.0,0.0,0.0,0.0,0.0,0.0,0.0,0.0,0.0,0.0,0.0,0.0,0.0,3.9841,4.0375,4.0823,4.1175,4.169,4.1967,4.1898,4.1867,4.1784,4.1637,4.1607,0.0,0.0,0.0,0.0,0.0,0.0,0.0,0.0,0.0,0.0,0.0,0.0,0.0,0.0,0.0,0.0,0.0,0.0,0.0,0.0,0.0,0.0,0.0,0.0,0.0,0.0,0.0,0.0,0.0,0.0,0.0,0.0,0.0,0.0,0.0,0.0,0.0,0.0,0.0,0.0,0.0,0.0,0.0,0.0,0.0,0.0,0.0,0.0,0.0,0.0,0.0,0.0,0.0,1.9729,2.0192,2.0628,2.1114,2.1516,2.1926,2.3531,2.4467,2.4946,0.0,0.0,0.0,0.0,0.0,0.0,0.0,0.0,0.0,0.0,0.0,0.0,0.0,0.0,0.0,0.0,0.0,0.0,0.0,0.0,0.0,0.0,0.0,0.0,0.0,3.0577,3.1005,0.0,0.0,0.0,0.0,0.0,0.0,0.0,0.0,0.0,0.0,0.0,0.0,3.9927,4.0459,4.088,4.1156,4.159,4.2044,4.256,4.2312,4.2305,4.2719,4.2471,4.2657,0.0,0.0,0.0,0.0,0.0,0.0,0.0,0.0,0.0,0.0,0.0,0.0,0.0,0.0,0.0,0.0,0.0,0.0,0.0,0.0,0.0,0.0,0.0,0.0,0.0,0.0,0.0,0.0,0.0,0.0,0.0,0.0,1.4508,1.446,0.0,0.0,0.0,0.0,0.0,0.0,0.0,0.0,0.0,0.0,0.0,0.0,0.0,1.6038,1.6285,1.7068,1.7598,1.794,1.8427,1.8812,1.9104,1.9637,2.0207,2.0831,2.1548,0.0,2.3732,2.4005,0.0,0.0,0.0,0.0,0.0,0.0,0.0,0.0,0.0,0.0,0.0,0.0,0.0,0.0,0.0,0.0,0.0,0.0,0.0,0.0,0.0,0.0,2.9326,2.9697,3.0011,3.0337,0.0,3.1453,3.2114,3.2453,3.3083,0.0,0.0,0.0,0.0,0.0,0.0,0.0,4.1099,4.1151,4.1341,4.1899,4.177,4.2124,4.3332,4.3648,4.4212,4.5251,4.5359,4.5287,4.5014,4.5155,0.0,0.0,0.0,0.0,0.0,0.0,0.0,0.0,0.0,0.0,0.0,0.0,0.0,0.0,0.0,0.0,0.0,0.0,0.0,0.0,0.0,0.0,0.0,0.0,0.0,0.0,0.0,0.0,0.0,1.3673,1.3407,1.3262,1.2894,1.2651,0.0,0.0,0.0,0.0,0.0,0.0,0.0,0.0,0.0,1.3847,1.4712,1.5237,1.535,1.5937,1.6362,1.6645,1.7162,1.7676,1.821,1.8688,1.9332,2.007,2.0419,2.1073,2.1989,2.2711,2.3214,2.3582,0.0,0.0,0.0,0.0,2.5988,2.6144,2.659,2.6805,0.0,0.0,0.0,0.0,0.0,0.0,0.0,0.0,0.0,0.0,0.0,0.0,0.0,2.889,2.9282,2.9703,3.0247,3.083,3.1397,0.0,3.2908,3.3934,3.5128,0.0,0.0,0.0,0.0,0.0,3.9865,4.0241,4.0667,4.1143,4.1314,4.1721,4.2576,4.2954,4.3625,4.476,4.5105,4.5419,4.5741,4.5518,4.5248,0.0,0.0,0.0,0.0,0.0,0.0,0.0,0.0,0.0,0.0,0.0,0.0,0.0,0.0,0.0,0.0,0.0,0.0,0.0,0.0,0.0,0.0,0.0,0.0,0.0,0.0,0.0,0.0,1.2735,1.254,1.2419,1.2102,1.1956,0.0,0.0,0.0,0.0,0.0,0.0,1.2497,1.3026,1.337,1.3491,1.4208,1.464,1.4688,1.5112,1.5421,1.5642,1.6163,1.6739,1.7435,1.7971,1.865,1.9417,1.9631,1.9996,2.0496,2.1548,2.2157,2.2495,2.295,2.3299,2.3657,2.4519,2.4882,2.5009,2.5485,2.5727,2.5925,2.6155,0.0,2.6665,2.6828,0.0,0.0,0.0,0.0,2.6992,2.7135,2.7258,2.7502,2.8099,2.8605,2.9145,2.9851,3.0324,3.0855,0.0,3.2618,3.3658,3.4771,0.0,0.0,0.0,0.0,3.8487,3.9149,3.9663,4.0153,4.0672,4.0957,4.1375,4.2103,4.2503,4.319,4.4329,4.471,4.515,4.5696,4.5524,4.5333,4.5153,0.0,0.0,0.0,0.0,0.0,0.0,0.0,0.0,0.0,0.0,0.0,0.0,0.0,0.0,0.0,0.0,0.0,0.0,0.0,0.0,0.0,0.0,0.0,0.0,0.0,0.0,0.0,0.0,0.0,1.237,1.1932,0.0,0.0,0.0,0.0,1.2346,1.2151,1.2248,1.2764,1.2813,1.3031,1.3491,1.4034,1.4442,1.4688,1.4987,1.5131,1.5131,1.5618,1.614,1.6683,1.741,1.8141,1.885,1.9119,1.941,1.9702,2.0473,2.1069,2.1526,2.1985,2.2454,2.2931,2.3614,2.4025,2.4316,2.4797,2.4967,2.5031,2.5432,2.5738,2.5937,2.5958,2.5958,0.0,0.0,2.6104,2.625,2.625,2.6603,2.7035,2.7441,2.8059,2.8756,2.9542,3.0094,3.0653,0.0,3.2059,3.2907,3.4281,0.0,3.6393,3.7776,3.8693,3.9517,4.0309,4.0216,4.0396,4.1261,4.1033,4.1377,4.2727,4.3266,4.4019,4.5162,4.5373,4.521,4.4693,4.5379,4.5462,4.4735,4.5241,0.0,0.0,0.0,0.0,0.0,0.0,0.0,0.0,0.0,0.0,0.0,0.0,0.0,0.0,0.0,0.0,0.0,0.0,0.0,0.0,0.0,0.0,0.0,0.0,0.0,0.0,0.0,0.0,1.2127,1.1829,0.0,1.2346,1.1902,1.1829,1.237,1.2151,1.2151,1.2516,1.271,1.3031,1.3491,1.3853,1.4166,1.4448,1.4544,1.4592,1.4592,1.5279,1.5992,1.6683,1.7433,1.8163,1.8879,1.8915,1.9081,1.9356,1.9631,2.0102,2.0731,2.1208,2.1588,2.1954,2.2511,2.2765,2.2887,2.3193,2.3497,2.3865,2.4605,2.5137,2.5485,2.5644,2.5801,2.5895,2.5895,2.5948,2.6011,2.6011,2.6125,2.6396,2.6983,2.7482,2.8127,2.9106,2.978,3.0419,3.108,3.2,3.2982,3.401,3.481,3.57,3.6798,3.7349,3.7871,3.8549,3.9005,3.9481,4.0055,4.0319,4.0808,4.1615,4.2104,4.3092,4.4816,4.4686,4.4922,4.5786,4.5105,4.4625,4.4455,4.3926,4.3798,0.0,0.0,0.0,0.0,0.0,0.0,0.0,0.0,0.0,0.0,0.0,0.0,0.0,0.0,0.0,0.0,0.0,0.0,0.0,0.0,0.0,0.0,0.0,0.0,0.0,0.0,1.22,1.2341,1.2151,1.22,1.271,1.2322,1.2175,1.2589,1.2389,1.2357,1.2627,1.281,1.3174,1.3741,1.3938,1.4208,1.457,1.457,1.457,1.4576,1.5301,1.6025,1.6725,1.7588,1.834,1.8976,1.9115,1.9271,1.9427,1.9505,1.9832,2.0296,2.0628,2.088,2.1091,2.1655,2.1856,2.1891,2.2081,2.247,2.2996,2.3779,2.4456,2.502,2.5359,2.5665,2.5895,2.5895,2.5895,2.5895,2.5895,2.5895,2.6021,2.6541,2.7085,2.7753,2.8705,2.9541,3.0267,3.0798,3.1752,3.2715,3.3438,3.4381,3.5314,3.6098,3.6795,3.7468,3.8157,3.8839,3.9467,4.0019,4.0608,4.1162,4.1602,4.2113,4.301,4.4451,4.4313,4.4582,4.5428,4.4689,4.4169,4.3966,4.3314,4.3063,4.3238,0.0,0.0,0.0,0.0,0.0,0.0,0.0,0.0,0.0,0.0,0.0,0.0,0.0,0.0,0.0,0.0,0.0,0.0,0.0,0.0,0.0,0.0,0.0,1.2861,1.2589,1.2589,1.305,1.2929,1.3007,1.3478,1.3115,1.2921,1.312,1.2886,1.2865,1.3114,1.3143,1.3495,1.4282,1.4307,1.4562,1.5081,1.5107,1.5107,1.5107,1.5638,1.6193,1.6745,1.7818,1.8617,1.9141,1.9681,1.9892,1.9909,2.0119,2.0192,2.02,2.0285,2.0303,2.0394,2.1113,2.1392,2.1428,2.1621,2.1991,2.247,2.2969,2.3754,2.4625,2.5094,2.5571,2.595,2.595,2.595,2.595,2.595,2.595,2.6013,2.6222,2.6905,2.7719,2.8391,2.9383,3.026,3.0674,3.1389,3.2113,3.2624,3.4048,3.5285,3.582,3.7205,0.0,3.9361,3.9906,4.0494,4.1295,4.1912,4.2423,4.2847,4.3423,4.3892,4.4192,4.4421,4.4242,4.3483,4.4153,4.4128,4.3273,4.3523,4.3393,4.2872,0.0,0.0,0.0,0.0,0.0,0.0,0.0,0.0,0.0,0.0,0.0,0.0,0.0,0.0,0.0,0.0,0.0,0.0,0.0,0.0,0.0,0.0,1.3147,1.3298,1.3249,1.3249,1.337,1.3346,1.3516,1.4042,1.3783,1.3783,1.424,1.383,1.3692,1.3945,1.3784,1.3944,1.4562,1.4593,1.4745,1.5107,1.5107,1.5107,1.5107,1.5832,1.651,1.7104,1.8113,1.8901,1.9478,1.9759,1.9892,1.9892,1.9965,1.999,2.0014,2.0373,2.0513,2.0537,2.075,2.094,2.1152,2.1411,2.1918,2.2584,2.3234,2.426,2.5303,2.5781,2.6387,2.6922,2.6922,2.6922,2.6922,2.6922,2.6922,2.7009,2.7421,2.7946,2.8605,2.9475,3.04,3.118,3.1631,3.2351,3.293,3.2985,3.4268,3.5525,3.611,3.7199,0.0,3.8836,3.958,4.0271,4.0834,4.1354,4.1813,4.2212,4.2663,4.3285,4.4153,4.4001,4.4033,4.4396,4.3558,4.2841,4.2305,4.2597,4.2582,0.0,0.0,0.0,0.0,0.0,0.0,0.0,0.0,0.0,0.0,0.0,0.0,0.0,0.0,0.0,0.0,0.0,0.0,0.0,0.0,0.0,0.0,1.3195,1.3283,1.378,1.3729,1.3749,1.398,1.3992,1.4171,1.4604,1.4396,1.4354,1.4683,1.441,1.4293,1.4473,1.4409,1.4575,1.5024,1.5049,1.5153,1.5439,1.5542,1.5594,1.56,1.6444,1.7146,1.7743,1.8697,1.9421,0.0,2.0225,2.0313,2.0313,2.0313,2.0313,0.0,0.0,0.0,0.0,0.0,2.0692,2.0861,2.115,2.1668,2.2324,2.3069,2.4164,2.5331,2.5897,2.6582,2.7193,2.7271,2.7293,2.7293,2.7293,2.7293,2.7403,2.7777,2.8376,2.9087,2.9914,3.084,3.165,3.2133,0.0,0.0,3.3826,3.5036,3.6115,3.6639,3.782,3.885,3.9376,4.0179,4.0862,4.1357,4.1957,4.2451,4.273,4.3156,0.0,0.0,0.0,4.4218,4.4365,4.3093,0.0,0.0,0.0,4.1817,4.153,0.0,0.0,0.0,3.9054,3.8476,0.0,0.0,0.0,0.0,0.0,0.0,0.0,0.0,0.0,0.0,0.0,0.0,0.0,0.0,0.0,0.0,1.3143,1.3421,1.422,1.4136,1.418,1.4683,1.4738,1.484,1.5125,1.492,1.4798,1.4828,1.4844,1.4847,1.4847,0.0,0.0,0.0,0.0,1.5743,1.5998,1.6271,1.6404,1.6404,1.7272,1.795,1.8475,1.9361,2.0024,2.0514,2.0771,2.0899,2.0899,2.0899,2.0899,2.0861,2.0432,2.0289,2.0313,2.0557,2.0646,2.0719,2.0986,0.0,0.0,2.2839,2.3931,2.5079,2.5825,2.6572,2.72,2.7368,2.7457,2.7479,2.7479,2.7479,2.7546,2.7878,2.8623,2.9464,3.0197,3.1179,3.2031,3.2494,3.3514,3.444,3.4917,3.5978,3.6921,3.7342,3.8682,3.9859,4.0391,4.109,4.1753,4.2318,0.0,0.0,4.3743,4.4179,4.4474,4.4597,4.4749,4.449,4.3771,4.2855,4.2243,4.2026,4.155,4.115,4.0891,4.0333,3.9967,3.9798,3.8584,3.8194,0.0,0.0,0.0,0.0,0.0,0.0,0.0,0.0,0.0,0.0,0.0,0.0,0.0,0.0,0.0,1.3303,1.341,1.3698,1.4507,1.4577,1.4666,1.4978,1.5009,1.5137,1.5396,1.5369,1.5433,1.5643,1.5677,1.566,1.566,1.5921,1.6084,1.6144,1.6371,1.6497,1.6544,1.6849,1.702,1.704,0.0,0.0,1.8748,1.9639,2.0197,2.0514,2.0771,2.0899,2.0899,2.0899,2.0899,2.0883,2.0799,2.0769,2.0769,2.082,2.0972,2.1191,2.1468,2.2063,2.2851,2.3871,2.4943,2.5986,2.678,2.7532,0.0,2.8171,2.8345,2.8519,2.8519,2.8519,2.8657,2.933,2.9895,3.0609,3.1728,3.2546,3.3216,3.369,3.4402,3.5075,3.5466,3.6465,3.7387,3.7939,3.8833,3.9646,4.0198,4.0802,4.144,4.2093,4.2681,4.3161,4.3447,4.3805,4.4027,4.4039,4.4184,4.3973,4.3344,4.3325,4.2958,4.2171,4.1579,4.114,4.0814,3.9708,3.8996,3.8707,3.8715,3.8748,0.0,0.0,0.0,0.0,0.0,0.0,0.0,0.0,0.0,0.0,0.0,1.1717,1.2078,0.0,1.2546,1.3148,1.3393,1.3734,1.4416,1.4611,1.4843,1.5255,1.5306,1.5409,1.5668,1.5692,1.5753,1.5879,1.5891,1.5971,1.6078,1.6344,1.6583,1.6749,1.7001,1.7206,1.7358,1.7661,1.7878,1.8003,1.871,1.9205,1.9476,2.0034,2.0462,2.0719,2.0848,2.0899,2.0899,2.0899,2.0899,2.0899,2.0899,2.0899,2.0899,2.0899,2.0968,2.1173,2.1547,2.2224,2.3079,2.4158,2.524,2.6235,2.7061,2.7641,2.8066,2.8324,2.8511,2.8617,2.8757,2.8873,2.9105,2.9748,3.0431,3.125,3.2307,3.3086,3.3683,3.416,3.4722,3.5236,3.5642,3.6671,3.7634,3.8127,3.8885,3.9535,3.9897,4.0457,4.1022,4.1638,4.227,4.2806,4.3219,4.3553,4.3748,4.3748,4.3805,4.3683,4.3331,4.3266,4.295,4.2314,4.1629,4.1181,4.0953,4.0016,3.9461,3.9293,3.9205,3.8838,0.0,0.0,0.0,0.0,0.0,0.0,0.0,0.0,1.1255,1.1255,1.1288,1.1443,1.1871,1.2183,1.2532,1.3008,1.3359,1.3755,1.4337,1.4613,1.4981,1.5578,1.5604,1.5682,1.5953,1.5971,1.5998,1.6045,1.6045,1.6185,1.6457,1.6789,1.7113,1.7411,1.7773,1.8022,1.8251,1.852,1.8755,1.8982,1.9569,1.9964,2.0189,2.0462,2.0694,2.0899,2.0899,2.0899,2.0899,2.0968,2.0968,2.1002,2.1096,2.1121,2.1121,2.1019,2.0968,2.107,2.1725,2.24,2.3179,2.4347,2.5362,2.6235,2.7061,2.7452,2.7678,2.8113,2.8324,2.8465,2.8734,2.8989,2.9336,2.9943,3.0769,3.1693,3.2624,3.3322,3.3903,3.4314,3.4784,3.5236,3.5642,3.6716,3.7696,3.8127,3.8885,3.9463,3.9663,4.0128,4.0665,4.1206,4.1916,4.2539,4.3067,4.3357,4.3492,4.3492,4.3492,4.3432,4.3313,4.2992,4.2618,4.2238,4.1555,4.1088,4.0884,4.037,4.0076,4.0023,3.952,3.8787,1.1194,1.1194,1.1194,1.1194,1.1194,1.1194,0.0,0.0,1.1482,1.1482,1.1598,1.1833,1.2114,1.2402,1.2735,1.3268,1.3598,1.4047,1.4801,1.4942,1.5289,1.6121,1.6009,1.5968,1.6244,1.6271,1.6344,1.6597,1.6597,1.6763,1.7073,1.7569,1.7983,1.8265,1.8795,1.9116,1.9142,1.942,1.9576,1.9602,2.0153,2.0444,2.0462,2.0719,2.0865,2.0899,2.0899,2.0899,2.0925,2.1173,2.1249,2.13,2.1776,2.1979,2.1903,2.142,2.1249,2.1394,2.24,2.2979,2.3495,2.505,2.5824,2.6235,2.7061,2.7452,2.7607,2.7678,2.8043,2.8465,2.8734,2.9128,2.9692,3.0589,3.1383,3.2186,3.312,3.3717,3.4118,3.4356,3.4784,3.5236,3.5642,3.6606,3.7519,3.8108,3.8885,3.9463,3.9663,4.0005,4.0459,4.1055,4.1736,4.2397,4.3035,4.3127,4.3159,4.3159,4.3159,4.3099,4.2961,4.2634,4.2206,4.1703,4.1139,4.061,4.0119,3.9892,3.9663,3.9481,3.9053,3.88,1.1194,1.1194,0.0,0.0,1.1358,1.1416,1.1529,1.1603,1.1669,1.1669,1.1735,1.1881,1.2087,1.2526,1.2937,0.0,1.3741,1.4201,1.4702,1.5062,1.5538,1.6217,1.6663,1.6875,1.6828,1.6835,1.6935,1.7213,1.7358,1.7675,1.8156,1.8722,1.9251,1.9713,2.0122,2.0442,2.0628,2.0761,2.0886,2.1045,2.1042,2.1026,2.1018,2.0943,2.0899,2.0899,2.0899,2.0899,2.0925,2.1198,2.1394,2.1598,2.2123,2.2426,2.2526,2.2148,2.2097,2.2325,2.2929,2.3619,2.4378,2.5367,2.6091,2.6675,2.7143,2.7357,2.7452,2.756,2.7867,2.8256,2.8687,2.9347,3.0102,3.0949,3.1781,3.2612,3.3407,3.3852,3.416,3.4356,3.4784,3.5236,3.5642,3.6587,3.75,3.8108,3.8793,3.9301,3.9499,3.9753,4.0161,4.0851,4.1523,4.2077,4.2476,4.2695,4.282,4.282,4.282,4.2695,4.2429,4.2109,4.1687,4.1139,4.061,4.0156,3.9821,3.9625,3.9481,3.9388,3.898,3.856,1.1269,0.0,0.0,1.1523,1.1575,1.1612,1.1758,1.1839,1.1881,1.1881,1.1923,1.2008,1.2164,1.2668,1.3123,1.329,1.3862,1.4455,1.4901,1.5458,1.6092,1.6796,1.7503,1.7924,1.7878,1.7747,1.78,1.8172,1.8383,1.8754,1.9347,1.9864,2.0412,2.0931,2.1209,2.1445,2.1696,2.1723,2.1804,2.2011,2.1711,2.1565,2.155,2.1201,2.1093,2.1163,2.1067,2.1096,2.1249,2.1598,2.1903,2.2207,2.2904,2.3279,2.3454,2.3395,2.332,2.3304,2.3703,2.4412,2.5221,2.5839,2.6424,2.6948,2.7214,2.7309,2.7333,2.7476,2.7796,2.8233,2.8757,2.9692,3.069,3.1427,3.2307,3.3142,3.3704,3.4,3.4243,3.4377,3.4784,3.5216,3.5562,3.6508,3.7404,3.8033,3.8631,3.9104,3.9355,3.9625,4.0018,4.0646,4.1242,4.1688,4.1851,4.2158,4.2301,4.2238,4.2238,4.2077,4.1753,4.1473,4.1072,4.0576,4.0139,3.9818,3.9625,3.9463,3.9406,3.9388,3.898,3.8375,0.0,0.0,1.1532,1.173,1.1782,1.1782,1.1787,1.1952,1.2076,1.2076,1.2258,1.2368,1.24,1.2866,1.3283,1.3288,1.4013,1.4896,1.5731,1.6311,1.7074,1.8213,1.8598,1.899,0.0,1.9094,1.9034,1.9689,1.9737,2.0025,2.0609,2.0923,2.1221,2.1561,2.1823,2.1984,2.1984,2.1984,2.1984,2.2011,2.2003,2.1968,2.196,2.1565,2.1564,2.1844,2.1454,2.1573,2.2097,2.2627,2.3004,2.3354,2.4406,2.4833,2.4907,2.5401,2.4962,2.4174,2.4977,2.5416,2.5824,2.6602,2.6877,2.6948,2.7214,2.7309,2.7309,2.7309,2.7831,2.8511,2.8966,3.017,3.145,3.2198,3.3031,3.3747,3.4034,3.4264,3.4397,3.4397,3.4784,3.5175,3.5379,3.629,3.7211,3.781,3.8431,3.8943,3.9337,3.9747,4.0121,4.0461,4.0885,4.1188,4.1323,4.1522,4.1555,4.1357,4.134,4.1189,4.085,4.0631,4.037,4.0031,3.9821,3.9607,3.9406,3.9406,3.9406,3.9388,3.898,3.8375,0.0,0.0,1.174,1.1952,1.2004,1.2037,1.2173,1.2258,1.231,1.231,1.234,1.2468,1.2686,1.3044,1.3423,1.3819,1.4277,1.4982,1.6031,1.6624,1.7378,1.8546,1.9268,0.0,0.0,0.0,0.0,2.031,2.0742,2.1186,2.1614,2.1869,2.2171,2.2518,2.2609,2.2656,2.2656,2.2656,2.2656,2.2656,2.2446,2.2215,2.2011,2.1865,2.1831,2.1895,2.1955,2.211,2.24,2.2929,2.352,2.418,2.4879,2.5377,2.5737,2.61,2.61,2.5965,2.5849,2.6125,2.6544,2.6794,2.701,2.7167,2.7262,2.7309,2.7333,2.7465,2.7914,2.8558,2.9197,3.0431,3.1681,3.2416,3.33,3.4034,3.4251,3.4356,3.4397,3.4397,3.4784,3.5154,3.5379,3.629,3.7347,3.8356,3.8889,3.9247,3.9388,3.9514,3.9696,3.9932,4.0211,4.042,4.0562,4.0751,4.0834,4.0766,4.0782,4.0663,4.0407,4.0246,4.0051,3.9803,3.9607,3.9463,3.9406,3.9406,3.9406,3.9388,3.8848,3.8225,1.1886,1.1905,1.1956,1.2169,1.222,1.228,1.2521,1.2577,1.2631,1.2822,1.2794,1.2849,1.3283,1.3499,1.3824,1.4385,1.4896,1.5624,1.6763,1.747,1.8251,1.9302,2.0089,0.0,0.0,0.0,0.0,2.1271,2.167,2.2061,2.2406,2.2597,2.2784,2.2978,2.2986,2.2986,2.2986,2.2986,2.2986,2.3014,2.2895,2.2754,2.2549,2.2611,2.2728,2.2913,2.3068,2.3298,2.3643,2.4069,2.4576,2.5123,2.5669,2.6066,2.6424,2.6688,2.689,2.6986,2.6544,2.6664,2.7034,2.7034,2.7153,2.7309,2.7309,2.7309,2.7333,2.7536,2.8032,2.8699,2.9531,3.0801,3.2042,3.2763,3.359,3.4243,3.4377,3.4397,3.4397,3.4397,3.4784,3.5154,3.5379,3.6474,3.7658,3.8653,3.9141,3.9406,3.9406,3.9406,3.9445,3.9589,3.9768,3.9927,4.0005,4.0211,4.0296,4.0211,4.0211,4.0124,3.9932,3.9839,3.9714,3.9607,3.9463,3.9406,3.9406,3.9406,3.9355,3.9283,3.8682,3.8071,1.2154,1.2211,1.2253,1.2443,1.2491,1.2577,1.2876,1.2962,1.3125,1.3618,1.351,1.3499,0.0,0.0,1.4412,1.4982,1.5764,1.671,1.7884,1.8762,1.9591,0.0,0.0,0.0,0.0,0.0,0.0,2.2513,0.0,2.2656,2.297,2.2986,2.2986,2.2986,2.2986,2.3014,2.3014,2.3042,2.307,2.307,2.3416,2.3556,2.3604,2.3769,2.4175,2.4744,2.4712,2.5057,2.567,2.5956,2.6118,2.6227,2.6729,2.6921,2.6948,2.7214,2.7309,2.7262,2.702,2.7081,2.7309,2.7309,2.7309,2.7309,2.7309,2.7309,2.7357,2.7594,2.8186,2.8979,2.9988,3.1281,3.251,3.3236,3.3915,3.4397,3.4397,3.4397,3.4397,3.4397,3.4784,3.5195,3.544,3.6814,3.8113,3.8708,3.9141,3.9406,3.9406,3.9406,3.9406,3.9406,3.9571,3.9681,3.9681,3.9854,3.9889,3.9696,3.9681,3.9607,3.9406,3.9406,3.9406,3.9406,3.9406,3.9406,3.9406,3.9406,3.9301,3.9086,3.8464,3.7863,1.366,1.3649,1.3691,1.3722,1.3738,1.3759,1.3846,1.3873,1.39,1.4035,1.3824,1.3775,0.0,0.0,0.0,1.5817,1.6318,0.0,1.8408,1.8997,0.0,0.0,0.0,2.1629,2.2172,2.2386,0.0,0.0,2.2879,2.2919,2.3014,2.2986,2.2986,2.2986,2.2986,2.3127,2.336,2.3809,2.4033,2.4041,2.4323,2.4565,2.4787,2.4822,2.5006,2.5317,2.5741,2.6094,2.6385,2.6912,2.7157,2.7224,2.737,2.7321,2.7214,2.7262,2.7309,2.7286,2.7214,2.7238,2.7309,2.7309,2.7309,2.7309,2.7309,2.7404,2.7607,2.8066,2.8723,2.9566,3.0713,3.1803,3.2763,3.3471,3.4021,3.4397,3.4397,3.4397,3.4397,3.4397,3.4895,3.5602,3.6449,3.7313,3.8113,3.8708,3.9141,3.9406,3.9406,3.9406,3.9406,3.9406,3.946,3.9478,3.9478,3.9517,3.9532,3.9481,3.9478,3.9445,3.9406,3.9406,3.9406,3.9406,3.9406,3.9406,3.9406,3.9406,3.9301,3.9086,3.8319,3.7715,1.4535,1.4535,1.4535,1.4535,1.4535,1.4589,1.4729,1.4783,1.4842,1.5057,1.4874,0.0,0.0,0.0,0.0,0.0,0.0,0.0,1.9216,1.962,2.0171,0.0,2.147,0.0,2.2461,2.2625,2.2799,0.0,2.2986,2.2986,2.2986,2.2986,2.2986,2.2986,2.2986,2.3219,2.3669,2.4276,2.4637,2.4748,2.5165,2.5515,2.5789,2.6045,2.6363,2.6759,0.0,2.7499,2.7635,2.7963,2.8081,2.8027,2.8027,2.7981,2.7855,2.7648,2.7552,2.7545,2.7348,2.7309,2.7309,2.7309,2.7309,2.7309,2.7404,2.7513,2.7749,2.8511,2.914,2.9897,3.1126,3.2133,3.2979,3.3564,3.405,3.4397,3.4397,3.4397,3.446,3.4681,3.5141,3.5831,3.6822,3.7563,3.8206,3.8708,3.9141,3.9406,3.9406,3.9406,3.9406,3.9406,3.9406,3.9406,3.9406,3.9406,3.9406,3.9406,3.9406,3.9406,3.9406,3.9406,3.9406,3.9406,3.9406,3.9406,3.9406,3.9406,3.9247,3.8943,3.8225,3.7677,1.536,1.536,1.536,1.536,1.536,1.5414,1.5719,1.5773,1.5912,1.6324,0.0,1.6152,1.6597,0.0,1.7054,1.7911,0.0,1.9172,2.0027,2.0359,2.0739,2.1386,2.1775,2.2143,2.2521,2.2831,2.2986,2.2986,2.2986,2.2986,2.2986,2.3042,2.3098,2.3183,2.3211,2.352,2.4136,2.4759,2.5221,2.5496,2.6091,2.6527,2.6826,2.7332,2.7889,2.8424,0.0,0.0,2.9003,2.9028,2.8906,2.8686,2.8686,2.8644,2.8541,2.8138,2.7993,2.7931,2.7596,2.7462,2.7441,2.7351,2.7309,2.7344,2.761,2.7749,2.802,2.9107,2.9757,3.0445,3.1696,3.2635,3.3395,3.3888,3.4325,3.462,3.462,3.462,3.4758,3.5209,3.5621,3.6156,3.7015,3.7787,3.8412,3.8822,3.9182,3.9406,3.9406,3.9406,3.9406,3.9406,3.9406,3.9406,3.9406,3.9406,3.9406,3.9406,3.9406,3.9406,3.9406,3.9406,3.9406,3.9406,3.9406,3.9406,3.9406,3.9406,3.921,3.8833,3.8244,3.7768,1.7153,1.7153,1.7153,1.7153,1.7153,1.7153,1.7206,1.7239,0.0,0.0,0.0,1.6597,1.6677,1.6928,0.0,1.8193,0.0,0.0,0.0,0.0,2.0851,0.0,0.0,0.0,0.0,0.0,0.0,0.0,0.0,2.2986,2.2986,2.3267,2.3641,2.4153,2.4379,2.4787,2.5385,2.6218,2.6736,2.7016,2.7638,2.8057,2.8315,2.8422,2.8644,2.8973,2.9307,0.0,2.9504,2.9724,2.956,2.9187,2.9187,2.8949,2.8597,2.85,2.8469,2.8458,2.84,2.838,2.8255,2.7524,2.7309,2.743,2.8069,2.8524,2.915,3.0583,3.1503,3.2358,3.379,3.4466,3.4889,3.5526,3.5744,3.5809,3.5809,3.5809,3.5896,3.6202,3.6623,3.7153,3.78,3.836,3.8837,3.9249,3.9369,3.9406,3.9406,3.9406,3.9406,3.9406,3.9406,3.9406,3.9406,3.9406,3.9406,3.9406,3.9406,3.9406,3.9406,3.9406,3.9406,3.9406,3.9406,3.9406,3.9406,3.9406,3.9283,3.905,3.8608,3.8183,1.8029,1.8029,1.8029,1.8029,1.8029,1.8029,1.8029,0.0,0.0,0.0,0.0,1.7575,1.7575,0.0,0.0,0.0,0.0,0.0,0.0,0.0,0.0,0.0,0.0,0.0,0.0,0.0,0.0,0.0,0.0,2.2986,2.2986,2.3444,2.3968,2.4582,2.5045,2.5532,2.61,2.6971,2.7574,2.7889,2.8441,2.8893,2.9175,2.9175,2.9317,2.959,2.9748,0.0,2.9827,2.9942,2.986,2.9663,2.9663,2.9528,2.9301,2.9063,2.897,2.8938,2.8665,2.8593,2.8545,2.81,2.8077,2.8303,2.8949,2.9489,3.0173,3.1579,3.2441,3.3166,3.4247,3.4916,3.5328,3.5661,3.5912,3.6109,3.6109,3.6109,3.6175,3.6463,3.6887,3.7358,3.7866,3.8579,3.9253,3.9712,3.9759,3.9805,3.9915,3.9616,3.9406,3.9406,3.9406,3.9406,3.9406,3.9406,3.9406,3.9406,3.9406,3.9406,3.9406,3.9406,3.9406,3.9406,3.9406,3.9406,3.9406,3.9406,3.9301,3.9086,3.8778,3.8501,1.8586,1.8586,1.8586,1.8586,1.8586,1.8586,1.8586,1.8586,0.0,0.0,0.0,1.8482,1.8396,0.0,0.0,0.0,0.0,0.0,0.0,0.0,0.0,0.0,0.0,0.0,0.0,0.0,0.0,0.0,0.0,0.0,2.3296,2.3857,2.4518,2.5248,2.5789,2.6354,2.6961,2.7716,2.8245,2.8584,2.9052,2.9422,2.9695,2.9695,2.98,2.9994,2.9994,0.0,0.0,2.9994,2.9994,2.9994,2.9994,2.9994,2.9953,2.9591,2.9456,2.9404,2.9032,2.8933,2.8983,2.8983,2.8988,2.9116,2.9766,3.0392,3.1207,3.2533,3.3338,3.3959,3.47,3.5327,3.5801,3.5913,3.6213,3.6488,3.6488,3.6488,3.6555,3.6757,3.713,3.7564,3.7952,3.8783,3.9578,4.0134,4.0226,4.0322,4.0569,4.0157,3.9825,3.9825,3.9571,3.9406,3.9406,3.9406,3.9406,3.9406,3.9406,3.9406,3.9406,3.9406,3.9406,3.9406,3.9406,3.9406,3.9406,3.9406,3.9319,3.9159,3.8998,3.8815,1.922,1.922,1.922,1.922,1.922,1.922,1.922,0.0,0.0,0.0,1.8843,1.8757,1.8455,1.8679,0.0,0.0,0.0,0.0,0.0,0.0,0.0,0.0,0.0,0.0,0.0,0.0,0.0,0.0,0.0,0.0,2.4264,2.4795,2.5615,2.6763,2.7098,2.7655,2.8502,2.883,2.9158,2.9475,2.9774,2.9942,2.9968,2.9968,2.9968,2.9994,2.9994,0.0,0.0,2.9994,2.9994,2.9994,2.9994,2.9994,2.9984,2.9942,2.9932,2.9922,2.988,3.0042,3.0239,3.0239,2.9662,2.9168,3.0128,3.1144,3.2271,3.3784,3.4788,3.5556,3.6288,3.6709,3.7083,3.7547,3.7697,3.7743,3.7743,3.7743,3.7743,3.7766,3.7954,3.8267,3.8724,3.9082,3.9613,4.0523,4.065,4.0803,4.1257,4.1254,4.1224,4.1224,4.0127,3.9406,3.9406,3.9406,3.9406,3.9406,3.9406,3.9406,3.9406,3.9406,3.9406,3.9406,3.9406,3.9406,3.9406,3.9406,3.9388,3.9355,3.9337,3.9247,1.9356,1.9305,1.9305,1.9305,1.9305,1.9305,1.9305,0.0,0.0,1.9149,1.9149,1.9097,1.8985,1.9045,1.9324,0.0,0.0,0.0,0.0,0.0,0.0,0.0,0.0,0.0,0.0,0.0,0.0,0.0,0.0,0.0,2.5642,2.5881,2.6445,2.7457,2.795,2.8432,2.8936,2.9264,2.9475,2.9606,2.9879,2.9994,2.9994,2.9994,2.9994,2.9994,2.9994,0.0,0.0,2.9994,2.9994,2.9994,2.9994,2.9994,2.9994,2.9994,2.9994,3.002,3.0193,3.0323,3.0443,3.078,3.0858,3.0921,3.146,3.2404,3.3477,3.4581,3.5331,3.5955,3.6405,3.6805,3.7237,3.7785,3.79,3.79,3.79,3.79,3.79,3.79,3.8207,3.8498,3.8688,3.9513,4.0337,4.0974,4.1211,4.1484,4.1949,4.1643,4.1403,4.1403,4.0905,4.0442,4.0053,4.0008,3.9825,3.9436,3.9406,3.9406,3.9406,3.9406,3.9406,3.9406,3.9406,3.9406,3.9406,3.9406,3.9406,3.9406,3.9406,3.9355,1.9393,1.9305,1.9305,1.9305,1.9305,1.9305,0.0,0.0,1.9305,1.9305,1.9305,1.9305,1.9305,1.935,1.9583,2.0034,0.0,2.0408,0.0,0.0,0.0,0.0,0.0,0.0,0.0,0.0,0.0,0.0,0.0,0.0,0.0,2.7124,2.7555,2.8182,2.8688,2.9095,2.9369,2.9606,2.9722,2.9722,2.9916,2.9994,2.9994,2.9994,2.9994,2.9994,0.0,0.0,0.0,2.9994,2.9994,2.9994,2.9994,2.9994,2.9994,2.9994,2.9994,3.0047,3.0323,3.0495,3.0728,3.1347,3.1975,3.2547,3.2987,3.3646,3.4384,3.5126,3.5704,3.6193,3.6523,3.6851,3.7237,3.7785,3.79,3.79,3.79,3.79,3.79,3.79,3.8194,3.8521,3.8656,3.9689,4.0695,4.131,4.1689,4.209,4.2602,4.2237,4.1953,4.1953,4.1953,4.1609,4.0771,4.0696,4.0487,4.0004,3.9993,3.9993,3.9993,3.9993,3.9885,3.969,3.969,3.9601,3.9406,3.9601,3.969,3.969,3.9885,3.9993,1.9393,1.9305,1.9305,1.9305,1.9305,1.9305,0.0,0.0,1.9305,1.9305,1.9305,1.9305,1.9305,1.9532,1.9783,2.0053,2.0326,0.0,0.0,0.0,0.0,0.0,0.0,0.0,0.0,0.0,0.0,0.0,0.0,0.0,0.0,2.8591,2.9079,2.9079,2.9422,2.9722,2.9994,2.9994,2.9994,2.9994,2.9994,2.9994,2.9994,2.9994,2.9994,0.0,0.0,0.0,0.0,2.9994,2.9994,2.9994,2.9994,2.9994,2.9994,2.9994,2.9994,3.0047,3.0323,3.0754,3.1322,3.2142,3.2924,3.3744,3.4531,3.4775,3.4896,3.544,3.5991,3.6499,3.6968,3.7108,3.7237,3.7785,3.79,3.79,3.79,3.79,3.79,3.79,3.8044,3.8359,3.8819,3.9521,4.0386,4.1521,4.2096,4.2622,4.321,4.3275,4.3275,4.3275,4.3275,4.2771,4.1508,4.1388,4.1388,4.1373,4.1373,4.1373,4.1373,4.1373,4.1074,4.0397,4.0382,4.0068,3.9406,4.0068,4.0382,4.0412,4.1074,4.1373,2.0018,1.9777,1.9635,1.9635,1.9466,1.9305,1.9305,0.0,1.9305,1.9305,1.9305,1.9305,1.9305,1.9532,1.9783,2.0053,2.0326,0.0,0.0,0.0,0.0,0.0,0.0,0.0,0.0,0.0,0.0,0.0,0.0,0.0,0.0,2.9185,2.9448,2.9448,2.9722,2.9905,2.9994,2.9994,2.9994,2.9994,2.9994,2.9994,2.9994,2.9994,0.0,0.0,0.0,0.0,0.0,2.9994,2.9994,2.9994,2.9994,2.9994,2.9994,2.9994,3.0115,3.0349,3.0791,3.1296,3.1899,3.291,3.3633,3.4286,3.5102,3.5344,3.5464,3.5991,3.6263,3.6499,3.6968,3.7108,3.7237,3.7785,3.79,3.79,3.79,3.79,3.79,3.79,3.8194,3.8553,3.8841,3.9785,4.0752,4.1583,4.2219,4.2784,4.323,4.329,4.329,4.329,4.329,4.2965,4.2137,4.2096,4.1901,4.1433,4.1403,4.1403,4.1403,4.1403,4.1298,4.1089,4.1089,4.0984,4.0775,4.0984,4.1089,4.1089,4.1298,4.1403,0.0,2.0003,1.9789,1.9789,1.9547,0.0,0.0,0.0,1.9305,1.9305,1.9305,1.9324,1.9428,1.968,1.9931,2.0223,2.048,0.0,0.0,0.0,0.0,0.0,0.0,0.0,0.0,0.0,0.0,0.0,0.0,0.0,0.0,2.958,2.9748,2.9748,2.9905,2.9994,2.9994,2.9994,2.9994,2.9994,2.9994,2.9994,2.9994,2.9994,0.0,0.0,0.0,0.0,0.0,2.9994,2.9994,2.9994,2.9994,2.9994,2.9994,2.9994,3.0167,3.0469,3.1023,3.1669,3.2496,3.3547,3.447,3.5259,3.5752,3.5895,3.5967,3.631,3.6405,3.6499,3.6968,3.7108,3.7237,3.7785,3.79,3.79,3.79,3.79,3.79,3.79,3.8194,3.8553,3.8841,3.9763,4.073,4.1563,4.2199,4.2749,4.323,4.329,4.329,4.329,4.329,4.3145,4.2761,4.275,4.2551,4.2147,4.2117,4.2117,4.2117,4.2117,4.2017,4.1777,4.1777,4.1643,4.1403,4.1643,4.1897,4.2117,4.2117,4.2117,0.0,2.004,1.9825,1.9825,1.9561,1.9305,0.0,0.0,0.0,1.9305,1.9324,1.9402,1.9654,1.9931,2.0215,2.0462,2.0719,0.0,0.0,0.0,0.0,0.0,0.0,0.0,0.0,0.0,0.0,0.0,0.0,0.0,0.0,2.9853,2.9994,2.9994,2.9994,2.9994,2.9994,2.9994,2.9994,2.9994,2.9994,2.9994,2.9994,2.9994,0.0,0.0,0.0,0.0,0.0,2.9994,2.9994,2.9994,2.9994,3.002,3.002,3.002,3.0219,3.0573,3.109,3.199,3.3062,3.4165,3.5379,3.6405,3.6405,3.6405,3.6405,3.6405,3.6405,3.6499,3.6968,3.7108,3.7237,3.7785,3.79,3.79,3.79,3.79,3.79,3.79,3.8044,3.8359,3.8819,3.9521,4.0386,4.1514,4.209,4.2602,4.321,4.329,4.329,4.329,4.329,4.329,4.329,4.329,4.329,4.329,4.329,4.329,4.329,4.329,4.3025,4.247,4.247,4.2152,4.1538,4.2152,4.2765,4.329,4.329,4.329,2.0692,0.0,2.0101,2.0101,1.9696,1.9305,0.0,0.0,0.0,0.0,0.0,1.9628,1.968,2.0101,2.0437,2.0496,2.0719,0.0,0.0,0.0,0.0,0.0,0.0,0.0,0.0,0.0,0.0,0.0,0.0,0.0,0.0,2.9968,2.9994,2.9994,2.9994,2.9994,2.9994,2.9994,2.9994,2.9994,2.9994,2.9994,2.9994,2.9994,0.0,0.0,0.0,0.0,2.9994,2.9994,2.9994,2.9994,2.9994,3.0125,3.0323,3.0323,3.0728,3.1388,3.1913,3.2823,3.393,3.5211,3.5991,3.6405,3.6405,3.6405,3.6405,3.6405,3.6405,3.6499,3.6968,3.7108,3.7237,3.7785,3.79,3.79,3.79,3.79,3.79,3.79,3.8044,3.8359,3.8819,3.9521,4.0322,4.1318,4.2001,4.2561,4.3016,4.321,4.329,4.329,4.329,4.329,4.329,4.329,4.329,4.329,4.329,4.329,4.329,4.329,4.3235,4.3085,4.3085,4.301,4.2846,4.301,4.316,4.329,4.329,4.329,2.078,2.0459,2.0174,2.0055,1.9671,1.9305,1.9305,0.0,0.0,0.0,0.0,0.0,1.9853,0.0,0.0,0.0,0.0,0.0,0.0,0.0,0.0,0.0,0.0,0.0,0.0,0.0,0.0,0.0,0.0,0.0,0.0,3.0315,3.0408,3.0652,3.0626,3.0455,3.0005,2.9994,2.9994,2.9994,2.9994,2.9994,2.9994,2.9994,2.9994,0.0,0.0,0.0,2.9994,2.9994,2.9994,3.002,3.0151,3.0271,3.0417,3.0677,3.1193,3.1874,3.2535,3.3646,3.4896,3.5871,3.6275,3.6405,3.6405,3.6405,3.6405,3.6405,3.6476,3.6628,3.6992,3.7178,3.7377,3.7808,3.79,3.79,3.79,3.79,3.79,3.79,3.8001,3.8203,3.8688,3.9269,4.0039,4.1071,4.1785,4.2409,4.2921,4.319,4.329,4.329,4.329,4.329,4.329,4.329,4.329,4.329,4.329,4.329,4.329,4.329,4.329,4.329,4.329,4.329,4.329,4.329,4.329,4.329,4.329,4.329,2.0707,2.0386,2.0071,1.9855,1.9547,1.9305,1.9305,0.0,0.0,0.0,0.0,0.0,0.0,0.0,0.0,0.0,0.0,0.0,0.0,0.0,0.0,0.0,0.0,0.0,0.0,0.0,0.0,0.0,0.0,0.0,0.0,3.0818,3.0994,3.1388,3.1408,3.1025,3.0212,3.0129,3.0067,2.9994,2.9994,2.9994,2.9994,2.9994,2.9994,0.0,0.0,0.0,2.9994,2.9994,2.9994,3.002,3.0297,3.0443,3.0599,3.1116,3.1695,3.237,3.3262,3.4483,3.574,3.6239,3.6405,3.6405,3.6405,3.6468,3.6531,3.6531,3.6597,3.6756,3.7038,3.7307,3.7564,3.7831,3.79,3.79,3.79,3.79,3.79,3.79,3.79,3.8037,3.8466,3.8926,3.9609,4.0681,4.1471,4.219,4.2835,4.315,4.329,4.329,4.329,4.329,4.329,4.329,4.329,4.329,4.329,4.329,4.329,4.329,4.329,4.329,4.329,4.329,4.329,4.329,4.329,4.329,4.329,4.329,2.0371,2.0077,1.9847,1.9803,1.9547,1.9305,0.0,0.0,0.0,0.0,0.0,0.0,0.0,0.0,0.0,0.0,0.0,0.0,0.0,0.0,0.0,0.0,0.0,0.0,0.0,0.0,0.0,0.0,0.0,0.0,0.0,3.1295,3.1336,3.1408,3.1408,3.1336,3.1191,3.0797,3.0387,2.9994,2.9994,2.9994,2.9994,2.9994,2.9994,0.0,0.0,2.9994,2.9994,2.9994,2.9994,3.002,3.0297,3.0677,3.1142,3.1669,3.2507,3.3534,3.4799,3.5536,3.5992,3.6299,3.6405,3.6405,3.6405,3.6708,3.7085,3.7085,3.69,3.6756,3.7038,3.7307,3.7564,3.7831,3.79,3.79,3.79,3.79,3.79,3.79,3.79,3.7992,3.8226,3.8652,3.922,4.0025,4.1057,4.1931,4.2418,4.2965,4.329,4.329,4.329,4.329,4.329,4.329,4.329,4.329,4.329,4.329,4.329,4.329,4.329,4.329,4.329,4.329,4.329,4.329,4.329,4.329,4.329,4.329,2.0298,2.0003,1.9752,1.9569,1.9415,1.935,0.0,0.0,0.0,0.0,0.0,0.0,0.0,0.0,0.0,0.0,0.0,0.0,0.0,0.0,0.0,0.0,0.0,0.0,0.0,0.0,0.0,0.0,0.0,0.0,0.0,0.0,3.1847,3.2106,3.2106,3.1992,3.1743,3.1498,3.1195,3.0766,3.0766,3.0605,3.0367,3.0367,3.0232,2.9994,0.0,2.9994,2.9994,2.9994,2.9994,3.0047,3.0453,3.0868,3.1347,3.2633,3.3757,3.4775,3.5548,3.6003,3.6278,3.6709,3.6833,3.6884,3.7185,3.7425,3.7626,3.7626,3.7644,3.7683,3.7946,3.8221,3.8495,3.8744,3.8828,3.8828,3.8828,3.8828,3.8828,3.8828,3.8828,3.8932,3.9279,3.9637,4.0219,4.1199,4.2129,4.2937,4.3506,4.4044,4.4371,4.4371,4.4371,4.4371,4.4371,4.4371,4.4072,4.3349,4.329,4.329,4.329,4.329,4.329,4.329,4.329,4.329,4.329,4.329,4.329,4.329,4.329,4.329,2.0188,1.9894,1.9613,1.9364,0.0,0.0,0.0,0.0,0.0,0.0,0.0,0.0,0.0,0.0,0.0,0.0,0.0,0.0,0.0,0.0,0.0,0.0,0.0,0.0,0.0,0.0,0.0,0.0,0.0,0.0,0.0,0.0,3.2336,3.2688,3.2698,3.2533,3.2181,3.2171,3.1902,3.1408,3.1408,3.1212,3.0853,3.0853,3.0683,3.0325,3.0325,3.0325,3.0325,3.0325,3.0325,3.0368,3.0921,3.1512,3.2241,3.3943,3.5147,3.6013,3.634,3.6592,3.6833,3.7236,3.7399,3.745,3.7877,3.8103,3.8203,3.8203,3.8502,3.8788,3.8802,3.8994,3.9273,3.954,3.9612,3.9612,3.9612,3.9612,3.9612,3.9612,3.9612,3.9719,4.0158,4.0428,4.0976,4.21,4.2915,4.3683,4.4364,4.4893,4.5263,4.5289,4.5289,4.5289,4.5289,4.5289,4.487,4.3833,4.3624,4.3454,4.3305,4.329,4.329,4.329,4.329,4.329,4.329,4.329,4.329,4.329,4.329,4.329,1.9906,1.9583,1.9327,1.9305,0.0,0.0,0.0,0.0,0.0,0.0,0.0,0.0,0.0,0.0,0.0,0.0,0.0,0.0,0.0,0.0,0.0,0.0,0.0,0.0,0.0,0.0,0.0,0.0,0.0,0.0,0.0,0.0,0.0,3.2698,3.2698,3.2688,3.2657,3.2657,3.224,3.1408,3.1408,3.1388,3.1357,3.1357,3.1336,3.1305,3.1305,3.1305,3.1305,3.1305,3.1305,3.1359,3.1898,3.3084,3.4688,3.5807,3.6606,3.7158,3.7667,3.7865,3.7889,3.7939,3.7952,3.7952,3.8002,3.8379,3.8831,3.8831,3.9398,3.9791,3.9007,3.8994,3.9273,3.954,3.9612,3.9612,3.9612,3.9612,3.9612,3.9612,3.9612,3.9695,3.9981,4.0182,4.0606,4.1456,4.2362,4.3194,4.3871,4.457,4.5075,4.5284,4.5289,4.5289,4.5289,4.5289,4.5259,4.5155,4.4566,4.3953,4.3319,4.329,4.329,4.329,4.329,4.329,4.329,4.329,4.329,4.329,4.329,4.329,1.9877,1.9554,1.9305,1.9305,0.0,0.0,0.0,0.0,0.0,0.0,0.0,0.0,0.0,0.0,0.0,0.0,0.0,0.0,0.0,0.0,0.0,0.0,0.0,0.0,0.0,0.0,0.0,0.0,0.0,0.0,0.0,0.0,0.0,3.2698,3.2698,3.2698,3.2698,3.2698,3.2533,3.2219,3.2219,3.2075,3.1757,3.1757,3.164,3.1408,3.1408,3.1408,3.1408,3.1408,3.1408,3.148,3.2399,3.3793,3.5399,3.6118,3.6955,3.7742,3.7928,3.8002,3.8065,3.8429,3.8567,3.863,3.8956,3.9207,3.9409,3.9409,3.9752,4.0058,3.989,4.005,4.0323,4.0597,4.0671,4.0671,4.0671,4.0671,4.0671,4.0671,4.0671,4.0818,4.1232,4.1512,4.2041,4.3129,4.3992,4.4784,4.5493,4.6074,4.6461,4.6546,4.6546,4.6546,4.6546,4.6546,4.6367,4.5942,4.5304,4.4811,4.4556,4.4541,4.4541,4.4541,4.4541,4.4541,4.4541,4.4541,4.4541,4.4541,4.4541,4.4541,1.9723,1.9474,1.9324,0.0,0.0,0.0,0.0,0.0,0.0,0.0,0.0,0.0,0.0,0.0,0.0,0.0,0.0,0.0,0.0,0.0,0.0,0.0,0.0,0.0,0.0,0.0,0.0,0.0,0.0,0.0,0.0,0.0,0.0,0.0,3.2698,3.2698,3.2698,3.2698,3.2698,3.2698,3.2698,3.2543,3.2233,3.2233,3.2067,3.1805,3.1805,3.1805,3.1805,3.1805,3.1916,3.2183,3.3166,3.4519,3.6021,3.6671,3.7544,3.8404,3.8517,3.8542,3.8605,3.9032,3.9158,3.922,3.9584,3.9697,3.9697,3.9697,3.989,4.0147,4.0428,4.0694,4.0972,4.1236,4.1286,4.1286,4.1286,4.1286,4.1286,4.1286,4.1286,4.1486,4.2005,4.2239,4.2801,4.4068,4.4839,4.5535,4.6358,4.688,4.7207,4.7287,4.7309,4.7309,4.7309,4.7309,4.7115,4.6644,4.6202,4.5738,4.5304,4.5289,4.5289,4.5289,4.5289,4.5289,4.5289,4.5289,4.5289,4.5289,4.5289,4.5289,1.9393,1.9305,0.0,0.0,0.0,0.0,0.0,0.0,0.0,0.0,0.0,0.0,0.0,0.0,0.0,0.0,0.0,0.0,0.0,0.0,0.0,0.0,0.0,0.0,0.0,0.0,0.0,0.0,0.0,0.0,0.0,0.0,0.0,0.0,3.2698,3.2698,3.2698,3.2698,3.2698,3.2698,3.2698,3.2698,3.2698,3.2698,3.2698,3.2698,3.2698,3.2698,3.2698,3.2698,3.3069,3.3653,3.4267,3.5422,3.6808,3.7681,3.8566,3.9348,3.962,3.9697,3.9697,3.9697,3.9697,3.9697,3.9697,3.9697,3.9697,3.9697,3.989,4.0147,4.0428,4.0694,4.0972,4.1236,4.1286,4.1286,4.1286,4.1286,4.1286,4.1286,4.1286,4.1486,4.2005,4.2103,4.2544,4.3808,4.4406,4.5064,4.6076,4.6609,4.7019,4.7287,4.7309,4.7309,4.7309,4.7309,4.7309,4.7309,4.7309,4.6696,4.5364,4.5319,4.5319,4.5319,4.5319,4.5319,4.5319,4.5319,4.5319,4.5319,4.5319,4.5319,1.9892,1.9853,0.0,0.0,0.0,0.0,0.0,0.0,0.0,0.0,0.0,0.0,0.0,0.0,0.0,0.0,0.0,0.0,0.0,0.0,0.0,0.0,0.0,0.0,0.0,0.0,0.0,0.0,0.0,0.0,0.0,0.0,0.0,0.0,3.2698,3.2698,3.2698,3.2698,3.2698,3.2698,3.2698,3.2698,3.2698,3.2698,3.2698,3.2698,3.2698,3.2698,3.2698,3.2698,3.3069,3.3681,3.448,3.5674,3.7096,3.7947,3.8828,3.9581,3.9671,3.9697,3.9697,3.9697,3.9697,3.9697,3.9697,3.9697,3.9697,3.9697,3.989,4.0134,4.0211,4.0567,4.0972,4.1236,4.1286,4.1286,4.1286,4.1286,4.1286,4.1286,4.1286,4.1486,4.2005,4.2411,4.3018,4.4129,4.4963,4.5837,4.6844,4.7099,4.7207,4.7287,4.7309,4.7309,4.7309,4.7309,4.7309,4.7309,4.7309,4.713,4.6726,4.6711,4.6711,4.6711,4.6711,4.6711,4.6711,4.6711,4.6711,4.6711,4.6711,4.6711,2.0088,0.0,0.0,0.0,0.0,0.0,0.0,0.0,0.0,0.0,0.0,0.0,0.0,0.0,0.0,0.0,0.0,0.0,0.0,0.0,0.0,0.0,0.0,0.0,0.0,0.0,0.0,0.0,0.0,0.0,0.0,0.0,0.0,0.0,3.2698,3.2698,3.2698,3.2698,3.2698,3.2698,3.2698,3.2698,3.2698,3.2698,3.2698,3.2698,3.2698,3.2784,3.2908,3.2908,3.3324,3.4037,3.4786,3.5975,3.7352,3.8133,3.8945,3.9697,3.9697,3.9697,3.9697,3.9697,3.9697,3.9697,3.9697,3.9697,3.9697,3.9697,3.9813,3.9981,4.0083,4.0326,4.0681,4.1047,4.1211,4.1286,4.1286,4.1286,4.1286,4.1286,4.1286,4.1436,4.1857,4.2313,4.297,4.4054,4.5316,4.6388,4.7186,4.7309,4.7309,4.7309,4.7309,4.7309,4.7309,4.7309,4.7309,4.7309,4.7309,4.7309,4.7309,4.7309,4.7309,4.7309,4.7309,4.7309,4.7309,4.7309,4.7309,4.7309,4.7309,4.7309,2.013,0.0,0.0,0.0,0.0,0.0,0.0,0.0,0.0,0.0,0.0,0.0,0.0,0.0,0.0,0.0,0.0,0.0,0.0,0.0,0.0,0.0,0.0,0.0,0.0,0.0,0.0,0.0,0.0,0.0,0.0,0.0,0.0,3.2698,3.2698,3.2698,3.2698,3.2698,3.2698,0.0,3.2698,3.2698,3.2698,3.2698,3.2737,3.2755,3.2755,3.2955,3.3278,3.3278,3.3805,3.4624,3.5268,3.634,3.7631,3.8238,3.8998,3.9697,3.9697,3.9697,3.9697,3.9697,3.9697,3.9697,3.9697,3.9697,3.9697,3.9697,3.9697,3.9762,4.0006,4.007,4.0224,4.0706,4.1047,4.1261,4.1286,4.1286,4.1286,4.1286,4.1286,4.1386,4.1647,4.1931,4.2579,4.3932,4.552,4.6749,4.7244,4.7309,4.7309,4.7309,4.7309,4.7309,4.7309,4.7309,4.7309,4.7309,4.7309,4.7309,4.7309,4.7309,4.7309,4.7309,4.7309,4.7309,4.7309,4.7309,4.7309,4.7309,4.7309,4.7309,0.0,0.0,0.0,0.0,0.0,0.0,0.0,0.0,0.0,0.0,0.0,0.0,0.0,0.0,0.0,0.0,0.0,0.0,0.0,0.0,0.0,0.0,0.0,0.0,0.0,0.0,0.0,0.0,0.0,0.0,0.0,0.0,0.0,3.2698,3.2698,3.2698,3.2698,3.2698,3.2698,0.0,3.2698,3.2698,3.2698,3.2698,3.2841,3.3108,3.3324,3.3607,3.39,3.39,3.4429,3.5295,3.6091,3.7012,3.8,3.8815,3.9374,3.9697,3.9697,3.9697,3.9697,3.9697,3.9697,3.9697,3.9697,3.9697,3.9697,3.9697,3.9697,3.9723,3.9762,3.9929,4.0121,4.0249,4.0643,4.1047,4.1261,4.1286,4.1286,4.1286,4.1286,4.1386,4.1647,4.2105,4.3029,4.4894,4.5806,4.6535,4.7222,4.7309,4.7309,4.7309,4.7309,4.7309,4.7309,4.7309,4.7309,4.7309,4.7309,4.7309,4.7309,4.7309,4.7309,4.7309,4.7309,4.7309,4.7309,4.7309,4.7309,4.7309,4.7309,4.7309,0.0,0.0,0.0,0.0,0.0,0.0,0.0,0.0,0.0,0.0,0.0,0.0,0.0,0.0,0.0,0.0,0.0,0.0,0.0,0.0,0.0,0.0,0.0,0.0,0.0,0.0,0.0,0.0,0.0,0.0,0.0,3.2698,3.2698,3.2698,3.2698,3.2698,3.2698,3.2698,3.2698,3.2698,3.2698,3.2698,3.2708,3.288,3.3097,3.3409,3.384,3.4278,3.4736,3.5002,3.5543,3.6282,3.7039,3.7773,3.8461,3.9076,3.9478,3.9697,3.9697,3.9697,3.9697,3.9697,3.9697,3.9697,3.9697,3.9697,3.9697,3.9697,3.9697,3.9697,3.9697,3.9788,3.9929,4.0083,4.0504,4.0933,4.1072,4.1211,4.1286,4.1286,4.1286,4.1336,4.1486,4.2264,4.3399,4.5049,4.5829,4.6469,4.7222,4.7309,4.7309,4.7309,4.7309,4.7309,4.7309,4.7309,4.7309,4.7309,4.7309,4.7309,4.7309,4.7309,4.7309,4.7309,4.7309,4.7309,4.7309,4.7309,4.7309,4.7309,4.7309,4.7309,0.0,0.0,0.0,0.0,0.0,0.0,0.0,0.0,0.0,0.0,0.0,0.0,0.0,0.0,0.0,0.0,0.0,0.0,0.0,0.0,0.0,0.0,0.0,0.0,0.0,0.0,0.0,0.0,0.0,0.0,3.2698,3.2698,3.2698,3.2698,3.2698,3.2698,3.2698,3.2698,3.2698,3.2698,3.2755,3.2794,3.2794,3.3221,3.3523,3.371,3.4379,3.5008,3.5653,3.6161,3.6731,3.7373,3.7933,3.8435,3.8919,3.9258,3.9504,3.9697,3.9697,3.9697,3.9697,3.9697,3.9697,3.9697,3.9697,3.9697,3.9697,3.9697,3.9697,3.9697,3.9697,3.9697,3.9762,3.9981,4.0427,4.0833,4.0883,4.1097,4.1286,4.1286,4.1286,4.1336,4.1411,4.2398,4.3576,4.4851,4.5664,4.6388,4.7142,4.7287,4.7309,4.7309,4.7309,4.7309,4.7309,4.7309,4.7309,4.7309,4.7309,4.7309,4.7309,4.7309,4.7309,4.7309,4.7309,4.7309,4.7309,4.7309,4.7309,4.7309,4.7309,4.7309,0.0,0.0,0.0,0.0,0.0,0.0,0.0,0.0,0.0,0.0,0.0,0.0,0.0,0.0,0.0,0.0,0.0,0.0,0.0,0.0,0.0,0.0,0.0,0.0,0.0,0.0,0.0,0.0,0.0,0.0,3.2698,3.2698,3.2698,3.2698,3.2698,3.2698,3.2698,3.2698,3.2698,3.2698,3.2994,3.3136,3.3164,3.3963,3.4227,3.4086,3.4919,3.5751,3.6565,3.685,3.748,3.825,3.8566,3.8919,3.927,3.953,3.9671,3.9697,3.9697,3.9697,3.9697,3.9697,3.9697,3.9697,3.9697,3.9697,3.9697,3.9697,3.9697,3.9697,3.9697,3.9697,3.9723,3.9736,4.0172,4.0618,4.0833,4.1097,4.1286,4.1286,4.1286,4.1461,4.1906,4.2533,4.3341,4.4578,4.5384,4.6128,4.6851,4.7164,4.7309,4.7309,4.7309,4.7309,4.7309,4.7309,4.7309,4.7309,4.7309,4.7309,4.7309,4.7309,4.7309,4.7309,4.7309,4.7309,4.7309,4.7309,4.7309,4.7309,4.7309,4.7309,0.0,0.0,0.0,0.0,0.0,0.0,0.0,0.0,0.0,0.0,0.0,0.0,0.0,0.0,0.0,0.0,0.0,0.0,0.0,0.0,0.0,0.0,0.0,0.0,0.0,0.0,0.0,0.0,0.0,3.2698,3.2698,3.2698,3.2698,3.2698,3.2698,3.2698,3.2698,3.2698,3.2698,3.2698,3.3051,3.3193,3.3221,3.4114,3.4534,3.4646,3.5692,3.6538,3.7262,3.7826,3.8382,3.8919,3.9192,3.94,3.953,3.9671,3.9697,3.9697,3.9697,3.9697,3.9697,3.9697,3.9697,3.9697,3.9697,3.9697,3.9697,3.9697,3.9697,3.9697,3.9697,3.9697,3.9697,3.9697,4.0096,4.0529,4.0643,4.101,4.1286,4.1286,4.1286,4.1486,4.2005,4.2533,4.3365,4.4727,4.5415,4.6128,4.6997,4.7229,4.7309,4.7309,4.7309,4.7309,4.7309,4.7309,4.7309,4.7309,4.7309,4.7309,4.7309,4.7309,4.7309,4.7309,4.7309,4.7309,4.7309,4.7309,4.7309,4.7309,4.7309,4.7309,0.0,0.0,0.0,0.0,0.0,0.0,0.0,0.0,0.0,0.0,0.0,0.0,0.0,0.0,0.0,0.0,0.0,0.0,0.0,0.0,0.0,0.0,0.0,0.0,0.0,0.0,0.0,0.0,0.0,3.2698,3.2698,3.2698,3.2698,3.2698,3.2698,3.2698,3.2698,3.2698,3.2698,3.2698,3.3097,3.3363,3.3477,3.4401,3.5041,3.5467,3.632,3.7116,3.7862,3.8526,3.9024,3.9426,3.9607,3.9697,3.9697,3.9697,3.9697,3.9697,3.9697,3.9697,3.9697,3.9697,3.9697,3.9697,3.9697,3.9697,3.9697,3.9697,3.9697,3.9697,3.9697,3.9697,3.9697,3.9697,4.007,4.0453,4.0656,4.101,4.1286,4.1286,4.1286,4.1486,4.2005,4.2533,4.3355,4.4727,4.5415,4.6128,4.7012,4.7244,4.7309,4.7309,4.7309,4.7309,4.7309,4.7309,4.7309,4.7309,4.7309,4.7309,4.7309,4.7309,4.7309,4.7309,4.7309,4.7309,4.7309,4.7309,4.7309,4.7309,4.7309,4.7309,0.0,0.0,0.0,0.0,0.0,0.0,0.0,0.0,0.0,0.0,0.0,0.0,0.0,0.0,0.0,0.0,0.0,0.0,0.0,0.0,0.0,0.0,0.0,0.0,0.0,0.0,0.0,0.0,0.0,3.2698,3.2698,3.2698,3.2698,3.2698,3.2698,3.2698,3.2698,3.2698,3.2698,3.2708,3.3296,3.3749,3.4086,3.5212,3.6064,3.6619,3.6673,3.7319,3.8382,3.8684,3.9166,3.9685,3.9685,3.9697,3.9697,3.9697,3.9697,3.9697,3.9697,3.9697,3.9697,3.9697,3.9697,3.9697,3.9697,3.9697,3.9697,3.9697,3.9697,3.9697,3.9697,3.9697,3.9697,3.9697,3.9916,4.0338,4.1085,4.1286,4.1286,4.1286,4.1286,4.1486,4.2005,4.2533,4.3249,4.4294,4.5201,4.5994,4.6572,4.7012,4.7309,4.7309,4.7309,4.7309,4.7309,4.7309,4.7309,4.7309,4.7309,4.7309,4.7309,4.7309,4.7309,4.7309,4.7309,4.7309,4.7309,4.7309,4.7309,4.7309,4.7309,4.7309,0.0,0.0,0.0,0.0,0.0,0.0,0.0,0.0,0.0,0.0,0.0,0.0,0.0,0.0,0.0,0.0,0.0,0.0,0.0,0.0,0.0,0.0,0.0,0.0,0.0,0.0,0.0,0.0,0.0,0.0,3.2698,3.2698,3.2698,3.2698,3.2698,3.2698,3.2698,3.2698,3.2823,3.3022,3.3409,3.3861,3.4384,3.535,3.6216,3.697,3.7373,3.7959,3.8684,3.8998,3.9348,3.9697,3.9697,3.9697,3.9697,3.9697,3.9697,3.9697,3.9697,3.9697,3.9697,3.9697,3.9697,3.9697,3.9697,3.9697,3.9697,3.9697,3.9697,3.9697,3.9697,3.9697,3.9736,3.9904,4.016,4.0491,4.0946,4.1186,4.1286,4.1286,4.1286,4.1486,4.2005,4.2411,4.3091,4.4406,4.517,4.5896,4.669,4.7099,4.7309,4.7309,4.7309,4.7309,4.7309,4.7309,4.7309,4.7309,4.7309,4.7309,4.7309,4.7309,4.7309,4.7309,4.7309,4.7309,4.7309,4.7309,4.7309,4.7309,4.7309,4.7309,0.0,0.0,0.0,0.0,0.0,0.0,0.0,0.0,0.0,0.0,0.0,0.0,0.0,0.0,0.0,0.0,0.0,0.0,0.0,0.0,0.0,0.0,0.0,0.0,0.0,0.0,0.0,0.0,0.0,0.0,3.2698,3.2698,3.2698,3.2698,3.2698,3.2698,3.2698,3.2812,3.2994,3.3193,3.3692,3.4216,3.4847,3.579,3.6715,3.756,3.8171,3.8645,3.8998,3.9206,3.9452,3.9697,3.9697,3.9697,3.9697,3.9697,3.9697,3.9697,3.9697,3.9697,3.9697,3.9697,3.9697,3.9697,3.9697,3.9697,3.9697,3.9697,3.9697,3.9697,3.9697,3.9697,3.9736,3.9904,4.0249,4.0555,4.0719,4.106,4.1286,4.1286,4.1286,4.1486,4.2005,4.2313,4.2984,4.4383,4.5101,4.5806,4.669,4.7099,4.7309,4.7309,4.7309,4.7309,4.7309,4.7309,4.7309,4.7309,4.7309,4.7309,4.7309,4.7309,4.7309,4.7309,4.7309,4.7309,4.7309,4.7309,4.7309,4.7309,4.7309,4.7309,0.0,0.0,0.0,0.0,0.0,0.0,2.9994,0.0,0.0,0.0,0.0,0.0,0.0,0.0,0.0,0.0,0.0,0.0,0.0,0.0,0.0,0.0,0.0,0.0,0.0,0.0,0.0,0.0,0.0,3.2698,3.2698,3.2698,3.2698,3.2698,3.2698,3.2698,3.2698,3.3051,3.3221,3.3278,3.4142,3.4875,3.5488,3.6607,3.7587,3.8435,3.905,3.9284,3.931,3.931,3.9478,3.9697,3.9697,3.9697,3.9697,3.9697,3.9697,3.9697,3.9697,3.9697,3.9697,3.9697,3.9697,3.9697,3.9697,3.9697,3.9697,3.9697,3.9697,3.9697,3.9697,3.9697,3.9697,3.9697,4.0096,4.0478,4.0504,4.0909,4.1286,4.1286,4.1286,4.1486,4.2005,4.2313,4.2935,4.4223,4.5023,4.5776,4.6506,4.7012,4.7309,4.7339,4.7339,4.7339,4.7369,4.7369,4.7369,4.7369,4.7369,4.7369,4.7369,4.7369,4.7369,4.7369,4.7369,4.7369,4.7369,4.7324,4.7309,4.7309,4.7309,4.7309,2.8593,0.0,0.0,0.0,0.0,0.0,2.9994,2.9994,2.9994,0.0,0.0,0.0,0.0,0.0,0.0,0.0,0.0,0.0,0.0,0.0,0.0,0.0,0.0,0.0,0.0,0.0,0.0,0.0,3.2512,3.2698,3.2698,3.2698,3.2698,3.2698,3.2937,3.3051,3.3051,3.359,3.4047,3.4424,3.5129,3.5872,3.6661,3.7415,3.8092,3.871,3.9128,3.94,3.9581,3.9581,3.9633,3.9697,3.9697,3.9697,3.9697,3.9697,3.9697,3.9697,3.9697,3.9697,3.9697,3.9697,3.9697,3.9697,3.9697,3.9697,3.9697,3.9697,3.9697,3.9697,3.9697,3.9697,3.9697,3.9697,3.9968,4.0262,4.0453,4.0783,4.1072,4.1261,4.1286,4.1486,4.2005,4.2313,4.2935,4.4223,4.5023,4.5776,4.6506,4.7012,4.7489,4.7967,4.8012,4.8207,4.8708,4.8753,4.8753,4.8753,4.8753,4.8753,4.8753,4.8753,4.8753,4.8753,4.8753,4.8753,4.8738,4.7773,4.7309,4.7309,4.7309,4.7309,0.0,0.0,0.0,0.0,0.0,0.0,2.9994,2.9994,2.9994,0.0,0.0,0.0,0.0,0.0,0.0,0.0,0.0,0.0,0.0,0.0,0.0,0.0,0.0,0.0,0.0,3.1129,0.0,3.1974,3.2439,3.2698,3.2698,3.2698,3.2698,3.2698,3.3022,3.325,3.3363,3.4065,3.4714,3.5273,3.5998,3.6742,3.7495,3.8065,3.8566,3.9024,3.9322,3.9555,3.9697,3.9697,3.9697,3.9697,3.9697,3.9697,3.9697,3.9697,3.9697,3.9697,3.9697,3.9697,3.9697,3.9697,3.9697,3.9697,3.9697,3.9697,3.9697,3.9697,3.9697,3.9697,3.9697,3.9697,3.9697,3.9697,3.9916,4.0173,4.0453,4.0719,4.0997,4.1236,4.1286,4.1486,4.2005,4.2313,4.3065,4.4687,4.5501,4.6299,4.7428,4.7896,4.8267,4.8678,4.8723,4.8873,4.9284,4.9292,4.9292,4.9292,4.9292,4.9292,4.9292,4.9292,4.9292,4.9292,4.9292,4.9292,4.9292,4.8528,4.8117,4.8117,4.8117,4.8117,0.0,0.0,0.0,0.0,0.0,0.0,2.9994,2.9994,2.9994,2.9994,0.0,0.0,0.0,0.0,0.0,0.0,0.0,0.0,0.0,0.0,0.0,0.0,0.0,0.0,3.0563,3.1056,3.1485,3.1902,3.2419,3.2698,3.2698,3.2698,3.2698,3.2698,3.304,3.3381,3.3653,3.4602,3.5356,3.597,3.685,3.7587,3.8171,3.8684,3.905,3.9374,3.9594,3.9697,3.9697,3.9697,3.9697,3.9697,3.9697,3.9697,3.9697,3.9697,3.9697,3.9697,3.9697,3.9697,3.9697,3.9697,3.9697,3.9697,3.9697,3.9697,3.9697,3.9697,3.9697,3.9697,3.9697,3.9697,3.9697,3.9697,3.989,4.0134,4.0402,4.072,4.1037,4.1302,4.139,4.1578,4.2111,4.246,4.34,4.5453,4.6223,4.7137,4.8651,4.9119,4.9322,4.9381,4.9396,4.9426,4.9501,4.9501,4.9501,4.9501,4.9501,4.9501,4.9501,4.9501,4.9501,4.9501,4.9501,4.9501,4.9501,4.9366,4.9292,4.9292,4.9292,4.9292,0.0,0.0,0.0,0.0,0.0,0.0,2.9994,2.9994,2.9994,0.0,0.0,0.0,0.0,0.0,0.0,0.0,0.0,0.0,0.0,0.0,0.0,0.0,0.0,0.0,3.0118,3.0553,3.1036,3.1474,3.2243,3.2698,3.2698,3.2698,3.2698,3.2698,3.3239,3.3692,3.4002,3.5362,3.6309,3.6862,3.7959,3.8684,3.905,3.9374,3.9555,3.9607,3.9671,3.9697,3.9697,3.9697,3.9697,3.9697,3.9697,3.9697,3.9697,3.9697,3.9697,3.9697,3.9697,3.9697,3.9697,3.9697,3.9697,3.9697,3.9697,3.9697,3.9697,3.9697,3.9697,3.9697,3.9697,3.9697,3.9697,3.9697,3.9736,3.9865,4.0109,4.0773,4.1376,4.1659,4.1876,4.2207,4.2736,4.3411,4.4387,4.5877,4.6709,4.7485,4.845,4.9005,4.9501,4.9964,5.0024,5.0234,5.0795,5.084,5.084,5.084,5.084,5.084,5.084,5.084,5.084,5.084,5.084,5.084,5.084,4.9801,4.9292,4.9292,4.9292,4.9292,0.0,0.0,0.0,2.9994,0.0,0.0,0.0,2.9994,2.9994,2.9994,0.0,0.0,0.0,0.0,0.0,0.0,0.0,0.0,0.0,0.0,0.0,0.0,0.0,0.0,2.9994,3.0419,3.0967,3.1661,3.2315,3.2698,3.2698,3.2698,3.2784,3.2926,3.3381,3.3952,3.4736,3.5911,3.6916,3.7773,3.8619,3.9218,3.9504,3.9645,3.9697,3.9697,3.9697,3.9697,3.9697,3.9697,3.9697,3.9697,3.9697,3.9697,3.9697,3.9697,3.9697,3.9697,3.9697,3.9697,3.9697,3.9697,3.9697,3.9697,3.9697,3.9697,3.9697,3.9697,3.9697,3.9697,3.9697,3.9697,3.976,4.0036,4.0111,4.0252,4.0766,4.1228,4.1628,4.1903,4.2397,4.2944,4.3323,4.3828,4.4806,4.6631,4.7399,4.8257,4.9495,4.9996,5.0361,5.0667,5.0712,5.0832,5.1161,5.1191,5.1191,5.1191,5.1191,5.1191,5.1191,5.1191,5.1191,5.1191,5.1191,5.1191,5.1191,5.0556,5.0242,5.0242,5.0242,5.0242,0.0,0.0,0.0,0.0,0.0,2.9994,0.0,0.0,0.0,2.9994,0.0,0.0,0.0,0.0,0.0,0.0,0.0,0.0,0.0,0.0,0.0,0.0,0.0,0.0,0.0,3.0501,3.1122,3.1829,3.2388,3.2698,3.2698,3.2698,3.2851,3.3193,3.3523,3.4233,3.5405,3.6363,3.7361,3.8409,3.905,3.9478,3.9697,3.9697,3.9697,3.9697,3.9697,3.9697,3.9697,3.981,3.9785,3.9697,3.9697,3.9697,3.9697,3.9697,3.9697,3.9697,3.9697,3.9697,3.9697,3.9697,3.9697,3.9697,3.9697,3.9772,3.9848,3.9848,3.9936,4.0011,4.0011,4.0011,4.0124,4.0537,4.065,4.0816,4.1496,4.1753,4.1936,4.2163,4.2946,4.3647,4.3857,4.4257,4.5253,4.7387,4.8144,4.9045,5.0558,5.1003,5.1191,5.1191,5.1191,5.1191,5.1191,5.1191,5.1191,5.1191,5.1191,5.1191,5.1191,5.1191,5.1191,5.1191,5.1191,5.1191,5.1191,5.1191,5.1191,5.1191,5.1191,5.1191,0.0,0.0,0.0,0.0,2.9994,0.0,0.0,0.0,2.9994,2.9994,0.0,0.0,0.0,0.0,0.0,0.0,0.0,0.0,0.0,0.0,0.0,0.0,0.0,0.0,0.0,3.0818,3.1367,3.1471,3.224,3.2698,3.2698,3.2698,3.2851,3.3193,3.3749,3.4485,3.5405,3.6746,3.7749,3.8409,3.9258,3.9671,3.9697,3.9697,3.9697,3.9697,3.9697,3.9697,3.9735,4.0224,4.0136,3.9697,3.9697,3.9697,3.9697,3.9697,3.9697,3.9697,3.9697,3.9697,3.9697,3.9697,3.9697,3.9697,3.9697,4.0036,4.0399,4.0399,4.075,4.1127,4.1127,4.1127,4.1139,4.1175,4.1227,4.124,4.1317,4.1935,4.2518,4.2546,4.3454,4.4218,4.423,4.5115,4.6316,4.7813,4.8692,4.9508,5.0423,5.0923,5.1191,5.1191,5.1191,5.1191,5.1191,5.1191,5.1191,5.1191,5.1191,5.1191,5.1191,5.1191,5.1191,5.1191,5.1191,5.1191,5.1191,5.1191,5.1191,5.1191,5.1191,5.1191,0.0,0.0,0.0,0.0,0.0,0.0,0.0,0.0,2.9994,0.0,0.0,0.0,0.0,0.0,0.0,0.0,0.0,0.0,0.0,0.0,0.0,0.0,0.0,0.0,0.0,0.0,0.0,0.0,3.2219,3.2698,3.2698,3.288,3.3221,3.3703,3.4261,3.5157,3.6363,3.7322,3.8159,3.8919,3.9452,3.9697,3.9697,3.9697,3.9697,3.971,4.0036,4.0174,4.0212,4.0738,4.065,4.0174,4.0174,3.9973,3.9697,3.9697,3.9697,3.9697,3.9697,3.9697,3.9747,4.0061,4.0361,4.0625,4.0625,4.0788,4.0964,4.0964,4.1139,4.1315,4.1315,4.1315,4.139,4.1743,4.1806,4.1907,4.2221,4.2554,4.2828,4.2828,4.35,4.4166,4.4489,4.5342,4.6533,4.8103,4.8866,4.963,5.0552,5.0979,5.1191,5.1191,5.1191,5.1191,5.1191,5.1191,5.1191,5.1191,5.1191,5.1191,5.1191,5.1191,5.1191,5.1191,5.1191,5.1191,5.1191,5.1191,5.1191,5.1191,5.1191,5.1191,2.9994,0.0,0.0,0.0,0.0,0.0,0.0,0.0,0.0,0.0,0.0,0.0,0.0,0.0,0.0,0.0,0.0,0.0,0.0,0.0,0.0,0.0,0.0,0.0,0.0,0.0,0.0,3.1408,3.2219,3.2698,3.2698,3.3022,3.3448,3.3946,3.4658,3.5669,3.697,3.7747,3.8514,3.9284,3.9555,3.9772,3.9923,3.9923,3.9998,4.0174,4.0537,4.0713,4.075,4.1315,4.1214,4.0738,4.0902,4.0626,4.0124,3.9973,3.9923,3.9936,4.0086,4.0149,4.0212,4.0587,4.0989,4.1315,4.1315,4.1415,4.1541,4.1541,4.1641,4.1766,4.1766,4.1766,4.1894,4.2311,4.2439,4.2524,4.2914,4.3002,4.303,4.3113,4.3543,4.4107,4.4735,4.5529,4.6663,4.8255,4.9029,4.9752,5.0689,5.1035,5.1191,5.1191,5.1191,5.1191,5.1191,5.1191,5.1191,5.1191,5.1191,5.1191,5.1191,5.1191,5.1191,5.1191,5.1191,5.1191,5.1191,5.1191,5.1191,5.1191,5.1191,5.1191,0.0,0.0,0.0,2.9994,0.0,0.0,0.0,0.0,2.9994,0.0,0.0,0.0,0.0,0.0,0.0,0.0,0.0,0.0,0.0,0.0,0.0,0.0,0.0,0.0,0.0,0.0,0.0,3.1408,3.2219,3.2698,3.2698,3.3022,3.3324,3.3607,3.478,3.5817,3.67,3.7826,3.8698,3.9284,3.9555,3.9973,4.0462,4.0462,4.075,4.1265,4.1277,4.1263,4.1327,4.1934,4.1833,4.134,4.1921,4.1769,4.1202,4.0662,4.0462,4.0537,4.1076,4.1265,4.1265,4.1277,4.1302,4.1315,4.1315,4.1706,4.2187,4.2187,4.2549,4.2951,4.2951,4.2951,4.2951,4.2977,4.2977,4.2977,4.3002,4.3002,4.3085,4.3338,4.3668,4.4161,4.5032,4.5861,4.6858,4.828,4.9178,4.996,5.0713,5.1035,5.1191,5.1191,5.1191,5.1191,5.1191,5.1191,5.1191,5.1191,5.1191,5.1191,5.1191,5.1191,5.1191,5.1191,5.1191,5.1191,5.1191,5.1191,5.1191,5.1191,5.1191,5.1191,0.0,0.0,2.9994,2.9994,0.0,0.0,0.0,0.0,0.0,0.0,0.0,0.0,0.0,0.0,0.0,0.0,0.0,0.0,0.0,0.0,0.0,0.0,0.0,0.0,0.0,0.0,0.0,3.1408,3.2219,3.2698,0.0,3.3182,3.3607,3.3918,3.5279,3.639,3.723,3.8185,3.9156,4.0106,4.0185,4.0499,4.1039,4.1039,4.1139,4.1327,4.1718,4.1909,4.1946,4.2499,4.2399,4.1934,4.211,4.1819,4.129,4.1102,4.1039,4.1064,4.1252,4.1553,4.1909,4.1909,4.2133,4.2421,4.2421,4.2587,4.2725,4.2725,4.2864,4.3002,4.3002,4.3002,4.3002,4.3002,4.3002,4.3002,4.3002,4.3002,4.3085,4.3338,4.3806,4.4449,4.5301,4.6441,4.7538,4.8549,4.941,5.024,5.0979,5.1144,5.1191,5.1191,5.1191,5.1191,5.1191,5.1191,5.1191,5.1191,5.1191,5.1191,5.1191,5.1191,5.1191,5.1191,5.1191,5.1191,5.1191,5.1191,5.1191,5.1191,5.1191,5.1191,2.9994,2.9994,0.0,2.9994,2.9994,0.0,2.9994,0.0,0.0,0.0,0.0,0.0,0.0,0.0,0.0,0.0,0.0,0.0,0.0,2.9994,0.0,0.0,0.0,0.0,0.0,0.0,3.1535,3.1535,3.2276,3.2698,0.0,0.0,3.3681,3.3918,3.5483,3.6715,3.7625,3.8609,3.9683,4.0788,4.0788,4.1064,4.163,4.163,4.1704,4.1917,4.2323,4.2474,4.2499,4.2864,4.2801,4.2474,4.2474,4.2261,4.1867,4.1706,4.1756,4.1892,4.1892,4.2158,4.2474,4.2474,4.2713,4.3002,4.3002,4.3002,4.3002,4.3002,4.3002,4.3002,4.3002,4.3002,4.3002,4.3002,4.3002,4.3002,4.3002,4.3085,4.3225,4.353,4.4053,4.4708,4.5595,4.6857,4.8007,4.8848,4.9703,5.0471,5.112,5.1191,5.1191,5.1191,5.1191,5.1191,5.1191,5.1191,5.1191,5.1191,5.1191,5.1191,5.1191,5.1191,5.1191,5.1191,5.1191,5.1191,5.1191,5.1191,5.1191,5.1191,5.1191,5.1191]},{"header":{"parameterUnit":"m.s-1","parameterCategory":1,"la1":30.6,"la2":29.2853,"lo1":-89.7004,"lo2":-87.6739,"dy":0.0162,"dx":0.0183,"nx":112,"ny":82,"refTime":"2024-03-31T06:00:00:Z","depth":0,"parameterNumber":3,"parameterNumberName":"V-component_of_WINDS"},"data":[0.0,0.0,0.0,0.0,0.0,0.0,0.0,0.0,0.0,0.0,0.0,0.0,0.0,0.0,0.0,0.0,0.0,0.0,0.0,0.0,0.0,0.0,0.0,0.0,0.0,0.0,0.0,0.0,0.0,0.0,0.0,0.0,0.0,0.0,0.0,0.0,0.0,0.0,0.0,0.0,0.0,0.0,0.0,0.0,0.0,0.0,0.0,0.0,0.0,0.0,0.0,0.0,0.0,0.0,0.0,0.0,0.0,0.0,0.0,0.0,0.0,0.0,0.0,0.0,0.0,0.0,0.0,0.0,0.0,0.0,0.0,0.0,0.0,0.0,0.0,0.0,0.0,0.0,0.0,0.0,0.0,0.0,0.0,0.0,0.0,0.0,0.0,0.0,0.0,0.0,0.0,1.5125,1.4075,1.3009,1.1907,1.1305,1.0727,1.0081,0.0,0.0,0.0,0.0,0.0,0.0,0.0,0.0,0.0,0.0,0.0,0.0,0.0,0.0,0.0,0.0,0.0,0.0,0.0,0.0,0.0,0.0,0.0,0.0,0.0,0.0,0.0,0.0,0.0,0.0,0.0,0.0,0.0,0.0,0.0,0.0,0.0,0.0,0.0,0.0,0.0,0.0,0.0,0.0,0.0,0.0,0.0,0.0,0.0,0.0,0.0,0.0,0.0,0.0,0.0,0.0,0.0,0.0,0.0,0.0,0.0,0.0,0.0,0.0,0.0,0.0,0.0,0.0,0.0,0.0,0.0,0.0,0.0,0.0,0.0,0.0,0.0,0.0,0.0,0.0,0.0,0.0,0.0,0.0,0.0,0.0,0.0,0.0,0.0,0.0,0.0,0.0,0.0,0.0,0.0,0.0,0.0,0.0,0.0,0.0,0.0,0.0,0.0,0.0,1.6212,1.4909,1.411,1.3285,1.2363,1.1499,1.0787,1.0294,0.0,0.0,0.0,0.0,0.0,0.0,0.0,0.0,0.0,0.0,0.0,0.0,0.0,0.0,0.0,0.0,0.0,0.0,0.0,0.0,0.0,0.0,0.0,0.0,0.0,0.0,0.0,0.0,0.0,0.0,0.0,0.0,0.0,0.0,0.0,0.0,0.0,0.0,0.0,0.0,0.0,0.0,0.0,0.0,0.0,0.0,0.0,0.0,0.0,0.0,0.0,0.0,0.0,0.0,0.0,0.0,0.0,0.0,0.0,0.0,0.0,0.0,0.0,0.0,0.0,0.0,0.0,0.0,0.0,0.0,0.0,0.0,0.0,0.0,0.0,0.0,0.0,0.0,0.0,0.0,0.0,0.0,0.0,0.0,0.0,0.0,0.0,0.0,0.0,0.0,0.0,0.0,0.0,0.0,0.0,0.0,0.0,0.0,0.0,0.0,0.0,0.0,0.0,1.6723,1.5873,1.5006,1.4405,1.366,1.2641,1.1843,1.1068,1.0359,1.0194,0.0,0.0,0.0,0.0,0.0,0.0,0.0,0.0,0.0,0.0,0.0,0.0,0.0,0.0,0.0,0.0,0.0,0.0,0.0,0.0,0.0,0.0,0.0,0.0,0.0,0.0,0.0,0.0,0.0,0.0,0.0,0.0,0.0,0.0,0.0,0.0,0.0,0.0,0.0,0.0,0.0,0.0,0.0,0.0,0.0,0.0,0.0,0.0,0.0,0.0,0.0,0.0,0.0,0.0,0.0,0.0,0.0,0.0,0.0,0.0,0.0,0.0,0.0,0.0,0.0,0.0,0.0,0.0,0.0,0.0,0.0,0.0,0.0,0.0,0.0,0.0,0.0,0.0,0.0,0.0,0.0,0.0,0.0,0.0,0.0,0.0,0.0,0.0,0.0,0.0,0.0,0.0,0.0,0.0,0.0,0.0,0.0,0.0,0.0,0.0,0.0,0.0,1.6734,1.5819,1.5337,1.4762,1.3971,1.296,1.2186,1.1392,1.0511,1.0229,0.0,0.0,0.0,0.0,0.0,0.0,0.0,0.0,0.0,0.0,0.0,0.0,0.0,0.0,0.0,0.0,0.0,0.0,0.0,0.0,0.0,0.0,0.0,0.0,0.0,0.0,0.0,0.0,0.0,0.0,0.0,0.0,0.0,0.0,0.0,0.0,0.0,0.0,0.0,0.0,0.0,0.0,0.0,0.0,0.0,0.0,0.0,0.0,0.0,0.0,0.0,0.0,0.0,0.0,0.0,0.0,0.0,0.0,0.0,0.0,0.0,0.0,0.0,0.0,0.0,0.0,0.0,0.0,0.0,0.0,0.0,0.0,0.0,0.0,0.0,0.0,0.0,0.0,0.0,0.0,0.0,0.0,0.0,0.0,0.0,0.0,0.0,0.0,0.0,0.0,0.0,0.0,0.0,0.0,0.0,0.0,0.0,0.0,0.0,0.0,0.0,0.0,1.7608,1.663,1.5912,1.4986,1.4125,1.3413,1.2513,1.1693,1.0982,1.0533,0.0,0.0,0.0,0.0,0.0,0.0,0.0,0.0,0.0,0.0,0.0,0.0,0.0,0.0,0.0,0.0,0.0,0.0,0.0,0.0,0.0,0.0,0.0,0.0,0.0,0.0,0.0,0.0,0.0,0.0,0.0,0.0,0.0,0.0,0.0,0.0,0.0,0.0,0.0,0.0,0.0,0.0,0.0,0.0,0.0,0.0,0.0,0.0,0.0,0.0,0.0,0.0,0.0,0.0,0.0,0.0,0.0,0.0,0.0,0.0,0.0,0.0,0.0,0.0,0.0,0.0,0.0,0.0,0.0,0.0,0.0,0.0,0.0,0.0,0.0,0.0,0.0,0.0,0.0,0.0,0.0,0.0,0.0,0.0,0.0,0.0,0.0,0.0,0.0,0.0,0.0,0.0,0.0,0.0,0.0,0.0,0.0,0.0,0.0,0.0,0.0,0.0,1.8325,1.7343,0.0,1.5668,1.4937,1.3927,1.2975,1.2079,1.1241,0.0,0.0,0.0,0.0,0.0,0.0,0.0,0.0,0.0,0.0,0.0,0.0,0.0,0.0,0.0,0.0,0.0,0.0,0.0,0.0,0.0,0.0,0.0,0.0,0.0,0.0,0.0,0.0,0.0,0.0,0.0,0.0,0.0,0.0,0.0,0.0,0.0,0.0,0.0,0.0,0.0,0.0,0.0,0.0,0.0,0.0,0.0,0.0,0.0,0.0,0.0,0.0,0.0,0.0,0.0,0.0,0.0,0.0,0.0,0.0,0.0,0.0,0.0,0.0,0.0,0.0,0.0,0.0,0.0,0.0,0.0,0.0,0.0,0.0,0.0,0.0,0.0,0.0,0.0,0.0,0.0,0.0,0.0,0.0,0.0,0.0,0.0,0.0,0.0,0.0,0.0,0.0,0.0,0.0,0.0,0.0,0.0,0.0,0.0,0.0,0.0,0.0,2.005,1.913,1.814,0.0,1.6289,1.549,1.4449,1.3479,1.2507,1.1585,0.0,0.0,0.0,0.0,0.0,0.0,0.0,0.0,0.0,0.0,0.0,0.0,0.0,0.0,0.0,0.0,0.0,0.0,0.0,0.0,0.0,0.0,0.0,0.0,0.0,0.0,0.0,0.0,0.0,0.0,0.0,0.0,0.0,0.0,0.0,0.0,0.0,0.0,0.0,0.0,0.0,0.0,0.0,0.0,0.0,0.0,0.0,0.0,0.0,0.0,0.0,0.0,0.0,0.0,0.0,0.0,0.0,0.0,0.0,0.0,0.0,0.0,0.0,0.0,0.0,0.0,0.0,0.0,0.0,0.0,0.0,0.0,0.0,0.0,0.0,0.0,0.0,0.0,0.0,0.0,0.0,0.0,0.0,0.0,0.0,0.0,0.0,0.0,0.0,0.0,0.0,0.0,0.0,0.0,0.0,0.0,0.0,0.0,0.0,0.0,0.0,0.0,2.1132,2.0088,1.9051,1.8108,1.6754,1.5655,1.4979,1.3985,1.3009,0.0,0.0,0.0,0.0,0.0,0.0,0.0,0.0,0.0,0.0,0.0,0.0,0.0,0.0,0.0,0.0,0.0,0.0,0.0,0.0,0.0,0.0,0.0,0.0,0.0,0.0,0.0,0.0,0.0,0.0,0.0,0.0,0.0,0.0,0.0,0.0,0.0,0.0,0.0,0.0,0.0,0.0,0.0,0.0,0.0,0.0,0.0,0.0,0.0,0.0,0.0,0.0,0.0,0.0,0.0,0.0,0.0,0.0,0.0,0.0,0.0,0.0,0.0,0.0,0.0,0.0,0.0,0.0,0.0,0.0,0.0,0.0,0.0,0.0,0.0,0.0,0.0,0.0,0.0,0.0,0.0,0.0,0.0,0.0,0.0,0.0,0.0,0.0,0.0,0.0,0.0,0.0,0.0,0.0,0.0,0.0,0.0,0.0,0.0,0.0,0.0,0.0,0.0,2.1615,2.0926,2.0014,1.8647,1.7838,1.6903,1.5706,1.4739,1.3696,1.2561,0.0,0.0,0.0,0.0,0.0,0.0,0.0,0.0,0.0,0.0,0.0,0.0,0.0,0.0,0.0,0.0,0.0,0.0,0.0,0.0,0.0,0.0,0.0,0.0,0.0,0.0,0.0,0.0,0.0,0.0,0.0,0.0,0.0,0.0,0.0,0.0,0.0,0.0,0.0,0.0,0.0,0.0,0.0,0.0,0.0,0.0,0.0,0.0,0.0,0.0,0.0,0.0,0.0,0.0,0.0,0.0,0.0,0.0,0.0,0.0,0.0,0.0,0.0,0.0,0.0,0.0,0.0,0.0,0.0,0.0,0.0,0.0,0.0,0.0,0.0,0.0,0.0,0.0,0.0,0.0,0.0,0.0,0.0,0.0,0.0,0.0,0.0,0.0,0.0,0.0,0.0,0.0,0.0,0.0,0.0,0.0,0.0,0.0,0.0,0.0,0.0,0.0,2.2113,2.1512,2.0653,1.9322,1.8479,1.7534,1.6389,1.5285,1.4249,1.324,0.0,0.0,0.0,0.0,0.0,0.0,0.0,0.0,0.0,0.0,0.0,0.0,0.0,0.0,0.0,0.0,0.0,0.0,0.0,0.0,0.0,0.0,0.0,0.0,0.0,0.0,0.0,0.0,0.0,0.0,0.0,0.0,0.0,0.0,0.0,0.0,0.0,0.0,0.0,0.0,0.0,0.0,0.0,0.0,0.0,0.0,0.0,0.0,0.0,0.0,0.0,0.0,0.0,0.0,0.0,0.0,0.0,0.0,0.0,0.0,0.0,0.0,0.0,0.0,0.0,0.0,0.0,0.0,0.0,0.0,0.0,0.0,0.0,0.0,0.0,0.0,0.0,0.0,0.0,0.0,0.0,0.0,0.0,0.0,0.0,0.0,0.0,0.0,0.0,0.0,0.0,0.0,0.0,0.0,0.0,0.0,0.0,0.0,0.0,0.0,0.0,0.0,2.2586,2.1878,2.1078,2.0076,1.8857,1.7809,1.7039,1.5757,1.4707,1.4009,0.0,0.0,0.0,0.0,0.0,0.0,0.0,0.0,0.0,0.0,0.0,0.0,0.0,0.0,0.0,0.0,0.0,0.0,0.0,0.0,0.0,0.0,0.0,0.0,0.0,0.0,0.0,0.0,0.0,0.0,0.0,0.0,0.0,0.0,0.0,0.0,0.0,0.0,0.0,0.0,0.0,0.0,0.0,0.0,0.0,0.0,0.0,0.0,0.0,0.0,0.0,0.0,0.0,0.0,0.0,0.0,0.0,0.0,0.0,0.0,3.8153,0.0,0.0,0.0,0.0,0.0,0.0,0.0,0.0,0.0,0.0,0.0,0.0,0.0,0.0,0.0,0.0,0.0,0.0,0.0,0.0,0.0,0.0,0.0,0.0,0.0,0.0,0.0,0.0,0.0,0.0,0.0,0.0,0.0,0.0,0.0,0.0,0.0,0.0,0.0,0.0,0.0,2.3069,2.2375,2.1566,2.056,1.954,1.8551,1.753,1.6447,1.5458,1.4513,0.0,0.0,0.0,0.0,0.0,0.0,0.0,0.0,0.0,0.0,0.0,0.0,0.0,0.0,0.0,0.0,0.0,0.0,0.0,0.0,0.0,0.0,0.0,0.0,0.0,0.0,0.0,0.0,0.0,0.0,0.0,0.0,0.0,0.0,0.0,0.0,0.0,0.0,0.0,0.0,0.0,0.0,0.0,0.0,0.0,0.0,0.0,0.0,0.0,0.0,0.0,0.0,0.0,0.0,0.0,0.0,0.0,0.0,0.0,0.0,0.0,3.8327,0.0,0.0,0.0,0.0,0.0,0.0,0.0,0.0,0.0,0.0,0.0,0.0,0.0,0.0,0.0,0.0,0.0,0.0,0.0,0.0,0.0,0.0,0.0,0.0,0.0,0.0,0.0,0.0,0.0,0.0,0.0,0.0,0.0,0.0,0.0,0.0,0.0,0.0,0.0,0.0,2.3527,2.264,2.182,2.1064,2.0025,1.9015,1.8109,1.7075,1.6118,1.5232,1.4022,0.0,0.0,0.0,0.0,0.0,0.0,0.0,0.0,0.0,0.0,0.0,0.0,0.0,0.0,0.0,0.0,0.0,0.0,0.0,0.0,0.0,0.0,0.0,0.0,0.0,0.0,0.0,0.0,0.0,0.0,0.0,0.0,0.0,0.0,0.0,0.0,0.0,0.0,0.0,0.0,0.0,0.0,0.0,0.0,0.0,0.0,0.0,0.0,0.0,0.0,0.0,0.0,0.0,4.1831,4.1631,4.1373,4.1105,4.0896,4.07,3.9749,3.9202,3.8969,0.0,0.0,0.0,0.0,0.0,0.0,0.0,0.0,0.0,0.0,0.0,0.0,0.0,0.0,0.0,0.0,0.0,0.0,0.0,0.0,0.0,0.0,0.0,0.0,0.0,3.4752,3.4397,0.0,0.0,0.0,0.0,0.0,0.0,0.0,0.0,0.0,0.0,0.0,0.0,2.4258,2.3124,2.2167,2.1567,2.0454,1.941,1.8644,1.7634,1.6771,1.6078,1.4754,1.3706,0.0,0.0,0.0,0.0,0.0,0.0,0.0,0.0,0.0,0.0,0.0,0.0,0.0,0.0,0.0,0.0,0.0,0.0,0.0,0.0,0.0,0.0,0.0,0.0,0.0,0.0,0.0,0.0,0.0,0.0,0.0,0.0,4.3916,4.3931,0.0,0.0,0.0,0.0,0.0,0.0,0.0,0.0,0.0,0.0,0.0,0.0,0.0,4.3401,4.3267,4.2985,4.275,4.2586,4.2378,4.2251,4.2163,4.1874,4.1602,4.1271,4.0902,0.0,3.9742,3.951,0.0,0.0,0.0,0.0,0.0,0.0,0.0,0.0,0.0,0.0,0.0,0.0,0.0,0.0,0.0,0.0,0.0,0.0,0.0,0.0,0.0,0.0,3.5814,3.5431,3.5216,3.5014,0.0,3.3988,3.3364,3.2952,3.2264,0.0,0.0,0.0,0.0,0.0,0.0,0.0,2.5744,2.4421,2.3152,2.2044,2.0883,1.9839,1.8926,1.8135,1.7471,1.6947,1.6369,1.5455,1.422,1.3832,0.0,0.0,0.0,0.0,0.0,0.0,0.0,0.0,0.0,0.0,0.0,0.0,0.0,0.0,0.0,0.0,0.0,0.0,0.0,0.0,0.0,0.0,0.0,0.0,0.0,0.0,0.0,0.0,0.0,4.4203,4.4284,4.4328,4.4416,4.4486,0.0,0.0,0.0,0.0,0.0,0.0,0.0,0.0,0.0,4.4169,4.3889,4.3709,4.3649,4.3417,4.3259,4.3151,4.2948,4.2739,4.2514,4.2285,4.1994,4.1668,4.152,4.1192,4.071,4.0245,3.9957,3.9786,0.0,0.0,0.0,0.0,3.8258,3.8128,3.7842,3.7666,0.0,0.0,0.0,0.0,0.0,0.0,0.0,0.0,0.0,0.0,0.0,0.0,0.0,3.6117,3.58,3.5477,3.5065,3.458,3.404,0.0,3.3052,3.2592,3.1943,0.0,0.0,0.0,0.0,0.0,2.5611,2.4419,2.3273,2.2339,2.1306,2.032,1.9375,1.8621,1.7986,1.7519,1.678,1.6028,1.5332,1.457,1.3996,0.0,0.0,0.0,0.0,0.0,0.0,0.0,0.0,0.0,0.0,0.0,0.0,0.0,0.0,0.0,0.0,0.0,0.0,0.0,0.0,0.0,0.0,0.0,0.0,0.0,0.0,0.0,0.0,4.4503,4.4558,4.4592,4.4679,4.4718,0.0,0.0,0.0,0.0,0.0,0.0,4.459,4.4418,4.4336,4.43,4.4055,4.3913,4.3897,4.3732,4.3624,4.3566,4.3375,4.3114,4.2817,4.2595,4.2323,4.1998,4.192,4.1747,4.1504,4.0902,4.0597,4.0478,4.0154,3.9952,3.9764,3.9239,3.901,3.8928,3.8641,3.8458,3.8301,3.8144,0.0,3.7861,3.7698,0.0,0.0,0.0,0.0,3.7581,3.7477,3.7388,3.7209,3.6785,3.6367,3.5911,3.5378,3.4999,3.4532,0.0,3.3556,3.3184,3.2389,0.0,0.0,0.0,0.0,2.6793,2.5851,2.4724,2.3652,2.2748,2.1777,2.0798,1.9885,1.9063,1.8417,1.7967,1.7162,1.6545,1.6182,1.5426,1.4949,1.4808,0.0,0.0,0.0,0.0,0.0,0.0,0.0,0.0,0.0,0.0,0.0,0.0,0.0,0.0,0.0,0.0,0.0,0.0,0.0,0.0,0.0,0.0,0.0,0.0,0.0,0.0,0.0,0.0,0.0,4.4605,4.4725,0.0,0.0,0.0,0.0,4.4612,4.4666,4.4639,4.4515,4.4501,4.4437,4.43,4.409,4.3958,4.3897,4.3837,4.3788,4.3788,4.3575,4.3384,4.3178,4.289,4.2607,4.2277,4.2135,4.2044,4.1952,4.1515,4.1238,4.1023,4.0757,4.0456,4.012,3.979,3.9543,3.9342,3.9064,3.8955,3.8914,3.8653,3.8474,3.8363,3.8349,3.8349,0.0,0.0,3.825,3.815,3.815,3.7905,3.7598,3.7254,3.6816,3.6273,3.556,3.512,3.4685,0.0,3.3417,3.2943,3.271,0.0,3.0979,3.0659,2.9623,2.8481,2.7349,2.6148,2.4876,2.3493,2.2337,2.1311,2.0437,1.9461,1.8713,1.8304,1.7987,1.7439,1.6599,1.6826,1.6715,1.6199,1.7028,0.0,0.0,0.0,0.0,0.0,0.0,0.0,0.0,0.0,0.0,0.0,0.0,0.0,0.0,0.0,0.0,0.0,0.0,0.0,0.0,0.0,0.0,0.0,0.0,0.0,0.0,0.0,0.0,4.4672,4.4732,0.0,4.4612,4.4712,4.4732,4.4605,4.4666,4.4666,4.4565,4.451,4.4437,4.43,4.4188,4.4089,4.3976,4.3945,4.3929,4.3929,4.4294,4.4312,4.4035,4.3765,4.3446,4.3097,4.2483,4.2173,4.2048,4.192,4.1675,4.1409,4.1123,4.0924,4.0752,4.0402,4.0237,4.0145,3.9969,3.9791,3.9571,3.9139,3.8846,3.8641,3.856,3.8478,3.8391,3.8391,3.8379,3.8337,3.8337,3.8235,3.8049,3.7611,3.7224,3.6739,3.5943,3.5412,3.4916,3.4329,3.4092,3.3746,3.3131,3.2319,3.1481,3.0741,2.9411,2.8151,2.7181,2.6032,2.4941,2.4008,2.3015,2.2013,2.1061,2.0111,1.9468,1.9284,1.8538,1.8064,1.8007,1.771,1.7382,1.7009,1.7608,1.8282,0.0,0.0,0.0,0.0,0.0,0.0,0.0,0.0,0.0,0.0,0.0,0.0,0.0,0.0,0.0,0.0,0.0,0.0,0.0,0.0,0.0,0.0,0.0,0.0,0.0,0.0,4.4652,4.4593,4.4666,4.4652,4.451,4.4619,4.4659,4.4544,4.4864,4.5035,4.496,4.5233,4.5291,4.5122,4.5061,4.4977,4.4841,4.4841,4.4841,4.4859,4.5236,4.5254,4.4958,4.4649,4.4345,4.4035,4.3377,4.303,4.2939,4.2924,4.2774,4.2491,4.1657,4.1312,4.1227,4.0889,4.0782,4.0741,4.0616,4.038,4.0083,3.9623,3.9232,3.8898,3.8725,3.8546,3.8391,3.8391,3.8391,3.8391,3.8391,3.8391,3.8307,3.7948,3.7537,3.6997,3.6289,3.5637,3.5049,3.4582,3.435,3.3951,3.3184,3.252,3.1797,3.0933,2.973,2.8588,2.7628,2.6662,2.5722,2.4855,2.392,2.2993,2.2062,2.1026,2.0342,2.0111,1.9268,1.8838,1.8991,1.8683,1.8408,1.8183,1.8918,1.9767,2.0681,0.0,0.0,0.0,0.0,0.0,0.0,0.0,0.0,0.0,0.0,0.0,0.0,0.0,0.0,0.0,0.0,0.0,0.0,0.0,0.0,0.0,0.0,0.0,4.4487,4.4544,4.4544,4.4411,4.4447,4.4444,4.4344,4.4453,4.451,4.4472,4.5313,4.5806,4.5735,4.66,4.6967,4.6713,4.6705,4.6627,4.6502,4.6494,4.6494,4.6494,4.6318,4.6127,4.5929,4.5524,4.5224,4.5026,4.4729,4.4614,4.4585,4.4533,4.45,4.4325,4.241,4.1686,4.1641,4.1325,4.1203,4.1163,4.104,4.082,4.0536,4.0188,3.9729,3.9218,3.8966,3.8679,3.8472,3.8472,3.8472,3.8472,3.8472,3.8472,3.843,3.8287,3.7763,3.7121,3.6585,3.5843,3.5157,3.4823,3.418,3.3473,3.2838,3.2416,3.1945,3.1344,3.0771,0.0,2.8894,2.8137,2.7249,2.6055,2.509,2.4216,2.3416,2.2245,2.1348,2.0813,2.0273,1.9814,1.9502,1.9774,1.9878,1.9777,2.1081,2.2259,2.3247,0.0,0.0,0.0,0.0,0.0,0.0,0.0,0.0,0.0,0.0,0.0,0.0,0.0,0.0,0.0,0.0,0.0,0.0,0.0,0.0,0.0,0.0,4.4383,4.4358,4.4373,4.4373,4.4336,4.4344,4.4557,4.505,4.517,4.5436,4.5949,4.6319,4.6503,4.6427,4.672,4.6795,4.6627,4.6637,4.6589,4.6494,4.6494,4.6494,4.6494,4.6892,4.6947,4.6755,4.6352,4.6057,4.5817,4.4972,4.4614,4.4614,4.4581,4.457,4.4495,4.3815,4.3556,4.3544,4.3443,4.3352,4.3249,4.3121,4.2844,4.2475,4.2078,4.1495,4.089,4.0614,4.0246,3.9914,3.9914,3.9914,3.9914,3.9914,3.9914,3.9855,3.9573,3.9179,3.8701,3.8067,3.7332,3.6709,3.6347,3.5655,3.4853,3.3934,3.3455,3.2983,3.2371,3.1387,0.0,2.9532,2.8527,2.7613,2.6772,2.5998,2.5217,2.4464,2.3588,2.3015,2.2832,2.1878,2.1417,2.1563,2.1098,2.1098,2.1643,2.2769,2.3695,0.0,0.0,0.0,0.0,0.0,0.0,0.0,0.0,0.0,0.0,0.0,0.0,0.0,0.0,0.0,0.0,0.0,0.0,0.0,0.0,0.0,0.0,4.4368,4.4485,4.4722,4.4472,4.4364,4.468,4.4717,4.503,4.5794,4.5921,4.6139,4.6568,4.7041,4.7302,4.7247,4.7593,4.7767,4.7648,4.764,4.7607,4.7516,4.7482,4.7465,4.7483,4.7673,4.7674,4.7456,4.7088,4.6815,0.0,4.5897,4.5624,4.5624,4.5624,4.5624,0.0,0.0,0.0,0.0,0.0,4.4248,4.4169,4.4032,4.3757,4.3404,4.299,4.2385,4.1744,4.1394,4.0982,4.0602,4.0526,4.0511,4.0511,4.0511,4.0511,4.0437,4.0181,3.9736,3.9219,3.8591,3.7831,3.7181,3.6843,0.0,0.0,3.5105,3.4317,3.3641,3.3098,3.2195,3.132,3.0592,2.9562,2.8645,2.7961,2.7052,2.627,2.5738,2.4979,0.0,0.0,0.0,2.3172,2.3187,2.2793,0.0,0.0,0.0,2.5095,2.5606,0.0,0.0,0.0,2.5818,2.6014,0.0,0.0,0.0,0.0,0.0,0.0,0.0,0.0,0.0,0.0,0.0,0.0,0.0,0.0,0.0,0.0,4.4547,4.477,4.5444,4.4918,4.4719,4.5358,4.5443,4.5759,4.655,4.6698,4.6757,4.685,4.7623,4.8092,4.8092,0.0,0.0,0.0,0.0,4.8998,4.8874,4.8804,4.876,4.876,4.8438,4.817,4.7972,4.7621,4.7388,4.7178,4.7066,4.7009,4.7009,4.7009,4.7009,4.6855,4.5356,4.4778,4.4767,4.4656,4.4593,4.4559,4.4434,0.0,0.0,4.3467,4.2897,4.2259,4.1784,4.136,4.0997,4.0814,4.0754,4.0739,4.0739,4.0739,4.0694,4.0515,3.9944,3.9279,3.8694,3.7907,3.7215,3.689,3.6815,3.6651,3.6197,3.5086,3.4092,3.366,3.3111,3.2494,3.1735,3.0858,2.9988,2.922,0.0,0.0,2.7003,2.6284,2.5742,2.5489,2.5221,2.4884,2.445,2.468,2.4914,2.5127,2.5869,2.6501,2.6969,2.7591,2.805,2.8289,2.73,2.7275,0.0,0.0,0.0,0.0,0.0,0.0,0.0,0.0,0.0,0.0,0.0,0.0,0.0,0.0,0.0,4.5273,4.5364,4.5604,4.6275,4.6233,4.6164,4.6269,4.6279,4.6587,4.7386,4.7477,4.7764,4.8414,4.8609,4.8737,4.8737,4.8817,4.8866,4.8867,4.875,4.8687,4.8651,4.8587,4.8569,4.8541,0.0,0.0,4.7824,4.7486,4.7294,4.7178,4.7066,4.7009,4.7009,4.7009,4.7009,4.6973,4.6647,4.6511,4.6511,4.6488,4.642,4.6299,4.6171,4.5868,4.5459,4.4954,4.4368,4.3787,4.3329,4.2855,0.0,4.2462,4.2322,4.2182,4.2182,4.2182,4.2088,4.1694,4.1242,4.0666,3.9799,3.9133,3.8592,3.8205,3.775,3.7286,3.6887,3.5873,3.494,3.431,3.3534,3.2754,3.2011,3.1238,3.042,2.9508,2.8687,2.7996,2.7513,2.6976,2.6651,2.6592,2.6352,2.5902,2.5277,2.6226,2.6713,2.6608,2.7488,2.8176,2.8645,2.8982,2.9352,2.9701,2.9174,2.9033,0.0,0.0,0.0,0.0,0.0,0.0,0.0,0.0,0.0,0.0,0.0,4.4903,4.5272,0.0,4.5529,4.6233,4.6325,4.6551,4.7244,4.7327,4.7255,4.7124,4.7107,4.7423,4.8221,4.8296,4.8481,4.8872,4.8909,4.8883,4.8848,4.8759,4.8678,4.8642,4.8513,4.842,4.8345,4.8277,4.8218,4.8151,4.788,4.7684,4.7532,4.7341,4.7201,4.7088,4.7032,4.7009,4.7009,4.7009,4.7009,4.7009,4.7009,4.7009,4.7009,4.7009,4.6957,4.6865,4.6672,4.6332,4.5912,4.5376,4.4783,4.4207,4.373,4.3388,4.3115,4.2946,4.2822,4.2728,4.2634,4.2555,4.2397,4.1996,4.1455,4.0817,3.9985,3.9343,3.8833,3.8441,3.7934,3.7457,3.707,3.5997,3.5018,3.4481,3.3654,3.2918,3.2416,3.1715,3.0948,3.0148,2.9255,2.8501,2.7833,2.7381,2.7105,2.7105,2.6976,2.6802,2.6553,2.7398,2.7925,2.804,2.9014,2.968,2.9993,3.0497,3.0865,3.1046,3.122,3.0928,0.0,0.0,0.0,0.0,0.0,0.0,0.0,0.0,4.5141,4.5141,4.5274,4.5578,4.6214,4.6275,4.6465,4.7205,4.7269,4.7481,4.8206,4.8266,4.8153,4.7943,4.7934,4.8176,4.8827,4.8883,4.8874,4.8838,4.8838,4.8812,4.8742,4.8587,4.8495,4.8409,4.8257,4.8123,4.8015,4.7933,4.7842,4.7731,4.7536,4.7392,4.7276,4.7201,4.71,4.7009,4.7009,4.7009,4.7009,4.6957,4.6957,4.6963,4.6899,4.6888,4.6888,4.6934,4.6957,4.6911,4.659,4.6247,4.5862,4.5253,4.4714,4.4207,4.373,4.3509,4.3342,4.3084,4.2946,4.2853,4.2649,4.2476,4.2238,4.1833,4.1205,4.0474,3.9753,3.9144,3.8616,3.8277,3.7877,3.7457,3.707,3.5924,3.4922,3.4481,3.3654,3.3004,3.2732,3.2098,3.1415,3.0735,2.976,2.8862,2.8068,2.7655,2.7441,2.7441,2.7441,2.7536,2.776,2.8254,2.878,2.9301,3.0261,3.0892,3.1195,3.1825,3.2164,3.223,3.2905,3.2655,4.4895,4.4895,4.4895,4.4895,4.4895,4.4895,0.0,0.0,4.6051,4.6051,4.6626,4.7131,4.716,4.7106,4.732,4.8045,4.8115,4.8291,4.8984,4.9064,4.8957,4.871,4.8727,4.8781,4.8813,4.8804,4.8759,4.8632,4.8632,4.8596,4.855,4.8352,4.8179,4.8052,4.7868,4.7762,4.7752,4.7618,4.7554,4.7543,4.7334,4.723,4.7201,4.7088,4.7002,4.7009,4.7009,4.7009,4.6998,4.6865,4.683,4.6807,4.6566,4.6471,4.6506,4.6731,4.683,4.6743,4.6247,4.5963,4.5679,4.4845,4.4449,4.4207,4.373,4.3509,4.3387,4.3342,4.313,4.2853,4.2649,4.2381,4.1964,4.1339,4.0715,4.0058,3.934,3.883,3.8478,3.824,3.7877,3.7457,3.707,3.6091,3.5141,3.4501,3.3654,3.3004,3.2732,3.2251,3.1681,3.0937,3.0011,2.9071,2.8081,2.794,2.7927,2.7927,2.7927,2.8055,2.8301,2.8757,2.9347,3.0057,3.0825,3.155,3.2235,3.2484,3.2732,3.2982,3.3428,3.3543,4.4895,4.4895,0.0,0.0,4.5659,4.5786,4.6241,4.6645,4.691,4.691,4.7176,4.7542,4.8034,4.8002,4.8176,0.0,4.9029,4.9019,4.9239,4.917,4.9002,4.8822,4.8651,4.8578,4.8615,4.8633,4.8578,4.8439,4.8345,4.848,4.8886,4.8693,4.8717,4.91,4.8956,4.8823,4.8744,4.8688,4.8613,4.8545,4.8035,4.7786,4.7768,4.7246,4.7009,4.7009,4.7009,4.7009,4.6998,4.6853,4.6743,4.6649,4.6381,4.6235,4.6186,4.6369,4.6393,4.6284,4.5988,4.5615,4.5192,4.4666,4.4293,4.4012,4.3702,4.3568,4.3509,4.3417,4.3221,4.2944,4.2681,4.2206,4.1671,4.107,4.0405,3.9737,3.9071,3.8686,3.8441,3.824,3.7877,3.7457,3.707,3.6111,3.5161,3.4501,3.3759,3.3197,3.2961,3.2624,3.2089,3.1205,3.0272,2.9463,2.8921,2.8595,2.8409,2.8409,2.8409,2.8595,2.9024,2.9485,3.008,3.0825,3.155,3.2157,3.2571,3.281,3.2982,3.3124,3.3513,3.3966,4.5198,0.0,0.0,4.6323,4.6531,4.6683,4.727,4.7593,4.7763,4.7763,4.7934,4.8275,4.89,4.8873,4.8975,4.9598,4.9563,4.9393,4.9219,4.9027,4.8802,4.8606,4.8335,4.818,4.8218,4.8267,4.833,4.8442,4.8362,4.8618,4.9351,4.9166,4.9279,4.9762,4.9665,4.9542,4.9454,4.9442,4.9407,4.9293,4.8764,4.8508,4.8472,4.7687,4.7307,4.7255,4.7041,4.6899,4.683,4.6649,4.6506,4.6362,4.6,4.5811,4.5722,4.573,4.5768,4.5799,4.5593,4.5196,4.4749,4.4418,4.414,4.3868,4.3658,4.3598,4.3583,4.3494,4.3266,4.2959,4.2634,4.1964,4.124,4.0681,3.9985,3.9322,3.8815,3.8557,3.8366,3.8221,3.7877,3.7476,3.7148,3.6191,3.5263,3.4585,3.3915,3.3398,3.3133,3.281,3.2298,3.1472,3.0622,3.0011,2.9818,2.9382,2.9141,2.9233,2.9233,2.9463,2.9988,3.0374,3.0915,3.1594,3.2179,3.2605,3.281,3.3004,3.3102,3.3124,3.3513,3.4176,0.0,0.0,4.6361,4.7157,4.7365,4.7365,4.7384,4.8047,4.8661,4.8661,4.9279,4.9836,4.9848,4.975,4.9681,4.9699,4.948,4.9201,4.896,4.875,4.8467,4.8072,4.7903,4.7749,0.0,4.7708,4.8089,4.8731,4.8775,4.9101,4.9832,4.9744,4.9617,4.9513,4.9377,4.9305,4.9305,4.9305,4.9305,4.9293,4.9275,4.9269,4.9252,4.8508,4.8081,4.7933,4.7145,4.6661,4.6393,4.6137,4.595,4.5773,4.5243,4.5032,4.4991,4.4669,4.4917,4.5345,4.4886,4.4638,4.4449,4.4056,4.3912,4.3868,4.3658,4.3598,4.3598,4.3598,4.3267,4.2822,4.2492,4.1621,4.0663,4.0073,3.9364,3.8778,3.8553,3.8348,3.8202,3.8202,3.7877,3.7515,3.7322,3.6409,3.5467,3.4799,3.4113,3.3556,3.3154,3.2692,3.2201,3.1647,3.116,3.0792,3.0578,3.0306,3.0261,3.0532,3.0555,3.0758,3.1239,3.146,3.1825,3.2344,3.2571,3.2831,3.3102,3.3102,3.3102,3.3124,3.3513,3.4176,0.0,0.0,4.7195,4.8047,4.8256,4.8389,4.8938,4.9279,4.9488,4.9488,4.9722,4.9891,4.9836,4.9764,4.9663,4.9514,4.9384,4.9195,4.8884,4.8623,4.8318,4.7923,4.7616,0.0,0.0,0.0,0.0,4.8582,4.9014,4.9611,5.0384,5.0295,5.0461,5.0949,5.093,5.0887,5.0887,5.0887,5.0887,5.0887,5.034,4.9822,4.9293,4.9038,4.8604,4.7974,4.7624,4.7013,4.6247,4.5988,4.5666,4.5298,4.494,4.4683,4.4522,4.431,4.431,4.4412,4.4435,4.4296,4.4068,4.3939,4.3807,4.3687,4.3628,4.3598,4.3583,4.3477,4.319,4.2791,4.2334,4.1407,4.0459,3.9897,3.9162,3.8553,3.8333,3.824,3.8202,3.8202,3.7877,3.7534,3.7322,3.6409,3.5325,3.4196,3.362,3.3261,3.3124,3.2973,3.2723,3.2373,3.2057,3.1793,3.1548,3.1304,3.1227,3.1316,3.1328,3.145,3.1747,3.2013,3.2288,3.2593,3.2831,3.3004,3.3102,3.3102,3.3102,3.3124,3.3696,3.4343,4.7782,4.7858,4.8066,4.8919,4.9128,4.9254,4.9757,4.9864,4.985,4.9802,4.9809,4.9795,4.9681,4.9622,4.9533,4.9352,4.9201,4.8995,4.8596,4.8326,4.8015,4.7624,4.7615,0.0,0.0,0.0,0.0,4.9213,4.9615,5.0211,5.0998,5.0978,5.1173,5.1685,5.1703,5.1703,5.1703,5.1703,5.1703,5.169,5.1123,5.0587,5.0058,4.9687,4.916,4.8514,4.8093,4.7243,4.6152,4.5931,4.544,4.4804,4.4516,4.4307,4.414,4.3981,4.3881,4.3822,4.4068,4.3996,4.3793,4.3793,4.3719,4.3598,4.3598,4.3598,4.3583,4.3432,4.3114,4.2649,4.2077,4.1108,4.0148,3.9613,3.894,3.8366,3.8221,3.8202,3.8202,3.8202,3.7877,3.7534,3.7322,3.6197,3.4964,3.386,3.3356,3.3102,3.3102,3.3102,3.3025,3.2853,3.2636,3.2441,3.2251,3.2057,3.1981,3.2057,3.2057,3.2167,3.2373,3.255,3.2702,3.2831,3.3004,3.3102,3.3102,3.3102,3.3133,3.3219,3.3886,3.4543,4.852,4.8748,4.8918,4.9676,4.9866,4.9864,4.9788,4.9785,4.9743,4.963,4.966,4.9622,0.0,0.0,4.9345,4.9195,4.897,4.8615,4.8153,4.786,4.759,0.0,0.0,0.0,0.0,0.0,0.0,5.0566,0.0,5.0887,5.1667,5.1703,5.1703,5.1703,5.1703,5.169,5.169,5.1678,5.1665,5.1665,5.1531,5.1467,5.1423,5.0399,4.9772,4.9426,4.8501,4.7375,4.6132,4.5994,4.5294,4.4303,4.4048,4.3931,4.3868,4.3658,4.3598,4.3628,4.3824,4.3763,4.3598,4.3598,4.3598,4.3598,4.3598,4.3598,4.3568,4.3419,4.299,4.2412,4.1753,4.072,3.9745,3.9217,3.8631,3.8202,3.8202,3.8202,3.8202,3.8202,3.7877,3.7495,3.7264,3.5823,3.4468,3.3797,3.3356,3.3102,3.3102,3.3102,3.3102,3.3102,3.2874,3.2711,3.2711,3.2562,3.2519,3.2723,3.2711,3.2831,3.3102,3.3102,3.3102,3.3102,3.3102,3.3102,3.3102,3.3102,3.3197,3.342,3.4105,3.4771,4.9153,4.9217,4.9266,4.948,4.9537,4.951,4.9506,4.9499,4.9491,4.9453,4.9533,4.9567,0.0,0.0,0.0,4.8953,4.8768,0.0,4.7955,4.7767,0.0,0.0,0.0,4.8651,4.9799,5.0281,0.0,0.0,5.1387,5.1476,5.169,5.1703,5.1703,5.1703,5.1703,5.164,5.1556,5.135,5.1246,5.1264,5.1066,5.0928,5.082,5.0542,4.995,4.909,4.8604,4.7749,4.6694,4.6437,4.5704,4.4753,4.4664,4.4258,4.3658,4.3628,4.3598,4.3613,4.3658,4.3643,4.3598,4.3598,4.3598,4.3598,4.3598,4.3539,4.3387,4.3115,4.2633,4.2029,4.1223,4.0387,3.9613,3.9017,3.8538,3.8202,3.8202,3.8202,3.8202,3.8202,3.7749,3.7109,3.625,3.5332,3.4468,3.3797,3.3356,3.3102,3.3102,3.3102,3.3102,3.3102,3.3038,3.3016,3.3016,3.2939,3.2952,3.2982,3.3016,3.3025,3.3102,3.3102,3.3102,3.3102,3.3102,3.3102,3.3102,3.3102,3.3197,3.342,3.4238,3.4902,4.9268,4.9268,4.9268,4.9268,4.9268,4.9252,4.9231,4.9214,4.9217,4.9152,4.9228,0.0,0.0,0.0,0.0,0.0,0.0,0.0,4.7637,4.7515,4.7665,0.0,4.8508,0.0,5.0375,5.0816,5.1208,0.0,5.1703,5.1703,5.1703,5.1703,5.1703,5.1703,5.1703,5.162,5.1415,5.111,5.0936,5.0883,5.0612,5.0415,5.0275,5.0165,4.9712,4.8966,0.0,4.7992,4.7033,4.6884,4.622,4.5291,4.5291,4.4998,4.4524,4.4193,4.4092,4.4027,4.3712,4.3598,4.3598,4.3598,4.3598,4.3598,4.3539,4.3447,4.3296,4.2822,4.2349,4.177,4.0887,4.0126,3.9433,3.891,3.8486,3.8202,3.8202,3.8202,3.8146,3.7972,3.7519,3.6861,3.5871,3.5066,3.4364,3.3797,3.3356,3.3102,3.3102,3.3102,3.3102,3.3102,3.3102,3.3102,3.3102,3.3102,3.3102,3.3102,3.3102,3.3102,3.3102,3.3102,3.3102,3.3102,3.3102,3.3102,3.3102,3.3102,3.3261,3.3556,3.4343,3.4943,4.8996,4.8996,4.8996,4.8996,4.8996,4.8979,4.8923,4.8906,4.8881,4.8787,0.0,4.8803,4.8632,0.0,4.8495,4.8226,0.0,4.7676,4.7323,4.7245,4.7485,4.8246,4.8907,4.9662,5.0584,5.128,5.1703,5.1703,5.1703,5.1703,5.1703,5.1678,5.1652,5.1615,5.1602,5.1462,5.1176,5.0834,5.0585,5.0446,5.0119,4.989,4.973,4.9498,4.9231,4.8924,0.0,0.0,4.7328,4.7312,4.6768,4.5963,4.5963,4.5896,4.5731,4.5084,4.4852,4.4753,4.411,4.3895,4.3861,4.3664,4.3598,4.36,4.3548,4.3505,4.3354,4.275,4.2301,4.176,4.0843,4.0122,3.9492,3.907,3.8712,3.8449,3.8449,3.8449,3.835,3.7964,3.7577,3.7035,3.6177,3.5198,3.4397,3.3934,3.3428,3.3102,3.3102,3.3102,3.3102,3.3102,3.3102,3.3102,3.3102,3.3102,3.3102,3.3102,3.3102,3.3102,3.3102,3.3102,3.3102,3.3102,3.3102,3.3102,3.3102,3.3102,3.3304,3.3683,3.4322,3.4874,4.8439,4.8439,4.8439,4.8439,4.8439,4.8439,4.842,4.8429,0.0,0.0,0.0,4.8632,4.8605,4.856,0.0,4.81,0.0,0.0,0.0,0.0,4.767,0.0,0.0,0.0,0.0,0.0,0.0,0.0,0.0,5.1703,5.1703,5.1577,5.1428,5.1211,5.1039,5.082,5.0568,5.0097,4.9823,4.9693,4.935,4.909,4.892,4.8858,4.875,4.8578,4.8355,0.0,4.8029,4.7916,4.742,4.6709,4.6709,4.6328,4.5765,4.5664,4.5615,4.5598,4.545,4.5417,4.5218,4.3994,4.3598,4.3684,4.4112,4.4028,4.3781,4.3677,4.3261,4.2601,4.1449,4.0939,4.058,4.0023,3.9828,3.977,3.977,3.977,3.9692,3.9465,3.9102,3.8599,3.7882,3.6442,3.5239,3.4839,3.381,3.3102,3.3102,3.3102,3.3102,3.3102,3.3102,3.3102,3.3102,3.3102,3.3102,3.3102,3.3102,3.3102,3.3102,3.3102,3.3102,3.3102,3.3102,3.3102,3.3102,3.3102,3.3219,3.3462,3.3971,3.4418,4.8141,4.8141,4.8141,4.8141,4.8141,4.8141,4.8141,0.0,0.0,0.0,0.0,4.8288,4.8288,0.0,0.0,0.0,0.0,0.0,0.0,0.0,0.0,0.0,0.0,0.0,0.0,0.0,0.0,0.0,0.0,5.1703,5.1703,5.1518,5.1255,5.0963,5.0716,5.045,5.0137,4.9674,4.9364,4.9231,4.8892,4.8626,4.8435,4.8435,4.8372,4.8228,4.8131,0.0,4.8082,4.8033,4.7785,4.7471,4.7471,4.7255,4.6891,4.651,4.6361,4.6311,4.5929,4.5813,4.5682,4.497,4.4661,4.4588,4.4684,4.4447,4.4056,4.3615,4.3149,4.2594,4.173,4.1198,4.082,4.0529,4.028,4.0104,4.0104,4.0104,4.0044,3.9836,3.947,3.9024,3.8449,3.7174,3.6087,3.5639,3.4524,3.366,3.353,3.3278,3.3102,3.3102,3.3102,3.3102,3.3102,3.3102,3.3102,3.3102,3.3102,3.3102,3.3102,3.3102,3.3102,3.3102,3.3102,3.3102,3.3102,3.3102,3.3197,3.342,3.3747,3.4063,4.7949,4.7949,4.7949,4.7949,4.7949,4.7949,4.7949,4.7949,0.0,0.0,0.0,4.799,4.8002,0.0,0.0,0.0,0.0,0.0,0.0,0.0,0.0,0.0,0.0,0.0,0.0,0.0,0.0,0.0,0.0,0.0,5.1564,5.1307,5.0972,5.0571,5.0341,5.0025,4.9656,4.9239,4.8983,4.8831,4.8531,4.8308,4.8163,4.8163,4.8098,4.8001,4.8001,0.0,0.0,4.8001,4.8001,4.8001,4.8001,4.8001,4.7934,4.7355,4.7139,4.7057,4.646,4.6246,4.6214,4.6214,4.5888,4.5483,4.5294,4.49,4.4361,4.3666,4.3154,4.2692,4.2142,4.1592,4.1185,4.1087,4.0797,4.0525,4.0525,4.0525,4.0465,4.0334,3.9991,3.9584,3.913,3.8028,3.7028,3.6455,3.5355,3.4438,3.4117,3.3696,3.3454,3.3454,3.3241,3.3102,3.3102,3.3102,3.3102,3.3102,3.3102,3.3102,3.3102,3.3102,3.3102,3.3102,3.3102,3.3102,3.3102,3.3102,3.3176,3.3334,3.3492,3.3704,4.772,4.772,4.772,4.772,4.772,4.772,4.772,0.0,0.0,0.0,4.7912,4.7925,4.8,4.7955,0.0,0.0,0.0,0.0,0.0,0.0,0.0,0.0,0.0,0.0,0.0,0.0,0.0,0.0,0.0,0.0,5.1158,5.0838,5.0408,4.9808,4.9649,4.9318,4.8811,4.8641,4.8468,4.8276,4.8115,4.8033,4.8017,4.8017,4.8017,4.8001,4.8001,0.0,0.0,4.8001,4.8001,4.8001,4.8001,4.8001,4.7984,4.7918,4.7901,4.7885,4.7819,4.7671,4.7523,4.7523,4.6617,4.5565,4.5898,4.5474,4.4827,4.4681,4.4277,4.3713,4.3056,4.2697,4.2425,4.2068,4.1959,4.1918,4.1918,4.1918,4.1918,4.1897,4.1647,4.1307,4.0852,3.9554,3.8296,3.7418,3.6202,3.5197,3.4695,3.4577,3.4552,3.4552,3.3671,3.3102,3.3102,3.3102,3.3102,3.3102,3.3102,3.3102,3.3102,3.3102,3.3102,3.3102,3.3102,3.3102,3.3102,3.3102,3.3124,3.3133,3.3154,3.3261,4.7833,4.7707,4.7707,4.7707,4.7707,4.7707,4.7707,0.0,0.0,4.777,4.777,4.7791,4.7814,4.7811,4.7678,0.0,0.0,0.0,0.0,0.0,0.0,0.0,0.0,0.0,0.0,0.0,0.0,0.0,0.0,0.0,5.0394,5.025,4.9933,4.9406,4.9152,4.8875,4.8578,4.8404,4.8276,4.8195,4.8049,4.8001,4.8001,4.8001,4.8001,4.8001,4.8001,0.0,0.0,4.8001,4.8001,4.8001,4.8001,4.8001,4.8001,4.8001,4.8001,4.7984,4.7853,4.777,4.7671,4.7454,4.6843,4.6168,4.6205,4.5692,4.4984,4.4612,4.417,4.3714,4.329,4.295,4.2602,4.2195,4.2092,4.2092,4.2092,4.2092,4.2092,4.2092,4.1787,4.1465,4.1262,4.0034,3.8868,3.8167,3.6863,3.5784,3.5238,3.4904,3.4703,3.4703,3.4324,3.3935,3.3608,3.3571,3.3454,3.3128,3.3102,3.3102,3.3102,3.3102,3.3102,3.3102,3.3102,3.3102,3.3102,3.3102,3.3102,3.3102,3.3102,3.3133,4.7924,4.7707,4.7707,4.7707,4.7707,4.7707,0.0,0.0,4.7707,4.7707,4.7707,4.7707,4.7707,4.7668,4.7572,4.7341,0.0,4.7288,0.0,0.0,0.0,0.0,0.0,0.0,0.0,0.0,0.0,0.0,0.0,0.0,0.0,4.9568,4.9329,4.8997,4.8702,4.8483,4.834,4.8195,4.8147,4.8147,4.805,4.8001,4.8001,4.8001,4.8001,4.8001,0.0,0.0,0.0,4.8001,4.8001,4.8001,4.8001,4.8001,4.8001,4.8001,4.8001,4.7968,4.777,4.7638,4.7488,4.7081,4.6633,4.6213,4.5875,4.5418,4.4911,4.4358,4.3895,4.3518,4.319,4.291,4.2602,4.2195,4.2092,4.2092,4.2092,4.2092,4.2092,4.2092,4.1773,4.1444,4.1318,4.03,3.9256,3.8522,3.7414,3.6427,3.5827,3.5441,3.5203,3.5203,3.5203,3.4914,3.4211,3.4148,3.3972,3.3605,3.3558,3.3558,3.3558,3.3558,3.3504,3.3341,3.3341,3.3266,3.3102,3.3266,3.3341,3.3341,3.3504,3.3558,4.7924,4.7707,4.7707,4.7707,4.7707,4.7707,0.0,0.0,4.7707,4.7707,4.7707,4.7707,4.7707,4.7593,4.7468,4.7313,4.7238,0.0,0.0,0.0,0.0,0.0,0.0,0.0,0.0,0.0,0.0,0.0,0.0,0.0,0.0,4.8781,4.8515,4.8515,4.8308,4.8147,4.8001,4.8001,4.8001,4.8001,4.8001,4.8001,4.8001,4.8001,4.8001,0.0,0.0,0.0,0.0,4.8001,4.8001,4.8001,4.8001,4.8001,4.8001,4.8001,4.8001,4.7968,4.777,4.7471,4.7098,4.6495,4.5945,4.5395,4.4799,4.461,4.4515,4.4108,4.366,4.321,4.2809,4.2688,4.2602,4.2195,4.2092,4.2092,4.2092,4.2092,4.2092,4.2092,4.1883,4.1542,4.1085,4.0437,3.9601,3.8381,3.7779,3.7214,3.6499,3.6392,3.6392,3.6392,3.6392,3.5929,3.4791,3.469,3.469,3.4678,3.4678,3.4678,3.4678,3.4678,3.4427,3.3897,3.3884,3.3621,3.3102,3.3621,3.3884,3.3909,3.4427,3.4678,4.9546,4.8949,4.8521,4.8521,4.8105,4.7707,4.7707,0.0,4.7707,4.7707,4.7707,4.7707,4.7707,4.7593,4.7468,4.7313,4.7238,0.0,0.0,0.0,0.0,0.0,0.0,0.0,0.0,0.0,0.0,0.0,0.0,0.0,0.0,4.8452,4.8292,4.8292,4.8147,4.8033,4.8001,4.8001,4.8001,4.8001,4.8001,4.8001,4.8001,4.8001,0.0,0.0,0.0,0.0,0.0,4.8001,4.8001,4.8001,4.8001,4.8001,4.8001,4.8001,4.7902,4.7754,4.747,4.7115,4.6686,4.5979,4.5452,4.4986,4.4377,4.4185,4.4089,4.366,4.3409,4.321,4.2809,4.2688,4.2602,4.2195,4.2092,4.2092,4.2092,4.2092,4.2092,4.2092,4.1773,4.1388,4.1064,4.0178,3.9225,3.8313,3.7641,3.7028,3.6476,3.6405,3.6405,3.6405,3.6405,3.6092,3.5318,3.5245,3.5082,3.4728,3.4703,3.4703,3.4703,3.4703,3.4615,3.4439,3.4439,3.4352,3.4176,3.4352,3.4439,3.4439,3.4615,3.4703,0.0,4.951,4.8902,4.8902,4.8304,0.0,0.0,0.0,4.7707,4.7707,4.7707,4.7678,4.7636,4.7511,4.7385,4.7283,4.7172,0.0,0.0,0.0,0.0,0.0,0.0,0.0,0.0,0.0,0.0,0.0,0.0,0.0,0.0,4.8211,4.8131,4.8131,4.8033,4.8001,4.8001,4.8001,4.8001,4.8001,4.8001,4.8001,4.8001,4.8001,0.0,0.0,0.0,0.0,0.0,4.8001,4.8001,4.8001,4.8001,4.8001,4.8001,4.8001,4.7869,4.7654,4.7319,4.6842,4.6248,4.5492,4.4821,4.4228,4.3856,4.3738,4.368,4.3369,4.329,4.321,4.2809,4.2688,4.2602,4.2195,4.2092,4.2092,4.2092,4.2092,4.2092,4.2092,4.1773,4.1388,4.1064,4.0199,3.9247,3.8336,3.7664,3.7038,3.6476,3.6405,3.6405,3.6405,3.6405,3.6243,3.5881,3.5832,3.5705,3.5366,3.5341,3.5341,3.5341,3.5341,3.5217,3.5017,3.5017,3.4904,3.4703,3.4904,3.5117,3.5341,3.5341,3.5341,0.0,4.9601,4.8992,4.8992,4.834,4.7707,0.0,0.0,0.0,4.7707,4.7678,4.7646,4.7522,4.7385,4.7265,4.7201,4.7088,0.0,0.0,0.0,0.0,0.0,0.0,0.0,0.0,0.0,0.0,0.0,0.0,0.0,0.0,4.8066,4.8001,4.8001,4.8001,4.8001,4.8001,4.8001,4.8001,4.8001,4.8001,4.8001,4.8001,4.8001,0.0,0.0,0.0,0.0,0.0,4.8001,4.8001,4.8001,4.8001,4.7984,4.7984,4.7984,4.7836,4.7588,4.7252,4.66,4.5821,4.498,4.4082,4.329,4.329,4.329,4.329,4.329,4.329,4.321,4.2809,4.2688,4.2602,4.2195,4.2092,4.2092,4.2092,4.2092,4.2092,4.2092,4.1883,4.1542,4.1085,4.0437,3.9601,3.8417,3.7815,3.7237,3.6499,3.6405,3.6405,3.6405,3.6405,3.6405,3.6405,3.6405,3.6405,3.6405,3.6405,3.6405,3.6405,3.6405,3.6143,3.5558,3.5558,3.533,3.4816,3.533,3.5845,3.6405,3.6405,3.6405,5.1296,0.0,4.9829,4.9829,4.8749,4.7707,0.0,0.0,0.0,0.0,0.0,4.7533,4.7511,4.7356,4.7212,4.7207,4.7088,0.0,0.0,0.0,0.0,0.0,0.0,0.0,0.0,0.0,0.0,0.0,0.0,0.0,0.0,4.8017,4.8001,4.8001,4.8001,4.8001,4.8001,4.8001,4.8001,4.8001,4.8001,4.8001,4.8001,4.8001,0.0,0.0,0.0,0.0,4.8001,4.8001,4.8001,4.8001,4.8001,4.7919,4.777,4.777,4.7488,4.7031,4.6652,4.6017,4.5231,4.4266,4.366,4.329,4.329,4.329,4.329,4.329,4.329,4.321,4.2809,4.2688,4.2602,4.2195,4.2092,4.2092,4.2092,4.2092,4.2092,4.2092,4.1883,4.1542,4.1085,4.0437,3.9667,3.8656,3.7943,3.7284,3.6698,3.6499,3.6405,3.6405,3.6405,3.6405,3.6405,3.6405,3.6405,3.6405,3.6405,3.6405,3.6405,3.6405,3.6318,3.6193,3.6193,3.613,3.5992,3.613,3.6256,3.6405,3.6405,3.6405,5.1513,5.0716,5.001,4.9637,4.8612,4.7707,4.7707,0.0,0.0,0.0,0.0,0.0,4.7418,0.0,0.0,0.0,0.0,0.0,0.0,0.0,0.0,0.0,0.0,0.0,0.0,0.0,0.0,0.0,0.0,0.0,0.0,4.8514,4.8663,4.8994,4.9011,4.868,4.8017,4.8001,4.8001,4.8001,4.8001,4.8001,4.8001,4.8001,4.8001,0.0,0.0,0.0,4.8001,4.8001,4.8001,4.7984,4.7902,4.7803,4.7688,4.7521,4.7184,4.6703,4.6197,4.5418,4.4515,4.3758,4.3423,4.329,4.329,4.329,4.329,4.329,4.323,4.3076,4.2789,4.2627,4.2479,4.2175,4.2092,4.2092,4.2092,4.2092,4.2092,4.2092,4.1974,4.1737,4.1262,4.0709,3.9952,3.889,3.8122,3.7397,3.6779,3.6523,3.6405,3.6405,3.6405,3.6405,3.6405,3.6405,3.6405,3.6405,3.6405,3.6405,3.6405,3.6405,3.6405,3.6405,3.6405,3.6405,3.6405,3.6405,3.6405,3.6405,3.6405,3.6405,5.1332,5.0535,4.9756,4.9065,4.8304,4.7707,4.7707,0.0,0.0,0.0,0.0,0.0,0.0,0.0,0.0,0.0,0.0,0.0,0.0,0.0,0.0,0.0,0.0,0.0,0.0,0.0,0.0,0.0,0.0,0.0,0.0,4.9259,4.9541,5.017,5.0203,4.959,4.8349,4.8216,4.8117,4.8001,4.8001,4.8001,4.8001,4.8001,4.8001,0.0,0.0,0.0,4.8001,4.8001,4.8001,4.7984,4.7787,4.7671,4.7571,4.7235,4.6824,4.6337,4.5676,4.4787,4.389,4.3428,4.329,4.329,4.329,4.3364,4.3439,4.3439,4.323,4.2941,4.2749,4.2541,4.2366,4.2154,4.2092,4.2092,4.2092,4.2092,4.2092,4.2092,4.2092,4.1968,4.1522,4.1064,4.0351,3.9242,3.8377,3.7615,3.6909,3.657,3.6405,3.6405,3.6405,3.6405,3.6405,3.6405,3.6405,3.6405,3.6405,3.6405,3.6405,3.6405,3.6405,3.6405,3.6405,3.6405,3.6405,3.6405,3.6405,3.6405,3.6405,3.6405,5.0499,4.9691,4.9047,4.8938,4.8304,4.7707,0.0,0.0,0.0,0.0,0.0,0.0,0.0,0.0,0.0,0.0,0.0,0.0,0.0,0.0,0.0,0.0,0.0,0.0,0.0,0.0,0.0,0.0,0.0,0.0,0.0,5.0021,5.0087,5.0203,5.0203,5.0087,4.9855,4.9226,4.863,4.8001,4.8001,4.8001,4.8001,4.8001,4.8001,0.0,0.0,4.8001,4.8001,4.8001,4.8001,4.7984,4.7787,4.7521,4.7218,4.6842,4.6264,4.5526,4.4591,4.4031,4.371,4.3404,4.329,4.329,4.329,4.3698,4.4147,4.4147,4.3588,4.2941,4.2749,4.2541,4.2366,4.2154,4.2092,4.2092,4.2092,4.2092,4.2092,4.2092,4.2092,4.2009,4.1717,4.1269,4.0702,3.9938,3.8877,3.7962,3.7446,3.6817,3.6405,3.6405,3.6405,3.6405,3.6405,3.6405,3.6405,3.6405,3.6405,3.6405,3.6405,3.6405,3.6405,3.6405,3.6405,3.6405,3.6405,3.6405,3.6405,3.6405,3.6405,3.6405,5.0318,4.951,4.8811,4.8359,4.7978,4.7668,0.0,0.0,0.0,0.0,0.0,0.0,0.0,0.0,0.0,0.0,0.0,0.0,0.0,0.0,0.0,0.0,0.0,0.0,0.0,0.0,0.0,0.0,0.0,0.0,0.0,0.0,5.0966,5.138,5.138,5.1197,5.08,5.0469,4.9922,4.9177,4.9177,4.8978,4.8597,4.8597,4.8382,4.8001,0.0,4.8001,4.8001,4.8001,4.8001,4.7968,4.7688,4.742,4.7081,4.6175,4.536,4.461,4.4046,4.3675,4.3523,4.3748,4.3848,4.3908,4.4267,4.4601,4.484,4.484,4.4467,4.4024,4.3797,4.3583,4.3368,4.3172,4.3123,4.3123,4.3123,4.3123,4.3123,4.3123,4.3123,4.3002,4.2632,4.2273,4.1693,4.0752,3.9761,3.8916,3.828,3.7659,3.7273,3.7273,3.7273,3.7273,3.7273,3.7273,3.7022,3.6455,3.6405,3.6405,3.6405,3.6405,3.6405,3.6405,3.6405,3.6405,3.6405,3.6405,3.6405,3.6405,3.6405,3.6405,5.0046,4.9238,4.8467,4.7852,0.0,0.0,0.0,0.0,0.0,0.0,0.0,0.0,0.0,0.0,0.0,0.0,0.0,0.0,0.0,0.0,0.0,0.0,0.0,0.0,0.0,0.0,0.0,0.0,0.0,0.0,0.0,0.0,5.1811,5.2375,5.2391,5.2126,5.1563,5.1546,5.1116,5.0203,5.0203,4.9889,4.9375,4.9375,4.9044,4.8531,4.8531,4.8531,4.8531,4.8531,4.8531,4.8481,4.813,4.7722,4.7186,4.5976,4.5087,4.4423,4.4182,4.3948,4.3848,4.4377,4.4521,4.4631,4.514,4.5409,4.5529,4.5529,4.5481,4.5315,4.4735,4.4464,4.4244,4.4058,4.3993,4.3993,4.3993,4.3993,4.3993,4.3993,4.3993,4.3871,4.3443,4.3165,4.2618,4.1507,4.0636,3.9809,3.9078,3.8469,3.8064,3.8002,3.8002,3.8002,3.8002,3.8002,3.7651,3.6821,3.6645,3.6543,3.6417,3.6405,3.6405,3.6405,3.6405,3.6405,3.6405,3.6405,3.6405,3.6405,3.6405,3.6405,4.9191,4.8395,4.7761,4.7707,0.0,0.0,0.0,0.0,0.0,0.0,0.0,0.0,0.0,0.0,0.0,0.0,0.0,0.0,0.0,0.0,0.0,0.0,0.0,0.0,0.0,0.0,0.0,0.0,0.0,0.0,0.0,0.0,0.0,5.2391,5.2391,5.2375,5.2325,5.2325,5.1595,5.0203,5.0203,5.017,5.012,5.012,5.0087,5.0038,5.0038,5.0038,5.0038,5.0038,5.0038,5.0003,4.9592,4.8762,4.7634,4.6823,4.6226,4.5784,4.534,4.5175,4.5155,4.5214,4.5229,4.5229,4.5289,4.5738,4.6226,4.6226,4.6488,4.6435,4.4971,4.4464,4.4244,4.4058,4.3993,4.3993,4.3993,4.3993,4.3993,4.3993,4.3993,4.3892,4.3632,4.3421,4.3024,4.2232,4.1268,4.0368,3.9631,3.8873,3.8286,3.8039,3.8002,3.8002,3.8002,3.8002,3.7977,3.7889,3.7436,3.6921,3.643,3.6405,3.6405,3.6405,3.6405,3.6405,3.6405,3.6405,3.6405,3.6405,3.6405,3.6405,4.9119,4.8322,4.7707,4.7707,0.0,0.0,0.0,0.0,0.0,0.0,0.0,0.0,0.0,0.0,0.0,0.0,0.0,0.0,0.0,0.0,0.0,0.0,0.0,0.0,0.0,0.0,0.0,0.0,0.0,0.0,0.0,0.0,0.0,5.2391,5.2391,5.2391,5.2391,5.2391,5.2126,5.1562,5.1562,5.133,5.0884,5.0884,5.0634,5.0203,5.0203,5.0203,5.0203,5.0203,5.0203,5.0135,4.9476,4.8487,4.7352,4.6805,4.6148,4.5531,4.5351,4.5289,4.5364,4.5798,4.5912,4.5986,4.6426,4.6726,4.6914,4.6914,4.6905,4.6747,4.6041,4.5668,4.5427,4.5236,4.5169,4.5169,4.5169,4.5169,4.5169,4.5169,4.5169,4.5036,4.4604,4.437,4.3869,4.2801,4.1884,4.1037,4.0249,3.9612,3.9158,3.9057,3.9057,3.9057,3.9057,3.9057,3.8906,3.8592,3.8015,3.76,3.7387,3.7374,3.7374,3.7374,3.7374,3.7374,3.7374,3.7374,3.7374,3.7374,3.7374,3.7374,4.8739,4.8123,4.7678,0.0,0.0,0.0,0.0,0.0,0.0,0.0,0.0,0.0,0.0,0.0,0.0,0.0,0.0,0.0,0.0,0.0,0.0,0.0,0.0,0.0,0.0,0.0,0.0,0.0,0.0,0.0,0.0,0.0,0.0,0.0,5.2391,5.2391,5.2391,5.2391,5.2391,5.2391,5.2391,5.2143,5.1646,5.1646,5.1381,5.0899,5.0899,5.0899,5.0899,5.0899,5.083,5.0639,4.993,4.8956,4.7911,4.7415,4.6727,4.6023,4.5954,4.5933,4.6007,4.6465,4.6614,4.6689,4.7174,4.7309,4.7309,4.7309,4.7121,4.6851,4.6661,4.6403,4.6158,4.5948,4.5903,4.5903,4.5903,4.5903,4.5903,4.5903,4.5903,4.5722,4.5193,4.5,4.4467,4.3211,4.2411,4.1634,4.0744,4.0172,3.9788,3.9723,3.9697,3.9697,3.9697,3.9697,3.9534,3.9183,3.8768,3.8379,3.8015,3.8002,3.8002,3.8002,3.8002,3.8002,3.8002,3.8002,3.8002,3.8002,3.8002,3.8002,4.7924,4.7707,0.0,0.0,0.0,0.0,0.0,0.0,0.0,0.0,0.0,0.0,0.0,0.0,0.0,0.0,0.0,0.0,0.0,0.0,0.0,0.0,0.0,0.0,0.0,0.0,0.0,0.0,0.0,0.0,0.0,0.0,0.0,0.0,5.2391,5.2391,5.2391,5.2391,5.2391,5.2391,5.2391,5.2391,5.2391,5.2391,5.2391,5.2391,5.2391,5.2391,5.2391,5.2391,5.2158,5.176,5.1285,5.047,4.9517,4.8831,4.816,4.7574,4.7374,4.7309,4.7309,4.7309,4.7309,4.7309,4.7309,4.7309,4.7309,4.7309,4.7121,4.6851,4.6661,4.6403,4.6158,4.5948,4.5903,4.5903,4.5903,4.5903,4.5903,4.5903,4.5903,4.5722,4.5193,4.5101,4.4685,4.3475,4.2836,4.2115,4.1034,4.0427,3.9981,3.9723,3.9697,3.9697,3.9697,3.9697,3.9697,3.9697,3.9697,3.9182,3.8065,3.8027,3.8027,3.8027,3.8027,3.8027,3.8027,3.8027,3.8027,3.8027,3.8027,3.8027,4.7656,4.7418,0.0,0.0,0.0,0.0,0.0,0.0,0.0,0.0,0.0,0.0,0.0,0.0,0.0,0.0,0.0,0.0,0.0,0.0,0.0,0.0,0.0,0.0,0.0,0.0,0.0,0.0,0.0,0.0,0.0,0.0,0.0,0.0,5.2391,5.2391,5.2391,5.2391,5.2391,5.2391,5.2391,5.2391,5.2391,5.2391,5.2391,5.2391,5.2391,5.2391,5.2391,5.2391,5.2158,5.1741,5.1118,5.0245,4.9228,4.8625,4.7949,4.7381,4.7331,4.7309,4.7309,4.7309,4.7309,4.7309,4.7309,4.7309,4.7309,4.7309,4.7121,4.6887,4.6822,4.6513,4.6158,4.5948,4.5903,4.5903,4.5903,4.5903,4.5903,4.5903,4.5903,4.5722,4.5193,4.4839,4.4256,4.3177,4.2251,4.1272,4.0185,3.9916,3.9788,3.9723,3.9697,3.9697,3.9697,3.9697,3.9697,3.9697,3.9697,3.9546,3.9207,3.9195,3.9195,3.9195,3.9195,3.9195,3.9195,3.9195,3.9195,3.9195,3.9195,3.9195,4.7467,0.0,0.0,0.0,0.0,0.0,0.0,0.0,0.0,0.0,0.0,0.0,0.0,0.0,0.0,0.0,0.0,0.0,0.0,0.0,0.0,0.0,0.0,0.0,0.0,0.0,0.0,0.0,0.0,0.0,0.0,0.0,0.0,0.0,5.2391,5.2391,5.2391,5.2391,5.2391,5.2391,5.2391,5.2391,5.2391,5.2391,5.2391,5.2391,5.2391,5.2338,5.2283,5.2283,5.1995,5.1485,5.0911,5.003,4.901,4.848,4.788,4.7309,4.7309,4.7309,4.7309,4.7309,4.7309,4.7309,4.7309,4.7309,4.7309,4.7309,4.7186,4.7019,4.6931,4.6697,4.6388,4.609,4.597,4.5903,4.5903,4.5903,4.5903,4.5903,4.5903,4.5768,4.533,4.4931,4.4303,4.3197,4.1843,4.0681,3.9813,3.9697,3.9697,3.9697,3.9697,3.9697,3.9697,3.9697,3.9697,3.9697,3.9697,3.9697,3.9697,3.9697,3.9697,3.9697,3.9697,3.9697,3.9697,3.9697,3.9697,3.9697,3.9697,3.9697,4.728,0.0,0.0,0.0,0.0,0.0,0.0,0.0,0.0,0.0,0.0,0.0,0.0,0.0,0.0,0.0,0.0,0.0,0.0,0.0,0.0,0.0,0.0,0.0,0.0,0.0,0.0,0.0,0.0,0.0,0.0,0.0,0.0,5.2391,5.2391,5.2391,5.2391,5.2391,5.2391,0.0,5.2391,5.2391,5.2391,5.2391,5.239,5.2356,5.2356,5.223,5.2048,5.2048,5.1684,5.1092,5.0602,4.9789,4.8821,4.8396,4.7837,4.7309,4.7309,4.7309,4.7309,4.7309,4.7309,4.7309,4.7309,4.7309,4.7309,4.7309,4.7309,4.7229,4.6997,4.6916,4.6785,4.6366,4.609,4.5925,4.5903,4.5903,4.5903,4.5903,4.5903,4.5813,4.5549,4.5261,4.4625,4.3266,4.162,4.0326,3.9774,3.9697,3.9697,3.9697,3.9697,3.9697,3.9697,3.9697,3.9697,3.9697,3.9697,3.9697,3.9697,3.9697,3.9697,3.9697,3.9697,3.9697,3.9697,3.9697,3.9697,3.9697,3.9697,3.9697,0.0,0.0,0.0,0.0,0.0,0.0,0.0,0.0,0.0,0.0,0.0,0.0,0.0,0.0,0.0,0.0,0.0,0.0,0.0,0.0,0.0,0.0,0.0,0.0,0.0,0.0,0.0,0.0,0.0,0.0,0.0,0.0,0.0,5.2391,5.2391,5.2391,5.2391,5.2391,5.2391,0.0,5.2391,5.2391,5.2391,5.2391,5.2302,5.2157,5.1995,5.1813,5.1645,5.1645,5.1223,5.0583,5.0018,4.934,4.8583,4.7986,4.7553,4.7309,4.7309,4.7309,4.7309,4.7309,4.7309,4.7309,4.7309,4.7309,4.7309,4.7309,4.7309,4.7287,4.7229,4.7062,4.6873,4.6763,4.6447,4.609,4.5925,4.5903,4.5903,4.5903,4.5903,4.5813,4.5549,4.5152,4.4219,4.2324,4.1335,4.0542,3.98,3.9697,3.9697,3.9697,3.9697,3.9697,3.9697,3.9697,3.9697,3.9697,3.9697,3.9697,3.9697,3.9697,3.9697,3.9697,3.9697,3.9697,3.9697,3.9697,3.9697,3.9697,3.9697,3.9697,0.0,0.0,0.0,0.0,0.0,0.0,0.0,0.0,0.0,0.0,0.0,0.0,0.0,0.0,0.0,0.0,0.0,0.0,0.0,0.0,0.0,0.0,0.0,0.0,0.0,0.0,0.0,0.0,0.0,0.0,0.0,5.2391,5.2391,5.2391,5.2391,5.2391,5.2391,5.2391,5.2391,5.2391,5.2391,5.2391,5.2408,5.2301,5.214,5.1941,5.1614,5.1301,5.1016,5.081,5.0409,4.988,4.932,4.8785,4.8244,4.7773,4.7467,4.7309,4.7309,4.7309,4.7309,4.7309,4.7309,4.7309,4.7309,4.7309,4.7309,4.7309,4.7309,4.7309,4.7309,4.7207,4.7062,4.6931,4.6543,4.6165,4.6068,4.597,4.5903,4.5903,4.5903,4.5858,4.5722,4.4977,4.3828,4.2101,4.131,4.0618,3.98,3.9697,3.9697,3.9697,3.9697,3.9697,3.9697,3.9697,3.9697,3.9697,3.9697,3.9697,3.9697,3.9697,3.9697,3.9697,3.9697,3.9697,3.9697,3.9697,3.9697,3.9697,3.9697,3.9697,0.0,0.0,0.0,0.0,0.0,0.0,0.0,0.0,0.0,0.0,0.0,0.0,0.0,0.0,0.0,0.0,0.0,0.0,0.0,0.0,0.0,0.0,0.0,0.0,0.0,0.0,0.0,0.0,0.0,0.0,5.2391,5.2391,5.2391,5.2391,5.2391,5.2391,5.2391,5.2391,5.2391,5.2391,5.2356,5.2354,5.2354,5.2084,5.1868,5.1723,5.121,5.0758,5.0331,4.9943,4.9526,4.9092,4.8661,4.8265,4.7901,4.7624,4.7445,4.7309,4.7309,4.7309,4.7309,4.7309,4.7309,4.7309,4.7309,4.7309,4.7309,4.7309,4.7309,4.7309,4.7309,4.7309,4.7229,4.7019,4.6609,4.6254,4.621,4.6046,4.5903,4.5903,4.5903,4.5858,4.579,4.4824,4.3624,4.2284,4.1433,4.0681,3.9865,3.9723,3.9697,3.9697,3.9697,3.9697,3.9697,3.9697,3.9697,3.9697,3.9697,3.9697,3.9697,3.9697,3.9697,3.9697,3.9697,3.9697,3.9697,3.9697,3.9697,3.9697,3.9697,3.9697,0.0,0.0,0.0,0.0,0.0,0.0,0.0,0.0,0.0,0.0,0.0,0.0,0.0,0.0,0.0,0.0,0.0,0.0,0.0,0.0,0.0,0.0,0.0,0.0,0.0,0.0,0.0,0.0,0.0,0.0,5.2391,5.2391,5.2391,5.2391,5.2391,5.2391,5.2391,5.2391,5.2391,5.2391,5.2229,5.2139,5.212,5.1557,5.1406,5.1499,5.0867,5.0237,4.9697,4.9461,4.9011,4.8412,4.816,4.7901,4.7639,4.7424,4.7331,4.7309,4.7309,4.7309,4.7309,4.7309,4.7309,4.7309,4.7309,4.7309,4.7309,4.7309,4.7309,4.7309,4.7309,4.7309,4.7287,4.7251,4.688,4.6469,4.6254,4.6046,4.5903,4.5903,4.5903,4.5745,4.5284,4.4723,4.3912,4.2628,4.1769,4.0946,4.0147,3.9839,3.9697,3.9697,3.9697,3.9697,3.9697,3.9697,3.9697,3.9697,3.9697,3.9697,3.9697,3.9697,3.9697,3.9697,3.9697,3.9697,3.9697,3.9697,3.9697,3.9697,3.9697,3.9697,0.0,0.0,0.0,0.0,0.0,0.0,0.0,0.0,0.0,0.0,0.0,0.0,0.0,0.0,0.0,0.0,0.0,0.0,0.0,0.0,0.0,0.0,0.0,0.0,0.0,0.0,0.0,0.0,0.0,5.2391,5.2391,5.2391,5.2391,5.2391,5.2391,5.2391,5.2391,5.2391,5.2391,5.2391,5.2193,5.2102,5.2084,5.148,5.1199,5.1124,5.0328,4.9717,4.9225,4.8744,4.8307,4.7901,4.7703,4.7531,4.7424,4.7331,4.7309,4.7309,4.7309,4.7309,4.7309,4.7309,4.7309,4.7309,4.7309,4.7309,4.7309,4.7309,4.7309,4.7309,4.7309,4.7309,4.7309,4.7309,4.6946,4.6572,4.6447,4.615,4.5903,4.5903,4.5903,4.5722,4.5193,4.4723,4.3889,4.2444,4.1706,4.0946,4.0006,3.9762,3.9697,3.9697,3.9697,3.9697,3.9697,3.9697,3.9697,3.9697,3.9697,3.9697,3.9697,3.9697,3.9697,3.9697,3.9697,3.9697,3.9697,3.9697,3.9697,3.9697,3.9697,3.9697,0.0,0.0,0.0,0.0,0.0,0.0,0.0,0.0,0.0,0.0,0.0,0.0,0.0,0.0,0.0,0.0,0.0,0.0,0.0,0.0,0.0,0.0,0.0,0.0,0.0,0.0,0.0,0.0,0.0,5.2391,5.2391,5.2391,5.2391,5.2391,5.2391,5.2391,5.2391,5.2391,5.2391,5.2391,5.214,5.1993,5.1921,5.1242,5.0807,5.0534,4.9876,4.9311,4.879,4.8218,4.7816,4.751,4.7359,4.7309,4.7309,4.7309,4.7309,4.7309,4.7309,4.7309,4.7309,4.7309,4.7309,4.7309,4.7309,4.7309,4.7309,4.7309,4.7309,4.7309,4.7309,4.7309,4.7309,4.7309,4.6968,4.6639,4.6462,4.615,4.5903,4.5903,4.5903,4.5722,4.5193,4.4723,4.3926,4.2444,4.1706,4.0946,4.0019,3.9774,3.9697,3.9697,3.9697,3.9697,3.9697,3.9697,3.9697,3.9697,3.9697,3.9697,3.9697,3.9697,3.9697,3.9697,3.9697,3.9697,3.9697,3.9697,3.9697,3.9697,3.9697,3.9697,0.0,0.0,0.0,0.0,0.0,0.0,0.0,0.0,0.0,0.0,0.0,0.0,0.0,0.0,0.0,0.0,0.0,0.0,0.0,0.0,0.0,0.0,0.0,0.0,0.0,0.0,0.0,0.0,0.0,5.2391,5.2391,5.2391,5.2391,5.2391,5.2391,5.2391,5.2391,5.2391,5.2391,5.2408,5.2013,5.1721,5.1499,5.064,5.0038,4.9657,4.9617,4.9133,4.8307,4.8091,4.7724,4.7294,4.7294,4.7309,4.7309,4.7309,4.7309,4.7309,4.7309,4.7309,4.7309,4.7309,4.7309,4.7309,4.7309,4.7309,4.7309,4.7309,4.7309,4.7309,4.7309,4.7309,4.7309,4.7309,4.7099,4.6712,4.6083,4.5903,4.5903,4.5903,4.5903,4.5722,4.5193,4.4723,4.4058,4.3008,4.1967,4.1096,4.0529,4.0019,3.9697,3.9697,3.9697,3.9697,3.9697,3.9697,3.9697,3.9697,3.9697,3.9697,3.9697,3.9697,3.9697,3.9697,3.9697,3.9697,3.9697,3.9697,3.9697,3.9697,3.9697,3.9697,0.0,0.0,0.0,0.0,0.0,0.0,0.0,0.0,0.0,0.0,0.0,0.0,0.0,0.0,0.0,0.0,0.0,0.0,0.0,0.0,0.0,0.0,0.0,0.0,0.0,0.0,0.0,0.0,0.0,0.0,5.2391,5.2391,5.2391,5.2391,5.2391,5.2391,5.2391,5.2391,5.2336,5.2211,5.1941,5.1647,5.1277,5.0544,4.9904,4.9396,4.9092,4.864,4.8091,4.7837,4.7574,4.7309,4.7309,4.7309,4.7309,4.7309,4.7309,4.7309,4.7309,4.7309,4.7309,4.7309,4.7309,4.7309,4.7309,4.7309,4.7309,4.7309,4.7309,4.7309,4.7309,4.7309,4.7251,4.7084,4.6866,4.658,4.618,4.5993,4.5903,4.5903,4.5903,4.5722,4.5193,4.4839,4.4186,4.2836,4.2029,4.1235,4.0364,3.9916,3.9697,3.9697,3.9697,3.9697,3.9697,3.9697,3.9697,3.9697,3.9697,3.9697,3.9697,3.9697,3.9697,3.9697,3.9697,3.9697,3.9697,3.9697,3.9697,3.9697,3.9697,3.9697,0.0,0.0,0.0,0.0,0.0,0.0,0.0,0.0,0.0,0.0,0.0,0.0,0.0,0.0,0.0,0.0,0.0,0.0,0.0,0.0,0.0,0.0,0.0,0.0,0.0,0.0,0.0,0.0,0.0,0.0,5.2391,5.2391,5.2391,5.2391,5.2391,5.2391,5.2391,5.232,5.2229,5.2102,5.1758,5.1389,5.094,5.0234,4.9562,4.8949,4.8474,4.8097,4.7837,4.7666,4.7488,4.7309,4.7309,4.7309,4.7309,4.7309,4.7309,4.7309,4.7309,4.7309,4.7309,4.7309,4.7309,4.7309,4.7309,4.7309,4.7309,4.7309,4.7309,4.7309,4.7309,4.7309,4.7251,4.7084,4.6815,4.655,4.638,4.6105,4.5903,4.5903,4.5903,4.5722,4.5193,4.4931,4.4317,4.286,4.2103,4.1335,4.0364,3.9916,3.9697,3.9697,3.9697,3.9697,3.9697,3.9697,3.9697,3.9697,3.9697,3.9697,3.9697,3.9697,3.9697,3.9697,3.9697,3.9697,3.9697,3.9697,3.9697,3.9697,3.9697,3.9697,0.0,0.0,0.0,0.0,0.0,0.0,4.8001,0.0,0.0,0.0,0.0,0.0,0.0,0.0,0.0,0.0,0.0,0.0,0.0,0.0,0.0,0.0,0.0,0.0,0.0,0.0,0.0,0.0,0.0,5.2391,5.2391,5.2391,5.2391,5.2391,5.2391,5.2391,5.2391,5.2193,5.2084,5.2048,5.1462,5.0921,5.0448,4.9641,4.8929,4.8265,4.7794,4.7602,4.7581,4.7581,4.7467,4.7309,4.7309,4.7309,4.7309,4.7309,4.7309,4.7309,4.7309,4.7309,4.7309,4.7309,4.7309,4.7309,4.7309,4.7309,4.7309,4.7309,4.7309,4.7309,4.7309,4.7309,4.7309,4.7309,4.6946,4.6616,4.6594,4.6239,4.5903,4.5903,4.5903,4.5722,4.5193,4.4931,4.4364,4.308,4.2215,4.1398,4.0605,4.0019,3.9697,3.9722,3.9722,3.9722,3.9747,3.9747,3.9747,3.9747,3.9747,3.9747,3.9747,3.9747,3.9747,3.9747,3.9747,3.9747,3.9747,3.971,3.9697,3.9697,3.9697,3.9697,4.5813,0.0,0.0,0.0,0.0,0.0,4.8001,4.8001,4.8001,0.0,0.0,0.0,0.0,0.0,0.0,0.0,0.0,0.0,0.0,0.0,0.0,0.0,0.0,0.0,0.0,0.0,0.0,0.0,5.2093,5.2391,5.2391,5.2391,5.2391,5.2391,5.2265,5.2193,5.2193,5.1847,5.1501,5.1156,5.0698,5.0175,4.9602,4.9036,4.8537,4.807,4.773,4.7531,4.7381,4.7381,4.7337,4.7309,4.7309,4.7309,4.7309,4.7309,4.7309,4.7309,4.7309,4.7309,4.7309,4.7309,4.7309,4.7309,4.7309,4.7309,4.7309,4.7309,4.7309,4.7309,4.7309,4.7309,4.7309,4.7309,4.7055,4.6778,4.6639,4.6351,4.6068,4.5925,4.5903,4.5722,4.5193,4.4931,4.4364,4.308,4.2215,4.1398,4.0605,4.0019,3.9848,4.0249,4.0287,4.045,4.0826,4.0863,4.0863,4.0863,4.0863,4.0863,4.0863,4.0863,4.0863,4.0863,4.0863,4.0863,4.0851,4.0086,3.9697,3.9697,3.9697,3.9697,0.0,0.0,0.0,0.0,0.0,0.0,4.8001,4.8001,4.8001,0.0,0.0,0.0,0.0,0.0,0.0,0.0,0.0,0.0,0.0,0.0,0.0,0.0,0.0,0.0,0.0,4.9756,0.0,5.1231,5.1977,5.2391,5.2391,5.2391,5.2391,5.2391,5.2211,5.2066,5.1993,5.1466,5.0984,5.0551,5.0061,4.9541,4.8975,4.8557,4.816,4.7816,4.7596,4.7402,4.7309,4.7309,4.7309,4.7309,4.7309,4.7309,4.7309,4.7309,4.7309,4.7309,4.7309,4.7309,4.7309,4.7309,4.7309,4.7309,4.7309,4.7309,4.7309,4.7309,4.7309,4.7309,4.7309,4.7309,4.7309,4.7309,4.7099,4.6829,4.6639,4.638,4.6135,4.5948,4.5903,4.5722,4.5193,4.4931,4.4401,4.3248,4.2476,4.178,4.1093,4.0637,4.0501,4.08,4.0838,4.0964,4.1263,4.1315,4.1315,4.1315,4.1315,4.1315,4.1315,4.1315,4.1315,4.1315,4.1315,4.1315,4.1315,4.0675,4.0375,4.0375,4.0375,4.0375,0.0,0.0,0.0,0.0,0.0,0.0,4.8001,4.8001,4.8001,4.8001,0.0,0.0,0.0,0.0,0.0,0.0,0.0,0.0,0.0,0.0,0.0,0.0,0.0,0.0,4.8912,4.964,5.0386,5.1116,5.1944,5.2391,5.2391,5.2391,5.2391,5.2391,5.2176,5.1959,5.176,5.1059,5.0493,5.0081,4.9461,4.8929,4.8474,4.8091,4.7794,4.7553,4.7396,4.7309,4.7309,4.7309,4.7309,4.7309,4.7309,4.7309,4.7309,4.7309,4.7309,4.7309,4.7309,4.7309,4.7309,4.7309,4.7309,4.7309,4.7309,4.7309,4.7309,4.7309,4.7309,4.7309,4.7309,4.7309,4.7309,4.7309,4.7121,4.6887,4.6683,4.6483,4.6282,4.6072,4.6019,4.5824,4.5307,4.5087,4.4648,4.3607,4.2962,4.2396,4.1828,4.149,4.134,4.139,4.1403,4.1428,4.149,4.149,4.149,4.149,4.149,4.149,4.149,4.149,4.149,4.149,4.149,4.149,4.149,4.1378,4.1315,4.1315,4.1315,4.1315,0.0,0.0,0.0,0.0,0.0,0.0,4.8001,4.8001,4.8001,0.0,0.0,0.0,0.0,0.0,0.0,0.0,0.0,0.0,0.0,0.0,0.0,0.0,0.0,0.0,4.8199,4.8895,4.9607,5.0369,5.1662,5.2391,5.2391,5.2391,5.2391,5.2391,5.205,5.1758,5.1555,5.056,4.986,4.9477,4.864,4.8091,4.7794,4.7553,4.7402,4.7359,4.7331,4.7309,4.7309,4.7309,4.7309,4.7309,4.7309,4.7309,4.7309,4.7309,4.7309,4.7309,4.7309,4.7309,4.7309,4.7309,4.7309,4.7309,4.7309,4.7309,4.7309,4.7309,4.7309,4.7309,4.7309,4.7309,4.7309,4.7309,4.7251,4.7142,4.6909,4.7059,4.7181,4.6984,4.6764,4.6466,4.5979,4.6097,4.5813,4.4545,4.37,4.2944,4.221,4.1624,4.149,4.1972,4.2022,4.2198,4.2622,4.266,4.266,4.266,4.266,4.266,4.266,4.266,4.266,4.266,4.266,4.266,4.266,4.1741,4.1315,4.1315,4.1315,4.1315,0.0,0.0,0.0,4.8001,0.0,0.0,0.0,4.8001,4.8001,4.8001,0.0,0.0,0.0,0.0,0.0,0.0,0.0,0.0,0.0,0.0,0.0,0.0,0.0,0.0,4.8001,4.868,4.9558,5.0667,5.1778,5.2391,5.2391,5.2391,5.2338,5.2248,5.1959,5.154,5.1016,5.0171,4.9437,4.8785,4.8118,4.7681,4.7445,4.7352,4.7309,4.7309,4.7309,4.7309,4.7309,4.7309,4.7309,4.7309,4.7309,4.7309,4.7309,4.7309,4.7309,4.7309,4.7309,4.7309,4.7309,4.7309,4.7309,4.7309,4.7309,4.7309,4.7309,4.7309,4.7309,4.7309,4.7309,4.7309,4.7384,4.7713,4.7803,4.7812,4.7889,4.8059,4.8153,4.794,4.7921,4.7642,4.6713,4.659,4.6196,4.5031,4.4249,4.3546,4.2883,4.2418,4.2258,4.2562,4.26,4.27,4.2977,4.3002,4.3002,4.3002,4.3002,4.3002,4.3002,4.3002,4.3002,4.3002,4.3002,4.3002,4.3002,4.2421,4.2158,4.2158,4.2158,4.2158,0.0,0.0,0.0,0.0,0.0,4.8001,0.0,0.0,0.0,4.8001,0.0,0.0,0.0,0.0,0.0,0.0,0.0,0.0,0.0,0.0,0.0,0.0,0.0,0.0,0.0,4.8812,4.9806,5.1,5.1894,5.2391,5.2391,5.2391,5.2318,5.2102,5.1868,5.1355,5.0506,4.9821,4.9077,4.8286,4.7794,4.7467,4.7309,4.7309,4.7309,4.7309,4.7309,4.7309,4.7309,4.7444,4.7414,4.7309,4.7309,4.7309,4.7309,4.7309,4.7309,4.7309,4.7309,4.7309,4.7309,4.7309,4.7309,4.7309,4.7309,4.7399,4.7489,4.7489,4.7593,4.7683,4.7683,4.7683,4.7818,4.8364,4.8498,4.8589,4.8909,4.9049,4.9047,4.8878,4.9078,4.8849,4.7497,4.7098,4.6606,4.5512,4.4797,4.416,4.3564,4.3225,4.3002,4.3002,4.3002,4.3002,4.3002,4.3002,4.3002,4.3002,4.3002,4.3002,4.3002,4.3002,4.3002,4.3002,4.3002,4.3002,4.3002,4.3002,4.3002,4.3002,4.3002,4.3002,0.0,0.0,0.0,0.0,4.8001,0.0,0.0,0.0,4.8001,4.8001,0.0,0.0,0.0,0.0,0.0,0.0,0.0,0.0,0.0,0.0,0.0,0.0,0.0,0.0,0.0,4.9259,5.0137,5.0302,5.1595,5.2391,5.2391,5.2391,5.2318,5.2102,5.1721,5.1186,5.0506,4.949,4.8754,4.8286,4.7624,4.7331,4.7309,4.7309,4.7309,4.7309,4.7309,4.7309,4.7354,4.7938,4.7833,4.7309,4.7309,4.7309,4.7309,4.7309,4.7309,4.7309,4.7309,4.7309,4.7309,4.7309,4.7309,4.7309,4.7309,4.7713,4.8199,4.8199,4.8618,4.9067,4.9067,4.9067,4.9082,4.9179,4.9187,4.9202,4.9239,4.9535,4.9783,4.976,4.9878,4.9596,4.8374,4.8221,4.7805,4.6476,4.5555,4.4725,4.3929,4.3348,4.3002,4.3002,4.3002,4.3002,4.3002,4.3002,4.3002,4.3002,4.3002,4.3002,4.3002,4.3002,4.3002,4.3002,4.3002,4.3002,4.3002,4.3002,4.3002,4.3002,4.3002,4.3002,0.0,0.0,0.0,0.0,0.0,0.0,0.0,0.0,4.8001,0.0,0.0,0.0,0.0,0.0,0.0,0.0,0.0,0.0,0.0,0.0,0.0,0.0,0.0,0.0,0.0,0.0,0.0,0.0,5.1562,5.2391,5.2391,5.2301,5.2084,5.1774,5.1336,5.0679,4.9821,4.9081,4.8459,4.7901,4.7488,4.7309,4.7309,4.7309,4.7309,4.7324,4.7713,4.7878,4.7923,4.8603,4.8498,4.7878,4.7878,4.7638,4.7309,4.7309,4.7309,4.7309,4.7309,4.7309,4.7369,4.7743,4.8154,4.8468,4.8468,4.8663,4.8873,4.8873,4.9082,4.9292,4.9292,4.9292,4.9381,4.9748,4.9823,4.9942,5.0316,5.0546,5.0647,5.0647,5.0484,5.0085,4.9248,4.8783,4.7976,4.6402,4.5569,4.4736,4.3751,4.3252,4.3002,4.3002,4.3002,4.3002,4.3002,4.3002,4.3002,4.3002,4.3002,4.3002,4.3002,4.3002,4.3002,4.3002,4.3002,4.3002,4.3002,4.3002,4.3002,4.3002,4.3002,4.3002,4.8001,0.0,0.0,0.0,0.0,0.0,0.0,0.0,0.0,0.0,0.0,0.0,0.0,0.0,0.0,0.0,0.0,0.0,0.0,0.0,0.0,0.0,0.0,0.0,0.0,0.0,0.0,5.0203,5.1562,5.2391,5.2391,5.2211,5.1939,5.1592,5.1022,5.0296,4.9396,4.8805,4.8202,4.7602,4.7402,4.7399,4.7578,4.7578,4.7668,4.7878,4.8364,4.8573,4.8618,4.9292,4.9172,4.8603,4.8745,4.8416,4.7818,4.7638,4.7578,4.7593,4.7773,4.7848,4.7923,4.8423,4.8902,4.9292,4.9292,4.9411,4.9561,4.9561,4.9681,4.9831,4.9831,4.9831,4.9927,5.0368,5.0465,5.0622,5.1086,5.1191,5.1167,5.1097,5.0757,5.0294,4.9683,4.893,4.7849,4.6244,4.5422,4.46,4.3532,4.3156,4.3002,4.3002,4.3002,4.3002,4.3002,4.3002,4.3002,4.3002,4.3002,4.3002,4.3002,4.3002,4.3002,4.3002,4.3002,4.3002,4.3002,4.3002,4.3002,4.3002,4.3002,4.3002,0.0,0.0,0.0,4.8001,0.0,0.0,0.0,0.0,4.8001,0.0,0.0,0.0,0.0,0.0,0.0,0.0,0.0,0.0,0.0,0.0,0.0,0.0,0.0,0.0,0.0,0.0,0.0,5.0203,5.1562,5.2391,5.2391,5.2211,5.1995,5.1813,5.0962,5.0214,4.9597,4.8744,4.8055,4.7602,4.7402,4.7638,4.8274,4.8274,4.8618,4.9232,4.9247,4.9284,4.9307,4.992,4.98,4.9322,4.9905,4.9778,4.9157,4.8513,4.8274,4.8364,4.9007,4.9232,4.9232,4.9247,4.9277,4.9292,4.9292,4.9703,5.0166,5.0166,5.0652,5.1131,5.1131,5.1131,5.1131,5.1161,5.1161,5.1161,5.1191,5.1191,5.112,5.0855,5.0623,5.0246,4.9467,4.8645,4.7631,4.6218,4.5261,4.4396,4.3504,4.3156,4.3002,4.3002,4.3002,4.3002,4.3002,4.3002,4.3002,4.3002,4.3002,4.3002,4.3002,4.3002,4.3002,4.3002,4.3002,4.3002,4.3002,4.3002,4.3002,4.3002,4.3002,4.3002,0.0,0.0,4.8001,4.8001,0.0,0.0,0.0,0.0,0.0,0.0,0.0,0.0,0.0,0.0,0.0,0.0,0.0,0.0,0.0,0.0,0.0,0.0,0.0,0.0,0.0,0.0,0.0,5.0203,5.1562,5.2391,0.0,5.2086,5.1813,5.161,5.0618,4.9801,4.9127,4.8438,4.8085,4.8062,4.7996,4.8319,4.8962,4.8962,4.9082,4.9307,4.9718,4.989,4.9934,5.0592,5.0473,4.992,5.0129,4.9838,4.9262,4.9037,4.8962,4.8992,4.9217,4.9576,4.989,4.989,5.0212,5.0556,5.0556,5.0697,5.0862,5.0862,5.1026,5.1191,5.1191,5.1191,5.1191,5.1191,5.1191,5.1191,5.1191,5.1191,5.112,5.0855,5.0504,4.9965,4.9168,4.8038,4.6869,4.5821,4.4979,4.4108,4.3252,4.3058,4.3002,4.3002,4.3002,4.3002,4.3002,4.3002,4.3002,4.3002,4.3002,4.3002,4.3002,4.3002,4.3002,4.3002,4.3002,4.3002,4.3002,4.3002,4.3002,4.3002,4.3002,4.3002,4.8001,4.8001,0.0,4.8001,4.8001,0.0,4.8001,0.0,0.0,0.0,0.0,0.0,0.0,0.0,0.0,0.0,0.0,0.0,0.0,4.8001,0.0,0.0,0.0,0.0,0.0,0.0,5.0101,5.0101,5.1527,5.2391,0.0,0.0,5.1741,5.161,5.0499,4.9732,4.9367,4.8701,4.8462,4.8663,4.8663,4.8992,4.9613,4.9613,4.9756,5.001,5.0383,5.0563,5.0592,5.1026,5.0951,5.0563,5.0563,5.0308,4.995,4.9703,4.9763,4.998,4.998,5.0242,5.0563,5.0563,5.0847,5.1191,5.1191,5.1191,5.1191,5.1191,5.1191,5.1191,5.1191,5.1191,5.1191,5.1191,5.1191,5.1191,5.1191,5.112,5.1003,5.0742,5.0289,4.9708,4.8895,4.7578,4.636,4.5502,4.4655,4.3874,4.3085,4.3002,4.3002,4.3002,4.3002,4.3002,4.3002,4.3002,4.3002,4.3002,4.3002,4.3002,4.3002,4.3002,4.3002,4.3002,4.3002,4.3002,4.3002,4.3002,4.3002,4.3002,4.3002,4.3002]}]]